Date StartTime U_cm/s V_cm/s W_cm/s Ustd_cm/s Vstd_cm/s Wstd_cm/s Uvar_(cm/s)^2 Vvar_(cm/s)^2 Wvar_(cm/s)^2 KE_(m/s)^2 TurbulentKE_(m/s)^2 HorizWindSpeed_cm/s FrictionSpeec_cm/s DragCoef SpeedOfSound_m/s SonicTemperature_C Pressure_mb 
03/22/2014  00:00:00     -146.263      -55.936      -14.979       42.339       31.085       16.589     1792.627      966.288      275.204        1.389        0.152      156.594        3.418        0.000      337.739        9.917      859.939
03/22/2014  00:01:00     -110.311      -27.898       -9.407       38.732       37.165       24.176     1500.154     1381.228      584.491        0.825        0.173      113.784       22.062        0.038      337.738        9.915      859.963
03/22/2014  00:02:00     -112.555        6.278      -20.290       45.518       34.260       16.317     2071.866     1173.741      266.235        0.832        0.176      112.730        9.115        0.007      337.738        9.913      859.985
03/22/2014  00:03:00      -43.482      -15.688       -2.287       53.887       53.166       16.826     2903.796     2826.655      283.105        0.408        0.301       46.225       14.342        0.096      337.734        9.907      859.982
03/22/2014  00:04:00     -100.766       81.472      -21.453       24.627       37.664       22.660      606.512     1418.583      513.467        0.989        0.127      129.582       18.991        0.021      337.893       10.175      859.987
03/22/2014  00:05:00     -126.921       27.617      -13.845       35.032       45.106       25.951     1227.212     2034.552      673.458        1.050        0.197      129.891       21.450        0.027      337.773        9.974      860.002
03/22/2014  00:06:00      -67.389      -25.227        2.076       46.881       27.889       25.093     2197.806      777.789      629.663        0.439        0.180       71.956       23.397        0.106      337.618        9.714      860.011
03/22/2014  00:07:00      -75.831      -37.005       -3.797       72.251       34.193       22.978     5220.205     1169.174      528.001        0.702        0.346       84.379       27.244        0.104      337.443        9.421      860.038
03/22/2014  00:08:00      -94.502      -52.452      -11.093       61.200       26.130       20.637     3745.470      682.796      425.891        0.833        0.243      108.082       21.216        0.039      337.404        9.354      860.059
03/22/2014  00:09:00     -146.644      -16.729      -14.048       51.788       36.075       27.464     2682.030     1301.392      754.269        1.336        0.237      147.595       27.727        0.035      337.276        9.141      860.077
03/22/2014  00:10:00     -136.633      -52.117       -8.307       30.620       28.622       21.281      937.556      819.238      452.875        1.183        0.110      146.236       16.925        0.013      337.279        9.146      860.068
03/22/2014  00:11:00      -63.539      -61.135        7.393       59.187       47.713       33.798     3503.121     2276.511     1142.285        0.737        0.346       88.174       28.904        0.107      337.286        9.158      860.073
03/22/2014  00:12:00      -83.189      -46.501       -4.900       57.221       39.483       26.950     3274.237     1558.929      726.326        0.733        0.278       95.304       26.136        0.075      337.242        9.085      860.068
03/22/2014  00:13:00      -40.251       -8.110        8.550       29.613       29.571       20.438      876.917      874.454      417.729        0.196        0.108       41.060       13.308        0.105      337.291        9.167      860.079
03/22/2014  00:14:00      -33.867      -14.047        1.308       50.447       40.047       28.009     2544.892     1603.740      784.500        0.314        0.247       36.664       28.224        0.593      337.182        8.983      860.081
03/22/2014  00:15:00      -54.700       55.632       -0.744       39.430       54.575       25.255     1554.686     2978.406      637.817        0.563        0.259       78.019       18.150        0.054      337.260        9.114      860.084
03/22/2014  00:16:00     -139.293      104.229      -31.240       54.297       54.381       32.129     2948.151     2957.240     1032.275        1.909        0.347      173.972       24.216        0.019      337.251        9.098      860.082
03/22/2014  00:17:00     -108.233       94.531      -15.624       62.267       73.568       36.277     3877.167     5412.296     1315.988        1.575        0.530      143.703       39.661        0.076      337.232        9.066      860.072
03/22/2014  00:18:00     -103.890       96.060      -10.983       39.562       63.775       29.827     1565.182     4067.258      889.665        1.333        0.326      141.494       23.190        0.027      337.179        8.976      860.070
03/22/2014  00:19:00     -138.891      123.207      -30.429       51.153       65.974       38.873     2616.673     4352.512     1511.149        2.194        0.424      185.663       33.854        0.033      337.178        8.973      860.077
03/22/2014  00:20:00     -150.566       84.502      -21.657       64.248       45.251       36.528     4127.862     2047.658     1334.329        1.889        0.375      172.658       31.345        0.033      337.233        9.069      860.081
03/22/2014  00:21:00     -140.841       92.892      -22.376       40.477       62.167       32.337     1638.420     3864.699     1045.677        1.776        0.327      168.716       24.224        0.021      337.140        8.911      860.093
03/22/2014  00:22:00     -100.183       64.382      -21.293       48.045       45.281       32.006     2308.307     2050.348     1024.401        1.001        0.269      119.087       26.194        0.048      337.108        8.859      860.110
03/22/2014  00:23:00     -140.038      111.975      -26.369       81.364       64.926       45.740     6620.040     4215.439     2092.193        2.288        0.646      179.301       40.755        0.052      337.023        8.715      860.123
03/22/2014  00:24:00     -124.583      143.856      -18.605       65.428       79.235       44.100     4280.884     6278.161     1944.771        2.453        0.625      190.303       36.177        0.036      337.039        8.740      860.140
03/22/2014  00:25:00     -186.823      209.165      -43.805       68.773       84.206       44.911     4729.778     7090.676     2016.981        4.720        0.692      280.451       41.584        0.022      336.999        8.673      860.156
03/22/2014  00:26:00     -113.401      106.259      -17.785       70.718       62.489       37.855     5000.983     3904.894     1433.028        1.740        0.517      155.405       33.877        0.048      337.076        8.805      860.167
03/22/2014  00:27:00     -140.697      193.377      -31.600       76.356       73.969       48.710     5830.279     5471.396     2372.621        3.593        0.684      239.145       38.112        0.025      337.039        8.741      860.162
03/22/2014  00:28:00     -125.772      146.213      -23.415       58.490       64.451       43.762     3421.104     4153.963     1915.074        2.362        0.475      192.865       39.440        0.042      337.078        8.808      860.166
03/22/2014  00:29:00     -117.172      141.602      -18.154       63.816       85.897       45.907     4072.430     7378.333     2107.479        2.383        0.678      183.795       45.701        0.062      337.004        8.683      860.192
03/22/2014  00:30:00     -159.184      106.294      -24.489       60.018       59.861       36.585     3602.147     3583.327     1338.433        2.288        0.426      191.410       26.864        0.020      337.086        8.821      860.187
03/22/2014  00:31:00      -98.842      145.432       -5.261       67.637       77.106       45.585     4574.781     5945.396     2078.027        2.177        0.630      175.842       27.159        0.024      337.037        8.739      860.191
03/22/2014  00:32:00     -139.677      138.810      -26.442       87.789       92.888       46.833     7706.857     8628.106     2193.372        2.900        0.926      196.920       38.020        0.037      337.104        8.850      860.192
03/22/2014  00:33:00     -168.564      170.681      -32.519       67.992       97.138       54.092     4622.893     9435.842     2925.969        3.779        0.849      239.887       54.320        0.051      337.100        8.843      860.191
03/22/2014  00:34:00     -198.127      178.829      -39.683       82.608       89.550       49.609     6824.017     8019.231     2461.013        4.505        0.865      266.897       53.513        0.040      337.013        8.696      860.186
03/22/2014  00:35:00     -195.291      159.528      -44.021       69.053       80.599       41.212     4768.304     6496.123     1698.457        3.924        0.648      252.166       38.904        0.024      337.061        8.776      860.182
03/22/2014  00:36:00     -157.533      154.917      -36.521       66.446       60.896       37.333     4415.081     3708.281     1393.731        2.983        0.476      220.943       32.132        0.021      336.998        8.672      860.171
03/22/2014  00:37:00     -174.135      162.035      -41.174       87.654       80.807       50.228     7683.288     6529.794     2522.893        3.750        0.837      237.862       43.917        0.034      336.945        8.584      860.175
03/22/2014  00:38:00     -129.568      139.112      -25.594       72.953       87.513       47.410     5322.127     7658.523     2247.710        2.601        0.761      190.105       47.553        0.063      336.941        8.576      860.174
03/22/2014  00:39:00      -99.800      148.914      -24.713       67.712       68.783       44.408     4584.953     4731.093     1972.080        2.202        0.564      179.264       43.626        0.059      336.903        8.516      860.163
03/22/2014  00:40:00     -123.149      173.435      -23.660       72.066       67.701       40.615     5193.530     4583.460     1649.612        2.861        0.571      212.710       33.568        0.025      336.885        8.483      860.181
03/22/2014  00:41:00     -104.877      114.529      -11.538       66.619       81.511       43.396     4438.074     6644.052     1883.226        1.861        0.648      155.293       38.097        0.060      336.885        8.486      860.189
03/22/2014  00:42:00     -156.982      143.630      -36.794       74.810       89.009       43.319     5596.505     7922.534     1876.512        3.101        0.770      212.774       48.561        0.052      336.922        8.545      860.185
03/22/2014  00:43:00     -106.980      103.055      -16.673       67.321       70.169       37.546     4532.182     4923.654     1409.715        1.660        0.543      148.543       27.727        0.035      336.897        8.505      860.200
03/22/2014  00:44:00      -83.366      205.710      -29.786       48.547       96.248       40.517     2356.788     9263.676     1641.609        3.171        0.663      221.960       49.704        0.050      336.783        8.314      860.207
03/22/2014  00:45:00      -92.082      162.276      -27.800       56.223       81.022       45.753     3160.984     6564.505     2093.319        2.370        0.591      186.582       40.190        0.046      336.752        8.264      860.217
03/22/2014  00:46:00     -102.672      214.120      -25.898       61.849      108.589       39.036     3825.302    11791.507     1523.801        3.710        0.857      237.464       48.323        0.041      336.735        8.235      860.233
03/22/2014  00:47:00      -85.164      136.441      -25.221       85.436       77.070       46.108     7299.332     5939.810     2125.961        2.093        0.768      160.839       48.637        0.091      336.807        8.354      860.245
03/22/2014  00:48:00     -116.800      194.195      -25.482       60.971       67.777       46.153     3717.488     4593.694     2130.059        3.122        0.522      226.614       39.511        0.030      336.788        8.321      860.267
03/22/2014  00:49:00      -83.716      157.274      -31.523       60.282       61.993       38.008     3633.876     3843.150     1444.583        2.083        0.446      178.167       34.503        0.038      336.774        8.300      860.279
03/22/2014  00:50:00      -56.324      180.702      -21.403       65.479       69.072       38.996     4287.531     4770.914     1520.712        2.343        0.529      189.276       33.252        0.031      336.732        8.230      860.307
03/22/2014  00:51:00      -74.784      136.904      -11.996       61.553       89.416       38.271     3788.725     7995.133     1464.671        1.886        0.662      155.997       41.430        0.071      336.783        8.316      860.312
03/22/2014  00:52:00      -41.762      158.907      -17.100       74.028       47.824       39.505     5480.218     2287.108     1560.660        1.831        0.466      164.303       35.918        0.048      336.673        8.132      860.307
03/22/2014  00:53:00      -51.349      204.008      -21.312       69.661       78.628       45.937     4852.724     6182.342     2110.201        2.893        0.657      210.371       43.616        0.043      336.722        8.211      860.335
03/22/2014  00:54:00      -85.119      188.923      -20.186       68.450       76.401       45.421     4685.425     5837.153     2063.087        2.796        0.629      207.213       44.036        0.045      336.702        8.179      860.353
03/22/2014  00:55:00      -79.442      179.455      -23.639       55.396       79.810       43.486     3068.771     6369.605     1891.022        2.520        0.566      196.253       45.328        0.053      336.738        8.240      860.348
03/22/2014  00:56:00     -113.478      106.583      -19.155       58.395       68.305       45.821     3409.989     4665.568     2099.531        1.739        0.509      155.683       38.091        0.060      336.854        8.433      860.363
03/22/2014  00:57:00      -95.895      178.822      -33.585       52.844       62.876       40.191     2792.506     3953.443     1615.302        2.533        0.418      202.912       39.238        0.037      336.738        8.239      860.376
03/22/2014  00:58:00      -31.047       72.093       -8.032       46.205       60.873       29.498     2134.930     3705.499      870.133        0.647        0.336       78.494       28.427        0.131      336.746        8.256      860.374
03/22/2014  00:59:00      -57.581      149.258      -26.073       37.202       50.829       27.861     1383.968     2583.632      776.244        1.551        0.237      159.980       26.465        0.027      336.678        8.140      860.387
03/22/2014  01:00:00      -45.940       78.878       -3.796       53.208       57.549       29.103     2831.130     3311.908      846.990        0.767        0.350       91.281       29.909        0.107      336.690        8.163      860.395
03/22/2014  01:01:00      -60.532      149.306      -10.461       81.783       81.527       41.600     6688.384     6646.662     1730.526        2.056        0.753      161.110       49.098        0.093      336.627        8.056      860.412
03/22/2014  01:02:00      -34.529      139.900       -4.822       56.212       85.762       36.991     3159.823     7355.126     1368.322        1.633        0.594      144.098       33.295        0.053      336.615        8.035      860.413
03/22/2014  01:03:00     -116.482      189.745      -34.329       82.943       82.414       46.785     6879.538     6792.087     2188.881        3.330        0.793      222.646       43.001        0.037      336.623        8.046      860.426
03/22/2014  01:04:00      -52.314      157.268      -10.344       60.258      106.716       47.747     3631.018    11388.285     2279.776        2.244        0.865      165.741       62.322        0.141      336.587        7.989      860.426
03/22/2014  01:05:00      -91.066      182.035      -33.201       90.418       76.682       41.277     8175.380     5880.120     1703.775        2.914        0.788      203.543       33.686        0.027      336.628        8.056      860.440
03/22/2014  01:06:00     -109.045      182.163      -29.755       66.712       80.463       37.137     4450.515     6474.222     1379.156        2.913        0.615      212.307       37.167        0.031      336.644        8.084      860.463
03/22/2014  01:07:00      -38.689      112.054      -20.692       38.387       67.386       27.893     1473.559     4540.832      778.044        1.064        0.340      118.545       33.668        0.081      336.621        8.047      860.473
03/22/2014  01:08:00      -49.245      106.762       -2.414       68.541       61.926       44.121     4697.815     3834.774     1946.635        1.215        0.524      117.572       35.095        0.089      336.651        8.098      860.465
03/22/2014  01:09:00      -72.389       66.215       -4.615       49.815       49.431       29.075     2481.541     2443.443      845.345        0.771        0.289       98.105       22.050        0.051      336.738        8.241      860.466
03/22/2014  01:10:00      -41.925       31.306       -6.566       49.612       68.366       27.794     2461.365     4673.892      772.506        0.534        0.395       52.323       30.820        0.347      336.646        8.089      860.473
03/22/2014  01:11:00      -88.827      116.666      -18.804       74.929       74.410       28.084     5614.380     5536.913      788.692        1.690        0.597      146.633       28.242        0.037      336.550        7.927      860.471
03/22/2014  01:12:00      -81.691       88.194        3.088       50.469       72.258       42.613     2547.080     5221.217     1815.850        1.202        0.479      120.214       26.076        0.047      336.529        7.891      860.474
03/22/2014  01:13:00      -80.368       -5.022        2.107       77.986       52.279       39.258     6081.863     2733.122     1541.159        0.842        0.518       80.525       40.710        0.256      336.465        7.785      860.471
03/22/2014  01:14:00      -89.977       -9.645       -4.031       71.686       68.331       33.590     5138.874     4669.111     1128.296        0.957        0.547       90.492       34.523        0.146      336.522        7.879      860.474
03/22/2014  01:15:00     -109.376       77.700      -30.576       59.670       52.801       36.600     3560.475     2787.998     1339.557        1.331        0.384      134.165       25.971        0.037      336.594        8.002      860.487
03/22/2014  01:16:00      -67.374       24.742       -8.125       57.541       46.005       35.219     3311.017     2116.493     1240.386        0.594        0.333       71.773       30.412        0.180      336.585        7.986      860.497
03/22/2014  01:17:00     -112.043       95.289      -26.970       48.679       41.826       32.439     2369.659     1749.447     1052.268        1.377        0.259      147.084       24.635        0.028      336.490        7.825      860.522
03/22/2014  01:18:00      -91.174       73.857       -9.696       49.582       71.816       34.471     2458.341     5157.484     1188.283        1.133        0.440      117.335       40.649        0.120      336.592        7.997      860.528
03/22/2014  01:19:00     -120.867      132.288      -21.288       54.324       95.315       36.176     2951.136     9084.908     1308.703        2.295        0.667      179.189       39.447        0.048      336.396        7.668      860.535
03/22/2014  01:20:00     -109.645       50.282      -28.320       41.555       43.599       25.456     1726.796     1900.829      648.029        0.981        0.214      120.625       14.716        0.015      336.576        7.969      860.536
03/22/2014  01:21:00      -96.697       36.433      -12.031       42.662       50.349       27.708     1820.026     2535.047      767.728        0.797        0.256      103.333       18.015        0.030      336.617        8.039      860.545
03/22/2014  01:22:00     -123.100      -36.467      -11.610       28.687       31.524       18.629      822.956      993.760      347.039        0.939        0.108      128.388       10.220        0.006      336.482        7.815      860.564
03/22/2014  01:23:00     -118.725      -48.901      -10.369       47.543       28.939       22.438     2260.379      837.485      503.479        1.010        0.180      128.402       20.002        0.024      336.165        7.283      860.564
03/22/2014  01:24:00     -165.216      -60.043      -17.597       30.697       38.581       20.888      942.320     1488.506      436.288        1.704        0.143      175.788       18.155        0.011      335.979        6.973      860.559
03/22/2014  01:25:00     -143.488      -50.021        0.692       58.144       40.293       29.504     3380.732     1623.529      870.459        1.448        0.294      151.957       29.288        0.037      335.949        6.923      860.559
03/22/2014  01:26:00     -148.884      -51.131       -3.581       36.395       41.413       27.337     1324.590     1715.026      747.319        1.429        0.189      157.420       20.700        0.017      335.927        6.885      860.570
03/22/2014  01:27:00     -184.985      -39.334      -17.487       57.905       47.276       33.210     3352.980     2234.974     1102.891        2.138        0.335      189.120       33.341        0.031      335.903        6.845      860.575
03/22/2014  01:28:00     -175.190       -1.896      -12.372       43.873       71.839       21.276     1924.816     5160.830      452.685        1.919        0.377      175.200       24.229        0.019      335.994        6.997      860.572
03/22/2014  01:29:00     -188.595      -41.658      -12.659       47.309       43.379       27.117     2238.174     1881.726      735.356        2.116        0.243      193.141       20.478        0.011      335.934        6.898      860.578
03/22/2014  01:30:00     -156.826      -58.665       -9.984       54.770       45.240       32.630     2999.754     2046.701     1064.691        1.712        0.306      167.439       28.086        0.028      335.910        6.858      860.562
03/22/2014  01:31:00     -121.434      -35.534        3.125       65.523       57.003       29.621     4293.229     3249.290      877.405        1.222        0.421      126.526       15.764        0.016      335.886        6.820      860.567
03/22/2014  01:32:00     -152.014      -39.858      -11.107       62.165       38.463       30.623     3864.476     1479.388      937.755        1.555        0.314      157.153       28.884        0.034      335.827        6.718      860.577
03/22/2014  01:33:00     -137.737      -70.453       -1.847       93.520       47.741       36.736     8746.028     2279.205     1349.557        1.815        0.619      154.709       49.003        0.100      335.732        6.560      860.592
03/22/2014  01:34:00     -121.853      -29.582      -15.826       46.683       40.781       24.611     2179.330     1663.111      605.704        1.021        0.222      125.392       23.491        0.035      335.738        6.571      860.614
03/22/2014  01:35:00     -104.697      -45.782        1.690       54.072       41.590       29.184     2923.758     1729.744      851.695        0.928        0.275      114.269       28.030        0.060      335.731        6.561      860.633
03/22/2014  01:36:00     -109.862      -26.127       -4.231       72.791       44.439       31.806     5298.494     1974.838     1011.643        1.053        0.414      112.926       28.863        0.065      335.795        6.666      860.656
03/22/2014  01:37:00     -289.296      -20.666      -27.410       97.581       56.175       48.389     9522.033     3155.660     2341.536        4.994        0.751      290.034       54.244        0.035      335.953        6.927      860.670
03/22/2014  01:38:00     -144.642        5.114       -6.901       80.961       40.230       30.003     6554.742     1618.445      900.175        1.503        0.454      144.732       31.939        0.049      335.968        6.955      860.683
03/22/2014  01:39:00     -151.257        0.754      -16.970       58.473       58.898       23.483     3419.044     3468.980      551.439        1.530        0.372      151.259       17.621        0.014      336.078        7.138      860.710
03/22/2014  01:40:00     -115.265      -13.447       -1.159       67.938       43.394       27.962     4615.541     1883.079      781.871        1.037        0.364      116.047       30.091        0.067      336.237        7.404      860.736
03/22/2014  01:41:00     -119.393      -12.353       -5.975       52.187       42.686       22.151     2723.494     1822.052      490.656        0.974        0.252      120.030       23.872        0.040      336.286        7.486      860.750
03/22/2014  01:42:00      -36.852      -34.737        4.990       29.304       43.896       24.237      858.707     1926.818      587.419        0.298        0.169       50.643       17.959        0.126      336.247        7.421      860.759
03/22/2014  01:43:00      -92.513      -51.542      -10.344       52.591       23.764       23.528     2765.860      564.749      553.577        0.760        0.194      105.902       27.971        0.070      336.219        7.373      860.773
03/22/2014  01:44:00      -70.139      -28.373        0.867       50.303       32.724       24.693     2530.435     1070.883      609.734        0.497        0.211       75.661       26.342        0.121      336.226        7.384      860.785
03/22/2014  01:45:00     -137.229      -76.951      -10.319       33.634       27.742       19.437     1131.264      769.631      377.802        1.357        0.114      157.332       17.108        0.012      336.532        7.898      860.803
03/22/2014  01:46:00     -129.227      -29.297       -7.918       54.130       28.407       16.551     2930.103      806.930      273.926        1.082        0.201      132.506       23.910        0.033      336.660        8.112      860.833
03/22/2014  01:47:00      -84.042      -14.840      -12.424       23.290       24.642       18.831      542.404      607.204      354.607        0.447        0.075       85.342       11.329        0.018      336.350        7.593      860.858
03/22/2014  01:48:00     -108.285      -20.295      -11.532       38.124       21.429       18.758     1453.467      459.213      351.869        0.727        0.113      110.171       20.529        0.035      336.364        7.615      860.874
03/22/2014  01:49:00     -101.308      -44.972       -6.744       37.049       42.381       25.272     1372.619     1796.166      638.678        0.807        0.190      110.842       15.358        0.019      336.391        7.661      860.888
03/22/2014  01:50:00      -51.001      -32.459        0.521       44.774       22.341       21.641     2004.706      499.131      468.343        0.331        0.149       60.454       18.694        0.096      336.393        7.664      860.912
03/22/2014  01:51:00      -16.001      -91.516       -0.637       17.252       23.736       11.983      297.637      563.394      143.596        0.482        0.050       92.905       11.587        0.016      336.629        8.059      860.925
03/22/2014  01:52:00      -39.473      -22.539        2.149       28.442       18.516       20.562      808.928      342.844      422.813        0.182        0.079       45.454       17.600        0.150      336.614        8.033      860.937
03/22/2014  01:53:00      -34.038      -38.217       -0.698       39.179       17.978       14.280     1535.014      323.196      203.930        0.234        0.103       51.177       17.431        0.116      336.466        7.786      860.949
03/22/2014  01:54:00      -11.559      -22.459       11.254       22.989       25.545       13.270      528.495      652.565      176.105        0.106        0.068       25.259       17.092        0.458      336.382        7.645      860.961
03/22/2014  01:55:00       11.835       -7.666       11.013       14.688       14.813        9.801      215.733      219.411       96.050        0.043        0.027       14.100        3.408        0.058      336.420        7.709      860.974
03/22/2014  01:56:00       19.989       38.181       -2.223       12.149       24.003       17.372      147.593      576.130      301.782        0.144        0.051       43.097       11.811        0.075      336.016        7.035      860.979
03/22/2014  01:57:00       44.057       22.000       -0.834       29.167       19.829       17.705      850.703      393.198      313.466        0.199        0.078       49.244       11.673        0.056      335.779        6.639      860.993
03/22/2014  01:58:00       26.771        9.590       10.438       24.463       12.356       15.298      598.446      152.672      234.041        0.095        0.049       28.437       10.638        0.140      335.853        6.763      861.005
03/22/2014  01:59:00       13.857       36.976       -8.746        9.585       10.051        5.256       91.869      101.014       27.624        0.093        0.011       39.487        5.319        0.018      335.996        7.001      860.999
03/22/2014  02:00:00       -6.515       15.654       -1.337        6.135        6.515        5.462       37.635       42.448       29.832        0.020        0.005       16.956        3.989        0.055      336.245        7.416      860.989
03/22/2014  02:01:00      -42.772       -8.160       -5.322       13.876        9.713        7.943      192.546       94.340       63.086        0.114        0.017       43.544        5.706        0.017      336.175        7.301      860.976
03/22/2014  02:02:00      -59.377        1.904       -6.613        6.634        8.009        7.036       44.007       64.147       49.512        0.187        0.008       59.408        4.395        0.005      336.112        7.195      860.956
03/22/2014  02:03:00      -50.717        4.301       -5.484       16.550       13.454        9.260      273.919      181.020       85.739        0.158        0.027       50.899        8.139        0.026      336.044        7.080      860.949
03/22/2014  02:04:00      -74.938        8.720      -12.294       10.229       20.841        8.007      104.632      434.366       64.115        0.322        0.030       75.443        7.361        0.010      336.260        7.442      860.954
03/22/2014  02:05:00      -60.807      -28.350       -5.940       11.315       16.439        8.731      128.019      270.227       76.232        0.251        0.024       67.091        5.802        0.007      336.207        7.355      860.955
03/22/2014  02:06:00      -49.440       -8.077       -7.788       13.953       16.163        9.383      194.674      261.248       88.048        0.156        0.027       50.096        4.059        0.007      336.194        7.331      860.967
03/22/2014  02:07:00      -66.241       36.962      -10.319       23.295       39.347       17.392      542.655     1548.159      302.470        0.413        0.120       75.855       19.139        0.064      336.232        7.395      860.983
03/22/2014  02:08:00      -33.006      -24.209       -5.501       29.593       14.224       12.886      875.731      202.308      166.059        0.147        0.062       40.933       10.837        0.070      336.169        7.290      860.985
03/22/2014  02:09:00       20.828      -13.041       16.767       22.903       28.215       21.070      524.541      796.061      443.934        0.132        0.088       24.573       18.286        0.554      335.983        6.980      860.989
03/22/2014  02:10:00       -8.412       11.189       -1.773       14.957        7.719        8.556      223.698       59.581       73.206        0.028        0.018       13.999        7.109        0.258      335.856        6.767      861.009
03/22/2014  02:11:00      -23.383        3.197       -0.388        6.603        6.088        4.355       43.602       37.063       18.965        0.033        0.005       23.601        3.588        0.023      335.943        6.912      861.025
03/22/2014  02:12:00       -8.505      -29.092       -5.822       10.704       16.590        5.442      114.570      275.224       29.613        0.069        0.021       30.310        3.423        0.013      335.987        6.987      861.040
03/22/2014  02:13:00      -11.129        4.406       34.512        8.428       43.580       22.431       71.039     1899.226      503.144        0.190        0.124       11.970       27.892        5.430      335.769        6.624      861.046
03/22/2014  02:14:00        9.728       36.303       22.048       15.171       12.629       20.725      230.160      159.502      429.526        0.136        0.041       37.584       14.033        0.139      335.628        6.388      861.090
03/22/2014  02:15:00        0.857        6.816       -0.885        5.906       10.098        3.291       34.879      101.974       10.829        0.010        0.007        6.869        2.380        0.120      335.780        6.642      861.113
03/22/2014  02:16:00      -14.311       -5.593       -1.929       12.823       10.374       12.068      164.437      107.630      145.633        0.033        0.021       15.365        3.588        0.055      335.799        6.674      861.122
03/22/2014  02:17:00       -2.081        9.023        3.918        8.626       16.937       10.594       74.413      286.868      112.238        0.029        0.024        9.260        3.649        0.155      335.807        6.685      861.133
03/22/2014  02:18:00       13.411       30.873        5.115       13.383        8.163        9.672      179.111       66.636       93.556        0.075        0.017       33.660        6.197        0.034      335.715        6.535      861.147
03/22/2014  02:19:00       -4.872        6.510        1.501        7.610        8.019        4.944       57.907       64.305       24.443        0.011        0.007        8.131        5.237        0.415      335.802        6.677      861.155
03/22/2014  02:20:00      -17.755        2.889       -5.691        5.533        3.456        4.136       30.617       11.944       17.104        0.021        0.003       17.989        3.050        0.029      335.837        6.740      861.154
03/22/2014  02:21:00      -32.811        3.844       -2.644        9.460       10.181        7.397       89.495      103.655       54.717        0.067        0.012       33.036        4.103        0.015      335.803        6.681      861.151
03/22/2014  02:22:00      -13.205       54.039        2.609       31.183       24.306       20.597      972.380      590.795      424.225        0.254        0.099       55.629       20.535        0.136      335.794        6.665      861.152
03/22/2014  02:23:00        6.245      106.784      -16.532       16.802       18.765       10.215      282.312      352.136      104.350        0.623        0.037      106.967        8.909        0.007      335.761        6.609      861.148
03/22/2014  02:24:00       -9.074      121.841      -20.197       15.064       13.862        7.555      226.929      192.163       57.079        0.791        0.024      122.179        3.007        0.001      335.923        6.880      861.142
03/22/2014  02:25:00      -43.625       80.668       -7.270       29.326       40.721       18.285      859.997     1658.160      334.328        0.566        0.143       91.708       18.474        0.041      335.965        6.951      861.138
03/22/2014  02:26:00      -61.951       99.843      -14.334       35.133       32.607       21.536     1234.331     1063.202      463.802        0.839        0.138      117.501       24.188        0.042      335.770        6.626      861.130
03/22/2014  02:27:00      -55.365       70.051       -8.260       31.023       28.771       17.570      962.438      827.766      308.716        0.507        0.105       89.288       20.899        0.055      335.597        6.337      861.109
03/22/2014  02:28:00      -66.172       80.265      -11.978       30.949       28.710       19.255      957.833      824.292      370.746        0.656        0.108      104.025       20.576        0.039      335.644        6.414      861.105
03/22/2014  02:29:00      -90.092       56.374      -19.183       19.301       22.618       16.504      372.544      511.555      272.382        0.641        0.058      106.276       11.306        0.011      335.546        6.253      861.100
03/22/2014  02:30:00      -70.511        8.580       -8.630       20.778       14.784       11.755      431.721      218.562      138.192        0.295        0.039       71.031        7.217        0.010      335.516        6.201      861.096
03/22/2014  02:31:00      -84.311       -2.236       -8.938       31.256       22.016       12.747      976.932      484.718      162.499        0.441        0.081       84.341       13.532        0.026      335.546        6.252      861.095
03/22/2014  02:32:00      -91.764       12.971      -13.570       34.538       25.227       17.025     1192.852      636.426      289.861        0.545        0.106       92.676       17.994        0.038      335.472        6.130      861.102
03/22/2014  02:33:00      -72.555       23.628      -14.714       33.790       21.553       19.073     1141.782      464.545      363.786        0.400        0.099       76.306       12.369        0.026      335.467        6.119      861.113
03/22/2014  02:34:00      -22.172       16.713       -1.246       29.342       30.655       18.370      860.943      939.719      337.464        0.145        0.107       27.765       14.618        0.277      335.384        5.982      861.122
03/22/2014  02:35:00       -9.895       -5.172      -12.004       15.149       10.030        9.302      229.491      100.609       86.532        0.034        0.021       11.166        5.165        0.214      335.443        6.079      861.121
03/22/2014  02:36:00      -18.500       -1.320       -3.289       16.605       11.191        7.617      275.715      125.244       58.014        0.041        0.023       18.547        6.987        0.142      335.377        5.970      861.136
03/22/2014  02:37:00       -5.067      -19.720      -20.463       15.629       12.458        7.462      244.255      155.207       55.684        0.064        0.023       20.361        3.929        0.037      335.411        6.024      861.139
03/22/2014  02:38:00      -12.275      -10.609        5.265       24.164       10.395        8.184      583.921      108.050       66.978        0.052        0.038       16.224        5.146        0.101      335.480        6.142      861.158
03/22/2014  02:39:00      -22.411        4.057        0.546       14.812       28.280       10.621      219.381      799.740      112.807        0.083        0.057       22.775        7.092        0.097      335.415        6.032      861.169
03/22/2014  02:40:00      -20.616       17.813       -3.586       22.581       27.732        9.903      509.908      769.064       98.073        0.107        0.069       27.246        8.724        0.103      335.359        5.941      861.187
03/22/2014  02:41:00      -58.822       -7.091       -9.176        9.565       11.022        8.258       91.496      121.494       68.192        0.194        0.014       59.248        5.885        0.010      335.309        5.856      861.199
03/22/2014  02:42:00      -75.869      -20.822      -17.225       40.262       22.764       16.939     1621.023      518.191      286.921        0.446        0.121       78.675       13.333        0.029      335.237        5.737      861.195
03/22/2014  02:43:00     -135.719      -49.103      -12.436       22.013       16.866       11.622      484.577      284.469      135.074        1.094        0.045      144.328       10.377        0.005      335.103        5.513      861.183
03/22/2014  02:44:00      -85.029      -21.710       -9.749       35.496       19.846        9.850     1259.964      393.852       97.021        0.477        0.088       87.757        9.930        0.013      335.009        5.360      861.175
03/22/2014  02:45:00      -85.493      -13.266       -9.152       32.299       22.444       17.023     1043.245      503.747      289.773        0.470        0.092       86.516       17.349        0.040      334.987        5.322      861.163
03/22/2014  02:46:00     -102.264       -8.944      -12.966       37.943       28.662       15.514     1439.681      821.483      240.679        0.660        0.125      102.654       11.776        0.013      334.937        5.239      861.135
03/22/2014  02:47:00     -138.379      -18.962      -13.875       28.072       24.991       15.745      788.060      624.563      247.918        1.068        0.083      139.672       13.467        0.009      334.858        5.107      861.109
03/22/2014  02:48:00     -128.916       -4.841      -14.172       33.139       25.314       20.869     1098.190      640.794      435.525        0.951        0.109      129.007       20.676        0.026      334.868        5.124      861.102
03/22/2014  02:49:00     -138.742      -11.769       -6.546       56.403       26.942       24.617     3181.310      725.850      606.008        1.197        0.226      139.240       29.856        0.046      334.730        4.896      861.098
03/22/2014  02:50:00     -151.222       -7.879      -18.275       31.422       20.672       15.811      987.369      427.352      249.995        1.246        0.083      151.427        6.162        0.002      334.716        4.872      861.100
03/22/2014  02:51:00     -149.517      -18.634      -14.752       40.807       36.173       17.668     1665.241     1308.518      312.157        1.310        0.164      150.674       20.083        0.018      334.811        5.029      861.111
03/22/2014  02:52:00     -104.823      -13.142      -10.855       41.371       24.362       16.843     1711.525      593.525      283.687        0.693        0.129      105.643       17.011        0.026      334.848        5.092      861.111
03/22/2014  02:53:00     -114.829      -45.685      -11.257       24.185       29.751       15.188      584.911      885.104      230.660        0.855        0.085      123.583        6.438        0.003      334.980        5.311      861.112
03/22/2014  02:54:00     -106.509      -36.745       -7.477       18.112       36.518       16.238      328.032     1333.578      263.682        0.734        0.096      112.669       10.546        0.009      334.938        5.240      861.116
03/22/2014  02:55:00     -109.626      -18.718       -9.009       27.096       51.143       19.903      734.205     2615.589      396.141        0.810        0.187      111.213       23.987        0.047      334.913        5.200      861.136
03/22/2014  02:56:00      -98.431      -34.619       -4.326       43.946       24.834       21.501     1931.248      616.744      462.282        0.696        0.151      104.342       25.307        0.059      335.012        5.364      861.135
03/22/2014  02:57:00      -58.677      -49.410        6.780       47.379       29.293       19.902     2244.794      858.093      396.070        0.471        0.175       76.710       21.570        0.079      335.088        5.491      861.138
03/22/2014  02:58:00      -40.039      -55.244        5.946       58.025       40.811       24.274     3366.955     1665.572      589.212        0.516        0.281       68.228       30.395        0.198      335.099        5.509      861.154
03/22/2014  02:59:00      -65.065      -58.048        4.603       61.255       25.847       20.436     3752.151      668.064      417.632        0.623        0.242       87.195       19.744        0.051      335.178        5.640      861.170
03/22/2014  03:00:00      -50.614      -55.178       14.878       56.762       31.122       29.796     3221.976      968.592      887.791        0.545        0.254       74.876       30.127        0.162      335.049        5.426      861.184
03/22/2014  03:01:00      -23.315      -33.841       13.602       42.164       25.534       19.700     1777.792      652.004      388.075        0.235        0.141       41.095       16.386        0.159      335.099        5.509      861.203
03/22/2014  03:02:00      -55.125      -39.809        9.703       45.213       24.157       16.654     2044.225      583.581      277.345        0.381        0.145       67.996       20.084        0.087      335.021        5.379      861.227
03/22/2014  03:03:00      -21.638      -50.859       -2.640       24.127       40.861       15.421      582.115     1669.581      237.795        0.278        0.124       55.271       13.222        0.057      335.094        5.500      861.241
03/22/2014  03:04:00      -56.332       -9.978       -4.160       32.809       23.992       14.164     1076.451      575.616      200.621        0.257        0.093       57.208       11.577        0.041      335.047        5.423      861.254
03/22/2014  03:05:00      -34.286      -32.833        9.769       48.354       22.994       18.876     2338.118      528.735      356.286        0.279        0.161       47.472       21.342        0.202      335.066        5.454      861.262
03/22/2014  03:06:00        0.472      -27.488        3.792       17.481       23.931       15.371      305.581      572.694      236.279        0.094        0.056       27.492        7.939        0.083      335.144        5.583      861.272
03/22/2014  03:07:00      -56.664      -23.123       -0.517       44.986       19.822       12.102     2023.767      392.896      146.461        0.315        0.128       61.200       18.221        0.089      335.024        5.385      861.270
03/22/2014  03:08:00      -80.749      -17.642        0.852       45.566       27.274       16.065     2076.246      743.853      258.093        0.495        0.154       82.654       14.013        0.029      334.871        5.129      861.264
03/22/2014  03:09:00      -77.011      -13.689      -12.384       14.991       10.586       10.080      224.729      112.058      101.602        0.335        0.022       78.218        6.460        0.007      334.927        5.223      861.275
03/22/2014  03:10:00     -105.666      -36.399      -11.980       31.395       30.623       13.990      985.663      937.779      195.714        0.738        0.106      111.760       14.313        0.016      334.918        5.207      861.278
03/22/2014  03:11:00      -58.904      -29.432        4.630       34.941       26.207       17.788     1220.845      686.826      316.426        0.329        0.111       65.848       15.936        0.059      334.807        5.022      861.260
03/22/2014  03:12:00      -77.021      -15.517       -0.610       26.632       21.734       12.031      709.261      472.382      144.752        0.375        0.066       78.569       11.579        0.022      334.796        5.005      861.259
03/22/2014  03:13:00     -100.506       10.771       -6.998       31.207       26.548       17.285      973.856      704.813      298.780        0.612        0.099      101.081       14.368        0.020      334.874        5.135      861.274
03/22/2014  03:14:00      -98.807      -52.572       -9.193       37.923       33.478       21.968     1438.131     1120.808      482.595        0.783        0.152      111.923       19.051        0.029      334.977        5.307      861.271
03/22/2014  03:15:00      -23.262      -43.147       -3.302       34.379       20.516       17.938     1181.935      420.891      321.777        0.217        0.096       49.018       14.451        0.087      334.937        5.240      861.265
03/22/2014  03:16:00       -3.844       -1.764        3.913       17.213       17.229       19.070      296.287      296.854      363.656        0.049        0.048        4.230       14.134       11.167      334.934        5.235      861.275
03/22/2014  03:17:00       -0.816       53.114      -11.698       15.659       19.380       14.511      245.216      375.565      210.558        0.189        0.042       53.120        7.616        0.021      335.078        5.473      861.303
03/22/2014  03:18:00       -1.682      -21.413       -8.358       11.963       22.092       10.641      143.120      488.046      113.236        0.064        0.037       21.479        9.508        0.196      335.085        5.484      861.302
03/22/2014  03:19:00      -20.451      -26.651       -1.598       19.652       15.077        9.079      386.192      227.310       82.420        0.091        0.035       33.594        7.637        0.052      335.159        5.607      861.313
03/22/2014  03:20:00       -1.303      -23.915        1.104       15.099       13.892       10.787      227.972      192.981      116.369        0.056        0.027       23.950        9.848        0.169      335.187        5.654      861.330
03/22/2014  03:21:00      -13.820      -10.947        5.389       20.972       10.794       12.030      439.806      116.503      144.723        0.052        0.035       17.630       14.232        0.652      335.044        5.416      861.352
03/22/2014  03:22:00       -1.991       -5.322        6.016       12.695       11.006       13.011      161.163      121.131      169.278        0.026        0.023        5.682       13.436        5.591      334.919        5.209      861.368
03/22/2014  03:23:00      -47.979      -19.321       -7.002       15.797       10.986        8.296      249.544      120.701       68.821        0.158        0.022       51.723        6.654        0.017      334.917        5.207      861.368
03/22/2014  03:24:00      -24.129       -6.448       -7.811        6.513        9.309        7.976       42.414       86.654       63.621        0.044        0.010       24.976        3.001        0.014      334.882        5.148      861.384
03/22/2014  03:25:00      -25.980      -12.499       -0.155       16.462       11.832        6.298      270.999      139.998       39.667        0.064        0.023       28.830        5.080        0.031      335.066        5.455      861.388
03/22/2014  03:26:00     -105.270      -17.724      -10.990       30.780       22.550       16.843      947.385      508.512      283.681        0.663        0.087      106.752       11.183        0.011      334.885        5.153      861.392
03/22/2014  03:27:00      -99.632       31.161      -17.608       48.403       54.567       24.931     2342.828     2977.556      621.556        0.857        0.297      104.391       25.743        0.061      335.135        5.568      861.405
03/22/2014  03:28:00      -69.239       28.135      -13.222       25.359       45.978       22.255      643.100     2113.993      495.306        0.451        0.163       74.737       18.744        0.063      335.151        5.594      861.408
03/22/2014  03:29:00      -55.036       31.387       -8.991       17.953       22.289       16.555      322.304      496.814      274.061        0.259        0.055       63.357       12.496        0.039      335.076        5.471      861.412
03/22/2014  03:30:00     -123.387      -27.101       -8.704       34.381       35.091       21.740     1182.070     1231.376      472.611        0.946        0.144      126.328       21.194        0.028      334.947        5.256      861.428
03/22/2014  03:31:00     -111.642      -13.618      -10.463       29.734       27.573       16.114      884.096      760.268      259.652        0.733        0.095      112.469       10.976        0.010      334.891        5.162      861.428
03/22/2014  03:32:00     -129.007       -2.200      -22.829       23.609       35.284       14.387      557.373     1244.944      206.977        0.959        0.100      129.026        5.408        0.002      334.855        5.102      861.446
03/22/2014  03:33:00     -127.595      -55.924       -1.556       44.694       27.426       15.331     1997.573      752.164      235.050        1.120        0.149      139.313       11.593        0.007      334.802        5.014      861.449
03/22/2014  03:34:00      -70.064      -19.097       -7.145       37.746       35.882       18.600     1424.740     1287.485      345.944        0.419        0.153       72.620       11.491        0.025      334.740        4.911      861.448
03/22/2014  03:35:00     -138.363      -47.405      -15.475       48.921       33.771       19.931     2393.306     1140.458      397.225        1.278        0.197      146.259       22.063        0.023      334.744        4.917      861.463
03/22/2014  03:36:00     -122.327      -49.982       -4.353       34.515       33.440       18.665     1191.307     1118.252      348.398        1.007        0.133      132.144       18.584        0.020      334.654        4.769      861.478
03/22/2014  03:37:00      -91.605      -61.630       -9.248       39.671       30.725       25.057     1573.814      944.020      627.841        0.771        0.157      110.407       18.602        0.028      334.729        4.892      861.490
03/22/2014  03:38:00     -118.195      -67.347      -15.152       25.201       22.810       21.603      635.107      520.307      466.688        1.018        0.081      136.036       15.259        0.013      334.775        4.968      861.518
03/22/2014  03:39:00      -89.074      -60.995       -4.500       37.218       36.021       22.064     1385.178     1297.535      486.799        0.742        0.158      107.957       20.803        0.037      334.795        5.002      861.536
03/22/2014  03:40:00      -68.492      -43.083        2.279       34.167       33.062       19.742     1167.402     1093.069      389.738        0.460        0.133       80.915       13.412        0.027      334.750        4.929      861.568
03/22/2014  03:41:00      -48.277      -38.724       10.621       47.368       34.397       25.578     2243.741     1183.152      654.242        0.401        0.204       61.889       25.059        0.164      334.739        4.910      861.586
03/22/2014  03:42:00        1.060      -28.520       24.704       46.509       29.223       27.957     2163.114      853.977      781.609        0.261        0.190       28.539       27.196        0.908      334.690        4.829      861.597
03/22/2014  03:43:00     -133.162      -44.553       -6.347       47.183       27.613       19.491     2226.254      762.461      379.914        1.156        0.168      140.418       18.807        0.018      334.633        4.734      861.608
03/22/2014  03:44:00      -83.513      -35.881        1.418       43.027       35.246       25.305     1851.325     1242.264      640.327        0.600        0.187       90.894       20.232        0.050      334.612        4.700      861.607
03/22/2014  03:45:00     -114.966     -108.061       -3.045       65.722       56.030       34.075     4319.435     3139.380     1161.111        1.676        0.431      157.780       27.785        0.031      334.449        4.427      861.612
03/22/2014  03:46:00     -145.805     -121.409       -0.261       57.765       52.583       31.144     3336.834     2764.958      969.973        2.153        0.354      189.735       28.934        0.023      334.415        4.369      861.624
03/22/2014  03:47:00     -120.374      -85.129       -0.662       60.440       48.630       32.111     3652.950     2364.859     1031.141        1.439        0.352      147.434       25.554        0.030      334.368        4.295      861.616
03/22/2014  03:48:00     -128.219      -63.825        1.453       77.573       48.573       33.663     6017.554     2359.293     1133.196        1.501        0.476      143.226       42.173        0.087      334.431        4.396      861.616
03/22/2014  03:49:00      -61.270      -30.474       10.589       53.184       30.763       22.081     2828.545      946.358      487.558        0.453        0.213       68.430       24.196        0.125      334.367        4.293      861.627
03/22/2014  03:50:00     -128.701      -17.703      -11.797       34.806       31.150       22.531     1211.492      970.314      507.667        0.985        0.134      129.913       17.752        0.019      334.379        4.314      861.630
03/22/2014  03:51:00     -131.252      -45.390       -9.044       62.421       44.662       27.737     3896.387     1994.696      769.334        1.301        0.333      138.878       27.894        0.040      334.371        4.299      861.612
03/22/2014  03:52:00     -107.465      -48.482       -4.445       61.710       51.088       32.282     3808.163     2610.000     1042.123        1.069        0.373      117.895       32.013        0.074      334.437        4.409      861.615
03/22/2014  03:53:00     -134.498      -24.413       -7.016       39.878       38.345       23.074     1590.244     1470.350      532.417        1.116        0.180      136.695       18.219        0.018      334.393        4.337      861.623
03/22/2014  03:54:00     -148.897      -34.834      -12.005       40.289       40.244       26.440     1623.171     1619.589      699.048        1.373        0.197      152.917       22.167        0.021      334.381        4.317      861.632
03/22/2014  03:55:00     -117.179      -86.269       -8.517       56.319       48.232       29.674     3171.845     2326.338      880.559        1.381        0.319      145.510       30.991        0.045      334.385        4.322      861.638
03/22/2014  03:56:00     -173.968      -80.338       -4.215       31.606       27.381       19.955      998.965      749.735      398.195        1.944        0.107      191.622        9.660        0.003      334.427        4.392      861.640
03/22/2014  03:57:00      -96.970      -53.328        5.452       66.933       37.444       26.646     4480.071     1402.085      710.023        0.943        0.330      110.666       22.845        0.043      334.456        4.439      861.645
03/22/2014  03:58:00      -48.262      -28.502        8.383       64.998       41.554       26.853     4224.786     1726.756      721.106        0.494        0.334       56.050       37.910        0.457      334.430        4.398      861.662
03/22/2014  03:59:00      -37.964      -59.122        5.810       51.227       27.687       26.512     2624.212      766.569      702.864        0.453        0.205       70.261       27.262        0.151      334.537        4.574      861.680
03/22/2014  04:00:00      -90.105      -61.976       -9.030       38.539       22.864       17.098     1485.220      522.747      292.327        0.717        0.115      109.362       12.977        0.014      334.548        4.592      861.696
03/22/2014  04:01:00      -70.918      -35.041       -0.224       55.298       40.314       22.437     3057.849     1625.226      503.420        0.572        0.259       79.103       28.074        0.126      334.507        4.525      861.704
03/22/2014  04:02:00      -39.155      -52.366       18.265       57.751       39.764       30.768     3335.227     1581.207      946.653        0.524        0.293       65.386       37.310        0.326      334.525        4.554      861.718
03/22/2014  04:03:00      -88.792      -88.778       15.395       62.312       47.522       32.383     3882.771     2258.373     1048.653        1.159        0.359      125.560       33.472        0.071      334.424        4.387      861.736
03/22/2014  04:04:00     -130.327      -68.467       -2.941       62.926       40.830       35.420     3959.685     1667.096     1254.558        1.428        0.344      147.217       39.248        0.071      334.375        4.306      861.742
03/22/2014  04:05:00      -81.545      -68.752        1.097       55.717       36.993       24.966     3104.408     1368.466      623.295        0.824        0.255      106.660       22.925        0.046      334.340        4.249      861.748
03/22/2014  04:06:00      -94.336     -117.427       -5.073       54.144       52.923       36.784     2931.611     2800.887     1353.061        1.490        0.354      150.626       34.789        0.053      334.273        4.135      861.743
03/22/2014  04:07:00     -124.104     -145.545       -3.234       43.902       54.890       38.625     1927.383     3012.892     1491.876        2.151        0.322      191.272       36.492        0.036      334.167        3.958      861.755
03/22/2014  04:08:00      -66.753     -102.780        6.765       61.060       56.518       30.810     3728.297     3194.291      949.236        1.147        0.394      122.555       35.380        0.083      334.177        3.978      861.770
03/22/2014  04:09:00      -61.856      -74.437       -1.471       51.167       43.497       20.726     2618.048     1891.959      429.575        0.715        0.247       96.784       27.157        0.079      334.177        3.977      861.786
03/22/2014  04:10:00      -89.607      -88.017      -11.017       27.250       29.235       19.650      742.585      854.707      386.115        0.894        0.099      125.605       12.791        0.010      334.268        4.128      861.797
03/22/2014  04:11:00     -104.487      -87.704      -15.140       47.213       27.516       21.639     2229.069      757.120      468.235        1.115        0.173      136.416       23.137        0.029      334.378        4.311      861.798
03/22/2014  04:12:00     -117.193      -62.975      -10.457       40.065       30.374       18.712     1605.218      922.605      350.131        1.034        0.144      133.041       20.167        0.023      334.329        4.231      861.789
03/22/2014  04:13:00      -80.193      -50.781       -3.746       35.952       20.788       14.485     1292.527      432.137      209.805        0.548        0.097       94.919       16.492        0.030      334.261        4.118      861.796
03/22/2014  04:14:00      -81.188      -51.735       -4.979       40.343       26.206       16.828     1627.551      686.745      283.196        0.594        0.130       96.270       20.252        0.044      334.327        4.228      861.803
03/22/2014  04:15:00      -59.889      -35.904        2.718       22.940       18.279       14.575      526.247      334.125      212.430        0.298        0.054       69.827        9.186        0.017      334.426        4.391      861.796
03/22/2014  04:16:00      -50.964      -28.197       -3.438       31.898       27.573       13.774     1017.483      760.288      189.711        0.269        0.098       58.245       13.459        0.053      334.424        4.387      861.805
03/22/2014  04:17:00      -69.863      -32.126       -4.976       18.960       21.799       14.355      359.485      475.193      206.066        0.349        0.052       76.896        8.375        0.012      334.356        4.275      861.813
03/22/2014  04:18:00      -83.512      -27.136      -10.224       16.625       10.556       12.673      276.399      111.436      160.595        0.418        0.027       87.810        5.639        0.004      334.347        4.260      861.816
03/22/2014  04:19:00      -38.483      -25.475       -8.915       23.288       12.924       10.618      542.335      167.026      112.742        0.152        0.041       46.151        7.060        0.023      334.348        4.262      861.831
03/22/2014  04:20:00      -20.115      -32.592       -4.727       22.240       20.983       16.096      494.627      440.303      259.087        0.134        0.060       38.299       10.542        0.076      334.400        4.348      861.846
03/22/2014  04:21:00      -55.888      -21.961       -5.609       25.056       12.898       11.889      627.798      166.354      141.339        0.229        0.047       60.048        6.485        0.012      334.336        4.241      861.853
03/22/2014  04:22:00      -11.836      -22.256       -4.658       20.607       16.041       11.545      424.653      257.305      133.286        0.074        0.041       25.207       10.407        0.170      334.300        4.184      861.874
03/22/2014  04:23:00      -31.971      -32.120        6.169       31.594       20.877       18.834      998.172      435.860      354.705        0.194        0.089       45.319       13.212        0.085      334.150        3.934      861.891
03/22/2014  04:24:00      -52.498      -49.224       -3.286       29.777       25.555       17.443      886.691      653.063      304.261        0.352        0.092       71.965        7.411        0.011      334.117        3.877      861.896
03/22/2014  04:25:00      -60.631      -61.253       -3.118       41.093       31.046       20.304     1688.597      963.861      412.252        0.525        0.153       86.186       21.137        0.060      334.070        3.800      861.895
03/22/2014  04:26:00     -130.401      -87.017        2.308       55.388       30.008       26.336     3067.781      900.502      693.594        1.462        0.233      156.769       24.372        0.024      334.002        3.686      861.896
03/22/2014  04:27:00     -134.475      -86.310       -0.721       37.509       28.787       26.941     1406.895      828.667      725.795        1.425        0.148      159.790       21.715        0.018      333.923        3.558      861.898
03/22/2014  04:28:00     -134.148      -80.601        1.307       40.151       33.909       27.918     1612.080     1149.835      779.390        1.402        0.177      156.500       21.515        0.019      333.913        3.539      861.896
03/22/2014  04:29:00      -95.258      -67.634        3.048       50.767       42.493       29.315     2577.289     1805.626      859.376        0.945        0.262      116.826       25.929        0.049      333.943        3.589      861.900
03/22/2014  04:30:00      -92.013      -67.171        5.630       57.835       40.794       25.403     3344.895     1664.160      645.326        0.933        0.283      113.922       22.279        0.038      333.984        3.657      861.913
03/22/2014  04:31:00      -93.300      -70.487       -3.551       52.171       41.937       27.567     2721.839     1758.679      759.915        0.946        0.262      116.933       29.443        0.063      334.069        3.798      861.919
03/22/2014  04:32:00      -93.709      -85.542        2.087       44.138       39.123       30.610     1948.127     1530.585      936.971        1.026        0.221      126.881       25.423        0.040      334.135        3.908      861.931
03/22/2014  04:33:00     -101.700      -49.007      -14.997       18.063       21.014       14.656      326.278      441.584      214.787        0.698        0.049      112.892        6.316        0.003      334.075        3.809      861.963
03/22/2014  04:34:00     -113.355      -54.174      -15.436       13.924       21.140       12.916      193.889      446.902      166.829        0.841        0.040      125.635        5.872        0.002      334.099        3.848      861.982
03/22/2014  04:35:00     -100.561      -32.634       -9.305       19.238       24.766       14.604      370.097      613.365      213.279        0.623        0.060      105.724       10.268        0.009      334.036        3.745      861.990
03/22/2014  04:36:00      -91.602      -28.372       -4.907       17.486       19.384       10.653      305.759      375.745      113.480        0.501        0.040       95.895        7.872        0.007      334.093        3.839      861.998
03/22/2014  04:37:00      -88.963      -37.059       -1.651       26.722       21.430       12.345      714.086      459.230      152.387        0.531        0.066       96.373        9.408        0.010      334.017        3.712      862.012
03/22/2014  04:38:00      -88.123      -46.993        0.272       38.851       21.118       18.469     1509.415      445.964      341.090        0.613        0.115       99.870       17.055        0.029      334.091        3.835      862.041
03/22/2014  04:39:00      -52.141      -35.730        5.793       45.179       27.725       21.362     2041.140      768.669      456.334        0.365        0.163       63.208       24.011        0.144      334.098        3.847      862.055
03/22/2014  04:40:00      -22.449      -40.736       10.271       27.718       22.237       21.221      768.274      494.465      450.311        0.199        0.086       46.512       19.442        0.175      334.167        3.961      862.068
03/22/2014  04:41:00       -3.242      -19.423       21.498       22.007       16.395       13.139      484.308      268.811      172.625        0.089        0.046       19.691       13.383        0.462      334.234        4.072      862.080
03/22/2014  04:42:00      -31.738      -21.017        2.781       29.138       14.172       11.253      849.052      200.854      126.628        0.132        0.059       38.065       13.761        0.131      334.152        3.936      862.100
03/22/2014  04:43:00      -16.688      -21.713       -8.887       23.029       13.900        9.944      530.324      193.218       98.885        0.083        0.041       27.385        8.386        0.094      334.162        3.952      862.127
03/22/2014  04:44:00      -29.058      -10.913       -1.016       18.937        9.121        5.815      358.608       83.188       33.818        0.072        0.024       31.040        4.254        0.019      334.171        3.968      862.147
03/22/2014  04:45:00      -42.858      -19.812        3.097       11.188        9.877        9.564      125.180       97.552       91.465        0.128        0.016       47.216        2.354        0.002      334.080        3.817      862.157
03/22/2014  04:46:00       -5.114      -18.488       14.004       11.589       22.280       14.989      134.315      496.393      224.679        0.071        0.043       19.182       12.746        0.441      334.074        3.806      862.169
03/22/2014  04:47:00        1.201       -2.610       15.402       16.185       24.773       15.911      261.969      613.696      253.165        0.069        0.056        2.873       16.273       32.074      334.167        3.961      862.174
03/22/2014  04:48:00        9.020        7.987        8.028       17.551        8.814        9.773      308.030       77.685       95.514        0.035        0.024       12.048       10.228        0.721      334.048        3.764      862.184
03/22/2014  04:49:00      -27.525      -19.642        1.559       11.877        7.629        7.204      141.070       58.203       51.893        0.070        0.013       33.815        2.987        0.008      334.154        3.939      862.198
03/22/2014  04:50:00      -16.382      -11.575        3.242       13.071        9.242        9.426      170.846       85.420       88.842        0.038        0.017       20.058        9.200        0.210      334.094        3.841      862.211
03/22/2014  04:51:00      -33.005      -17.108       -6.526       12.201        8.127        9.267      148.871       66.040       85.879        0.086        0.015       37.175        4.022        0.012      334.041        3.752      862.231
03/22/2014  04:52:00      -62.825      -24.100      -11.670       19.237       13.999        9.495      370.081      195.973       90.156        0.266        0.033       67.289        9.430        0.020      334.009        3.700      862.247
03/22/2014  04:53:00      -86.064      -32.625      -10.937       14.111       17.279        9.237      199.111      298.562       85.318        0.459        0.029       92.041        6.364        0.005      333.822        3.390      862.264
03/22/2014  04:54:00      -60.371      -45.571      -13.980       22.509       12.298       11.413      506.654      151.241      130.266        0.335        0.039       75.640        5.207        0.005      333.905        3.527      862.279
03/22/2014  04:55:00      -37.272      -33.885       -8.642        9.605        7.660        7.871       92.264       58.672       61.946        0.141        0.011       50.373        3.543        0.005      334.121        3.885      862.275
03/22/2014  04:56:00      -41.731      -46.698       -5.408       29.736       16.257       12.271      884.213      264.298      150.584        0.263        0.065       62.628        7.293        0.014      334.125        3.892      862.267
03/22/2014  04:57:00      -87.507      -18.453       -3.666       36.719       25.076       18.878     1348.319      628.792      356.366        0.517        0.117       89.431       17.914        0.040      333.878        3.483      862.281
03/22/2014  04:58:00      -51.080      -36.679       -4.816       53.686       24.480       18.467     2882.221      599.251      341.014        0.390        0.191       62.885       25.234        0.161      333.837        3.414      862.300
03/22/2014  04:59:00       -7.851       -3.421        7.708       39.995       15.595       24.570     1599.569      243.196      603.661        0.129        0.122        8.564       27.649       10.423      334.002        3.689      862.320
03/22/2014  05:00:00      -72.979      -17.224       -8.705       23.366       34.036       15.962      545.958     1158.466      254.770        0.383        0.098       74.984       10.304        0.019      333.986        3.663      862.329
03/22/2014  05:01:00        8.639      -25.261        9.301       24.259       23.530       20.238      588.486      553.671      409.561        0.118        0.078       26.698       18.759        0.494      334.246        4.091      862.330
03/22/2014  05:02:00      -11.854      -15.574       -1.601       15.586        8.420        9.439      242.911       70.900       89.086        0.039        0.020       19.572        6.390        0.107      334.203        4.021      862.342
03/22/2014  05:03:00      -33.070      -41.616       -6.807       22.339       21.263       11.945      499.010      452.110      142.672        0.198        0.055       53.156        6.963        0.017      334.124        3.890      862.345
03/22/2014  05:04:00      -13.956      -27.697        6.475       27.822       25.782       17.108      774.058      664.716      292.694        0.137        0.087       31.014       17.206        0.308      334.137        3.911      862.341
03/22/2014  05:05:00      -41.585      -28.545        3.239       40.944       25.590       13.317     1676.377      654.855      177.343        0.253        0.125       50.439       10.010        0.039      334.013        3.706      862.329
03/22/2014  05:06:00      -26.423      -11.125        7.107       48.184       19.624       18.050     2321.718      385.103      325.819        0.195        0.152       28.670       25.125        0.768      333.854        3.443      862.330
03/22/2014  05:07:00      -47.526      -21.133        4.632       23.515       17.324       17.149      552.954      300.135      294.076        0.194        0.057       52.013       16.699        0.103      333.718        3.216      862.325
03/22/2014  05:08:00     -110.791      -15.977      -13.233       19.627       15.654       10.182      385.204      245.035      103.676        0.672        0.037      111.937        9.304        0.007      333.673        3.143      862.323
03/22/2014  05:09:00      -88.188      -42.805       -5.784       31.060       16.935       15.741      964.753      286.779      247.765        0.557        0.075       98.027       15.422        0.025      333.647        3.099      862.333
03/22/2014  05:10:00      -83.789      -31.960      -10.679       21.290       16.009       11.135      453.261      256.301      123.989        0.449        0.042       89.678        9.108        0.010      333.671        3.138      862.349
03/22/2014  05:11:00      -58.384      -33.841       -7.092       14.501       13.877        7.662      210.286      192.580       58.702        0.253        0.023       67.482        3.948        0.003      333.698        3.182      862.361
03/22/2014  05:12:00      -40.100      -34.633      -13.629       13.496       12.865        6.551      182.152      165.508       42.911        0.169        0.020       52.985        2.044        0.001      333.889        3.500      862.382
03/22/2014  05:13:00      -74.387      -39.531       -8.997       29.529       19.267       14.416      871.951      371.204      207.831        0.431        0.073       84.239        9.035        0.012      333.958        3.615      862.394
03/22/2014  05:14:00      -56.088      -37.485       -9.440       38.610       12.540       11.837     1490.770      157.260      140.125        0.321        0.089       67.461       15.534        0.053      334.043        3.755      862.406
03/22/2014  05:15:00      -15.700       -5.774        6.669       13.383       14.294        8.120      179.108      204.323       65.939        0.039        0.022       16.728        7.591        0.206      334.069        3.799      862.410
03/22/2014  05:16:00       -1.774       -2.607       11.465        8.603        8.241       10.026       74.008       67.907      100.524        0.019        0.012        3.153        5.348        2.876      333.863        3.458      862.424
03/22/2014  05:17:00      -15.462       -0.476       -3.319        7.469        5.941        5.239       55.781       35.298       27.448        0.018        0.006       15.469        3.449        0.050      333.853        3.442      862.433
03/22/2014  05:18:00       -7.246      -41.721      -10.955       19.767       38.031       10.635      390.735     1446.339      113.109        0.193        0.098       42.346        6.082        0.021      333.858        3.450      862.438
03/22/2014  05:19:00        7.008      -28.617      -11.370       30.936       28.383       21.128      957.025      805.616      446.385        0.160        0.110       29.463       18.985        0.415      333.717        3.214      862.453
03/22/2014  05:20:00      -10.609       -9.405        9.304       30.305       20.181       14.853      918.380      407.269      220.616        0.092        0.077       14.178       12.433        0.769      333.635        3.077      862.478
03/22/2014  05:21:00       -5.538      -45.167        2.826       31.899       35.353       23.409     1017.545     1249.820      547.992        0.245        0.141       45.505       11.377        0.063      333.592        3.008      862.489
03/22/2014  05:22:00      -52.281      -45.644        8.372       48.629       33.727       26.332     2364.817     1137.524      693.390        0.454        0.210       69.402       21.206        0.093      333.461        2.789      862.485
03/22/2014  05:23:00      -63.610      -36.238        4.219       46.862       22.646       20.855     2196.024      512.822      434.941        0.426        0.157       73.208       17.654        0.058      333.483        2.825      862.509
03/22/2014  05:24:00      -83.443      -42.745       -0.667       51.040       24.303       18.611     2605.051      590.615      346.387        0.617        0.177       93.754       19.710        0.044      333.427        2.734      862.515
03/22/2014  05:25:00      -21.818      -32.365       14.140       42.797       25.918       21.580     1831.619      671.748      465.706        0.235        0.148       39.032       24.997        0.410      333.375        2.648      862.518
03/22/2014  05:26:00      -77.044      -47.431       -6.785       18.323       17.902       10.678      335.715      320.477      114.010        0.450        0.039       90.474        2.794        0.001      333.419        2.719      862.536
03/22/2014  05:27:00      -88.569      -45.867       -7.685       29.057       17.227       13.896      844.326      296.753      193.091        0.567        0.067       99.741        4.487        0.002      333.417        2.718      862.558
03/22/2014  05:28:00      -61.427      -47.921       -9.113       26.339       19.536       11.196      693.747      381.649      125.353        0.368        0.060       77.908        7.579        0.009      333.366        2.633      862.573
03/22/2014  05:29:00      -44.431      -54.319       -4.343       17.077       12.719       10.927      291.627      161.770      119.394        0.276        0.029       70.176        7.124        0.010      333.507        2.866      862.569
03/22/2014  05:30:00      -46.375      -29.521       -4.888       20.875       10.879       10.254      435.778      118.347      105.144        0.185        0.033       54.974        9.445        0.030      333.458        2.785      862.579
03/22/2014  05:31:00      -79.667      -43.581       -3.619       23.575       20.685       15.359      555.779      427.857      235.889        0.474        0.061       90.808        7.805        0.007      333.368        2.636      862.585
03/22/2014  05:32:00      -76.806      -53.082       -6.793       35.861       23.104       15.379     1286.039      533.777      236.501        0.541        0.103       93.364       18.541        0.039      333.281        2.494      862.596
03/22/2014  05:33:00     -109.165      -43.883       -6.021       18.314       21.794       16.629      335.409      474.999      276.526        0.748        0.054      117.656       11.579        0.010      333.191        2.344      862.603
03/22/2014  05:34:00      -72.613      -55.099       -5.384       30.206       15.653       16.912      912.375      245.015      286.012        0.489        0.072       91.151       13.178        0.021      333.292        2.510      862.619
03/22/2014  05:35:00      -21.218      -29.152        2.085       32.961       20.775       17.306     1086.437      431.603      299.482        0.156        0.091       36.056       17.841        0.245      333.359        2.622      862.614
03/22/2014  05:36:00      -80.186      -46.830       -2.918       35.893       21.453       19.079     1288.338      460.217      364.017        0.537        0.106       92.859       16.340        0.031      333.297        2.519      862.620
03/22/2014  05:37:00     -102.735      -83.429       -0.832       36.924       28.972       27.266     1363.345      839.363      743.422        1.023        0.147      132.343       23.914        0.033      333.143        2.265      862.636
03/22/2014  05:38:00      -31.054      -87.814       -9.534       34.613       25.399       21.195     1198.072      645.115      449.227        0.553        0.115       93.143       11.403        0.015      333.159        2.291      862.659
03/22/2014  05:39:00      -81.461      -53.515       -5.661       57.427       36.883       23.055     3297.858     1360.334      531.529        0.736        0.259       97.467       15.446        0.025      333.277        2.486      862.694
03/22/2014  05:40:00      -51.515     -130.966       -4.300       65.110       40.668       37.404     4239.370     1653.889     1399.069        1.356        0.365      140.733       22.894        0.026      333.195        2.350      862.711
03/22/2014  05:41:00      -20.024       -2.285       16.053       52.254       40.675       27.496     2730.433     1654.472      756.007        0.290        0.257       20.154       28.906        2.057      333.050        2.111      862.729
03/22/2014  05:42:00       -6.892      -26.444        3.087       36.570       28.515       24.203     1337.364      813.118      585.796        0.175        0.137       27.327       18.975        0.482      333.135        2.251      862.754
03/22/2014  05:43:00       -4.496      -43.838       -8.932       36.351       27.394       26.523     1321.386      750.414      703.460        0.240        0.139       44.068       11.115        0.064      333.187        2.337      862.774
03/22/2014  05:44:00       -4.794      -50.569        7.306       46.303       37.098       28.679     2143.935     1376.231      822.465        0.349        0.217       50.796       19.292        0.144      333.200        2.359      862.781
03/22/2014  05:45:00      -55.228      -74.971       -0.967       69.467       53.957       30.046     4825.680     2911.335      902.760        0.865        0.432       93.117       23.409        0.063      333.086        2.170      862.787
03/22/2014  05:46:00      -97.252     -103.153       -1.734       53.672       44.187       29.240     2880.698     1952.486      854.970        1.289        0.284      141.769       24.274        0.029      332.936        1.924      862.785
03/22/2014  05:47:00      -84.533      -69.606        7.291       71.687       38.577       31.898     5139.026     1488.159     1017.462        0.984        0.382      109.502       36.764        0.113      333.063        2.134      862.787
03/22/2014  05:48:00     -105.598      -92.110        5.900       54.717       47.369       30.832     2993.909     2243.830      950.610        1.293        0.309      140.126       28.092        0.040      333.095        2.186      862.795
03/22/2014  05:49:00     -128.377      -68.128        5.266       44.385       37.997       22.972     1970.064     1443.793      527.708        1.255        0.197      145.334       21.588        0.022      332.990        2.011      862.810
03/22/2014  05:50:00      -77.369      -48.709        3.795       44.152       27.392       23.037     1949.443      750.307      530.694        0.580        0.162       91.424       23.348        0.065      333.017        2.057      862.825
03/22/2014  05:51:00      -38.837      -34.813       -1.301       37.219       24.292       16.324     1385.246      590.080      266.465        0.248        0.112       52.156       11.153        0.046      333.128        2.240      862.849
03/22/2014  05:52:00       -2.219      -19.873       14.746       32.253       29.149       19.447     1040.255      849.687      378.182        0.144        0.113       19.996       20.119        1.012      333.159        2.291      862.876
03/22/2014  05:53:00       -3.502      -21.525       16.898       27.114       33.866       16.145      735.171     1146.935      260.648        0.145        0.107       21.808       18.581        0.726      333.289        2.506      862.905
03/22/2014  05:54:00      -93.678      -80.921      -11.614       45.931       42.867       22.422     2109.684     1837.559      502.768        0.995        0.223      123.789       22.311        0.032      333.146        2.271      862.930
03/22/2014  05:55:00      -70.876      -42.222        1.127       45.045       35.533       29.978     2029.019     1262.593      898.708        0.550        0.210       82.499       26.001        0.099      333.015        2.053      862.952
03/22/2014  05:56:00     -108.684      -71.708       15.864       68.211       43.256       32.298     4652.683     1871.061     1043.158        1.239        0.378      130.208       34.411        0.070      332.946        1.938      862.977
03/22/2014  05:57:00     -152.761      -90.328        0.783       43.313       49.301       31.177     1876.010     2430.635      972.021        1.839        0.264      177.469       19.068        0.012      332.809        1.712      862.999
03/22/2014  05:58:00     -140.084      -93.516        4.404       64.681       45.735       38.045     4183.657     2091.656     1447.403        1.805        0.386      168.430       39.709        0.056      332.790        1.681      863.016
03/22/2014  05:59:00     -136.685      -81.407        4.594       60.908       44.951       30.347     3709.736     2020.551      920.928        1.599        0.333      159.091       29.542        0.034      332.744        1.607      863.027
03/22/2014  06:00:00     -147.673     -106.217       -0.045       42.997       38.770       28.442     1848.764     1503.109      808.923        1.862        0.208      181.905       21.391        0.014      332.859        1.796      863.039
03/22/2014  06:01:00     -114.765      -97.639       -0.009       54.104       40.261       30.747     2927.270     1620.949      945.388        1.410        0.275      150.680       29.045        0.037      332.925        1.905      863.048
03/22/2014  06:02:00      -49.812      -32.599       12.692       56.713       43.655       31.183     3216.340     1905.748      972.366        0.490        0.305       59.531       31.202        0.275      333.035        2.086      863.061
03/22/2014  06:03:00      -69.496      -40.268        3.749       49.643       25.977       24.773     2464.411      674.804      613.677        0.511        0.188       80.319       27.321        0.116      333.094        2.184      863.084
03/22/2014  06:04:00      -64.783      -36.666      -14.267       22.526       16.623       11.724      507.430      276.320      137.460        0.333        0.046       74.439       12.767        0.029      333.160        2.291      863.097
03/22/2014  06:05:00      -91.138       -1.918      -12.085       18.348       16.651       14.339      336.635      277.249      205.594        0.464        0.041       91.158       11.132        0.015      333.009        2.044      863.099
03/22/2014  06:06:00      -86.025      -15.965      -10.222       17.366       15.289       11.336      301.585      233.765      128.512        0.421        0.033       87.494        8.354        0.009      332.971        1.980      863.095
03/22/2014  06:07:00     -107.173      -12.738      -14.601       19.583       12.585        9.450      383.501      158.375       89.294        0.625        0.032      107.927        5.817        0.003      332.905        1.871      863.091
03/22/2014  06:08:00     -120.769       -6.278      -15.936       22.261       17.702       14.923      495.556      313.362      222.698        0.795        0.052      120.932       14.055        0.014      332.818        1.728      863.079
03/22/2014  06:09:00     -133.712      -10.432      -11.406       17.564       15.642       16.297      308.484      244.686      265.584        0.947        0.041      134.118       12.834        0.009      332.845        1.773      863.065
03/22/2014  06:10:00     -120.430      -17.414      -15.184       28.341       15.084       16.935      803.231      227.536      286.790        0.818        0.066      121.683       16.480        0.018      332.882        1.835      863.073
03/22/2014  06:11:00     -131.625      -28.441      -19.385       16.013       18.090       16.232      256.423      327.233      263.477        0.968        0.042      134.663        9.438        0.005      332.876        1.824      863.061
03/22/2014  06:12:00     -128.433      -18.214      -12.171       17.164       22.358       14.699      294.589      499.887      216.075        0.899        0.051      129.718       10.098        0.006      332.839        1.764      863.068
03/22/2014  06:13:00     -102.155      -22.287       -9.673       26.881       16.289       13.398      722.572      265.338      179.512        0.610        0.058      104.558        9.877        0.009      332.819        1.731      863.069
03/22/2014  06:14:00     -112.710      -25.779      -12.644       15.167       11.849       10.126      230.043      140.392      102.537        0.700        0.024      115.621        3.095        0.001      332.819        1.731      863.062
03/22/2014  06:15:00      -91.882      -20.708       -8.684       15.640       14.868       12.840      244.606      221.060      164.863        0.479        0.032       94.186        8.597        0.008      332.849        1.781      863.072
03/22/2014  06:16:00     -105.245      -12.479       -2.394       30.270       22.071       17.310      916.243      487.108      299.621        0.647        0.085      105.982       11.619        0.012      332.766        1.643      863.073
03/22/2014  06:17:00     -132.003      -12.887      -17.800       16.797       14.781       10.934      282.146      218.476      119.552        0.926        0.031      132.630        6.054        0.002      332.660        1.466      863.077
03/22/2014  06:18:00     -114.641      -18.744      -15.462       18.944       23.481       14.095      358.888      551.366      198.672        0.742        0.055      116.163        7.325        0.004      332.705        1.540      863.089
03/22/2014  06:19:00      -83.783       -6.869      -12.156       20.802       17.236       13.610      432.738      297.079      185.224        0.406        0.046       84.064       12.021        0.020      332.725        1.576      863.104
03/22/2014  06:20:00      -93.559      -19.775       -9.511       19.741       18.865       11.583      389.724      355.880      134.171        0.506        0.044       95.626        7.378        0.006      332.536        1.262      863.115
03/22/2014  06:21:00      -52.703      -36.931       -9.653       48.550       16.025       12.865     2357.139      256.786      165.497        0.351        0.139       64.355       11.477        0.032      332.541        1.271      863.136
03/22/2014  06:22:00      -29.990      -28.828       -6.295       26.584       21.118       14.489      706.730      445.970      209.941        0.157        0.068       41.599        7.385        0.032      332.702        1.538      863.153
03/22/2014  06:23:00      -34.507      -10.819        5.182       14.425       11.213       10.266      208.077      125.723      105.388        0.089        0.022       36.163        6.400        0.031      332.605        1.377      863.166
03/22/2014  06:24:00       -9.134      -22.696        8.032       18.219       19.918       14.292      331.921      396.721      204.273        0.080        0.047       24.465       11.882        0.236      332.842        1.768      863.187
03/22/2014  06:25:00       -5.585      -18.020        4.605        7.524       14.600        8.995       56.617      213.162       80.913        0.036        0.018       18.865        8.142        0.186      332.871        1.816      863.195
03/22/2014  06:26:00      -39.938      -33.770       -0.911       21.057       15.437       16.136      443.401      238.297      260.361        0.184        0.047       52.302       11.156        0.046      332.755        1.624      863.215
03/22/2014  06:27:00      -69.677      -53.477        0.714       25.762       16.594       14.904      663.669      275.357      222.138        0.444        0.058       87.833       14.538        0.027      332.607        1.379      863.228
03/22/2014  06:28:00      -58.595      -38.537        7.512       38.523       24.680       23.630     1483.983      609.087      558.399        0.381        0.133       70.131       23.242        0.110      332.580        1.335      863.236
03/22/2014  06:29:00     -123.895      -53.512       -5.921       25.681       21.564       16.036      659.503      464.996      257.157        0.981        0.069      134.958        9.076        0.005      332.617        1.397      863.258
03/22/2014  06:30:00     -113.731      -66.085      -10.215       27.842       23.760       19.905      775.195      564.540      396.202        0.957        0.087      131.537       14.795        0.013      332.628        1.415      863.256
03/22/2014  06:31:00     -121.205      -69.793       -7.858       30.126       19.807       20.602      907.546      392.315      424.453        1.067        0.086      139.863       11.599        0.007      332.594        1.357      863.267
03/22/2014  06:32:00     -135.428      -66.066       -7.647       23.720       22.914       17.122      562.631      525.058      293.151        1.207        0.069      150.683       13.097        0.008      332.589        1.349      863.277
03/22/2014  06:33:00     -131.531      -33.524      -15.721       28.771       27.201       14.558      827.752      739.913      211.933        1.023        0.089      135.736       12.202        0.008      332.672        1.487      863.283
03/22/2014  06:34:00     -147.189      -10.476      -19.773       31.538       26.697       21.799      994.676      712.704      475.205        1.217        0.109      147.561       15.373        0.011      332.547        1.280      863.297
03/22/2014  06:35:00     -115.851      -31.381       -5.292       49.820       30.840       21.630     2482.080      951.117      467.860        0.917        0.195      120.026       22.993        0.037      332.437        1.099      863.309
03/22/2014  06:36:00     -108.633      -41.085      -14.933       33.650       27.023       14.195     1132.316      730.246      201.489        0.789        0.103      116.143        8.845        0.006      332.449        1.119      863.314
03/22/2014  06:37:00      -47.648      -70.744      -10.753       23.078       17.732       13.701      532.600      314.430      187.710        0.421        0.052       85.294       12.643        0.022      332.619        1.399      863.338
03/22/2014  06:38:00      -92.768      -30.993      -14.645       23.955       26.146       12.995      573.838      683.593      168.869        0.560        0.071       97.808        7.565        0.006      332.551        1.285      863.360
03/22/2014  06:39:00      -84.916      -37.370      -10.309       14.891       19.323       11.548      221.740      373.369      133.349        0.472        0.036       92.775        8.707        0.009      332.524        1.243      863.383
03/22/2014  06:40:00      -56.588      -43.187       -1.467       28.172       21.503       19.147      793.687      462.385      366.590        0.335        0.081       71.185       14.869        0.044      332.661        1.468      863.412
03/22/2014  06:41:00       -8.069      -14.556       11.727       40.403       27.037       25.285     1632.386      731.016      639.308        0.171        0.150       16.643       18.226        1.199      332.682        1.503      863.420
03/22/2014  06:42:00      -23.581      -32.058       13.654       45.399       28.114       23.865     2061.098      790.393      569.548        0.260        0.171       39.796       26.394        0.440      332.596        1.361      863.442
03/22/2014  06:43:00      -94.001      -29.955        0.780       42.440       35.907       14.176     1801.136     1289.348      200.965        0.651        0.165       98.658       11.775        0.014      332.607        1.380      863.476
03/22/2014  06:44:00      -44.446      -26.347        9.372       36.941       23.760       20.199     1364.652      564.558      407.985        0.255        0.117       51.668       20.090        0.151      332.564        1.308      863.493
03/22/2014  06:45:00      -24.033      -17.980        5.818       19.090       12.914       12.460      364.435      166.759      155.260        0.081        0.034       30.014       11.634        0.150      332.742        1.604      863.511
03/22/2014  06:46:00      -52.112      -37.396        0.432       23.529       12.622       14.696      553.619      159.305      215.981        0.252        0.046       64.142       14.975        0.055      332.731        1.584      863.532
03/22/2014  06:47:00      -33.237      -19.702       -1.028       25.534       14.440       13.360      651.986      208.525      178.495        0.127        0.052       38.638       13.190        0.117      332.770        1.651      863.546
03/22/2014  06:48:00      -86.685       -1.455       -7.243       26.424       22.397       17.853      698.252      501.626      318.719        0.454        0.076       86.697       18.603        0.046      332.610        1.384      863.571
03/22/2014  06:49:00      -73.833      -11.390        0.691       31.971       15.298       17.409     1022.129      234.039      303.076        0.357        0.078       74.706       19.015        0.065      332.538        1.265      863.590
03/22/2014  06:50:00      -58.273       -3.568        0.452       41.879       16.075       17.736     1753.826      258.402      314.561        0.287        0.116       58.382       20.244        0.120      332.547        1.280      863.597
03/22/2014  06:51:00      -67.521      -31.429       -7.778       20.569       22.535       15.291      423.103      507.813      233.830        0.339        0.058       74.477       12.105        0.026      332.648        1.447      863.607
03/22/2014  06:52:00      -51.595      -17.375       -2.744       15.560       17.974       13.961      242.115      323.061      194.921        0.187        0.038       54.442        9.525        0.031      332.684        1.507      863.627
03/22/2014  06:53:00      -78.467      -35.608       -9.480       26.560       13.225       11.895      705.457      174.896      141.501        0.427        0.051       86.168       10.556        0.015      332.689        1.515      863.630
03/22/2014  06:54:00     -102.851      -31.621      -14.254       26.274       20.244       13.176      690.301      409.825      173.602        0.653        0.064      107.602       11.929        0.012      332.596        1.361      863.645
03/22/2014  06:55:00      -86.404      -49.763      -13.695       32.315       20.325       15.869     1044.267      413.086      251.825        0.592        0.085       99.709       11.198        0.013      332.485        1.177      863.661
03/22/2014  06:56:00      -17.658      -19.321        3.335       40.293       19.084       21.959     1623.514      364.191      482.187        0.158        0.123       26.174       11.441        0.191      332.545        1.277      863.671
03/22/2014  06:57:00      -48.518      -24.740        7.444       43.576       25.279       21.187     1898.892      639.017      448.906        0.300        0.149       54.461       20.847        0.147      332.538        1.264      863.687
03/22/2014  06:58:00       -0.498      -35.111       -6.730       27.000       19.861       10.717      728.998      394.441      114.844        0.126        0.062       35.114        7.655        0.048      332.600        1.369      863.703
03/22/2014  06:59:00       11.363      -13.806        1.918       15.534       10.678       10.903      241.295      114.022      118.881        0.040        0.024       17.881        9.397        0.276      332.728        1.580      863.738
03/22/2014  07:00:00      -39.861       -2.133       -5.926       35.442        9.128       12.520     1256.123       83.313      156.761        0.156        0.075       39.918       14.255        0.128      332.747        1.610      863.767
03/22/2014  07:01:00      -70.597      -17.134       -7.795       15.389       16.027       12.688      236.828      256.874      160.997        0.300        0.033       72.647        9.186        0.016      332.675        1.492      863.786
03/22/2014  07:02:00      -55.501      -29.897      -14.980       14.923       12.106       12.926      222.683      146.551      167.080        0.237        0.027       63.041        7.745        0.015      332.715        1.558      863.807
03/22/2014  07:03:00      -57.675      -31.652       -2.285       21.618       13.041        9.671      467.324      170.071       93.530        0.253        0.037       65.789        4.438        0.005      332.718        1.564      863.826
03/22/2014  07:04:00      -50.938      -16.008       -8.472       17.974       19.347       11.217      323.078      374.322      125.830        0.187        0.041       53.395        9.236        0.030      332.702        1.536      863.835
03/22/2014  07:05:00      -39.087      -20.123      -13.544       18.687        8.554        8.511      349.204       73.170       72.439        0.131        0.025       43.963        4.721        0.012      332.699        1.532      863.844
03/22/2014  07:06:00      -34.724      -18.028       -3.917       20.999       13.543        8.981      440.969      183.403       80.656        0.113        0.035       39.125        4.063        0.011      332.782        1.669      863.844
03/22/2014  07:07:00      -70.750      -25.142       -6.600       17.305       15.120       11.322      299.457      228.606      128.197        0.317        0.033       75.085       10.679        0.020      332.772        1.652      863.848
03/22/2014  07:08:00      -40.351      -29.899        6.000       39.983       19.474       19.669     1598.679      379.229      386.869        0.246        0.118       50.221       22.842        0.207      332.605        1.376      863.833
03/22/2014  07:09:00     -104.217      -50.817       -7.824       21.751       19.752       10.420      473.101      390.126      108.568        0.724        0.049      115.946        4.375        0.001      332.622        1.403      863.833
03/22/2014  07:10:00      -73.668      -50.953       -3.264       12.550       13.136       14.452      157.502      172.567      208.853        0.429        0.027       89.573        9.167        0.010      332.629        1.416      863.841
03/22/2014  07:11:00      -70.562      -30.085       -6.143       24.227       21.469       11.239      586.962      460.932      126.326        0.355        0.059       76.708       12.322        0.026      332.667        1.480      863.847
03/22/2014  07:12:00      -67.368      -27.326       -8.612       14.427       13.255       10.563      208.144      175.704      111.568        0.293        0.025       72.699        7.190        0.010      332.734        1.591      863.853
03/22/2014  07:13:00      -29.715      -14.699       -0.055       33.779       14.208       10.342     1141.025      201.880      106.956        0.127        0.072       33.152       11.680        0.124      332.734        1.591      863.863
03/22/2014  07:14:00      -12.403       -3.395        0.365        8.192        9.570       10.049       67.103       91.590      100.973        0.021        0.013       12.860        7.102        0.305      332.918        1.895      863.871
03/22/2014  07:15:00       -0.305       -1.996       13.554        4.622        4.305        4.397       21.367       18.532       19.330        0.012        0.003        2.019        2.877        2.030      332.943        1.935      863.873
03/22/2014  07:16:00      -41.565       -9.810       -0.203       23.983       12.000       10.111      575.190      144.010      102.234        0.132        0.041       42.707       12.666        0.088      332.844        1.771      863.879
03/22/2014  07:17:00      -57.931      -22.376       -8.998       10.672        7.737        9.104      113.888       59.863       82.875        0.210        0.013       62.103        3.997        0.004      332.873        1.820      863.882
03/22/2014  07:18:00      -42.041      -13.013       -6.118       17.303       10.842        6.650      299.382      117.557       44.229        0.122        0.023       44.009        6.543        0.022      332.815        1.723      863.883
03/22/2014  07:19:00      -54.534      -13.830      -11.301        9.709        9.911        8.925       94.259       98.230       79.658        0.178        0.014       56.260        6.001        0.011      332.817        1.726      863.895
03/22/2014  07:20:00      -41.313      -21.119        2.896       22.028       12.760       13.637      485.227      162.829      185.971        0.150        0.042       46.398       14.402        0.096      332.829        1.747      863.892
03/22/2014  07:21:00      -70.864      -24.912       -5.332       13.931       12.586        9.740      194.084      158.402       94.873        0.306        0.022       75.116        5.371        0.005      332.809        1.714      863.894
03/22/2014  07:22:00      -59.479      -30.165       -5.068       22.905       17.130       12.489      524.633      293.439      155.984        0.272        0.049       66.691       10.858        0.027      332.699        1.532      863.904
03/22/2014  07:23:00      -64.532      -26.763       -6.797        9.485       13.013        5.723       89.972      169.328       32.753        0.261        0.015       69.861        5.855        0.007      332.752        1.621      863.916
03/22/2014  07:24:00      -54.435      -15.603       -8.454        7.544        8.304        9.254       56.919       68.964       85.640        0.174        0.011       56.627        3.878        0.005      332.835        1.758      863.925
03/22/2014  07:25:00      -70.900      -14.153       -7.065       12.607       12.663       10.002      158.928      160.349      100.049        0.285        0.021       72.299        7.065        0.010      332.858        1.796      863.932
03/22/2014  07:26:00      -78.144      -16.462       -8.783       11.446       14.384        9.546      131.002      206.887       91.132        0.344        0.021       79.860        6.127        0.006      332.812        1.719      863.937
03/22/2014  07:27:00      -67.070      -15.393      -11.902        9.491       12.716       10.097       90.085      161.695      101.946        0.262        0.018       68.813        4.634        0.005      332.816        1.723      863.941
03/22/2014  07:28:00      -72.664      -28.515      -11.460       11.117        9.438        9.688      123.587       89.071       93.848        0.327        0.015       78.059        4.497        0.003      332.844        1.774      863.933
03/22/2014  07:29:00      -76.460      -17.473      -12.821       11.324       14.293       11.360      128.234      204.290      129.049        0.339        0.023       78.431        4.834        0.004      332.911        1.881      863.940
03/22/2014  07:30:00      -76.917      -22.657      -12.987       18.384       13.372        8.958      337.965      178.798       80.252        0.360        0.030       80.185        7.243        0.008      332.881        1.833      863.952
03/22/2014  07:31:00     -110.581      -33.691      -13.520       21.103       22.205       13.900      445.322      493.050      193.203        0.734        0.057      115.599        9.827        0.007      332.794        1.689      863.955
03/22/2014  07:32:00      -86.855      -37.181      -15.645       16.315       16.777        8.469      266.176      281.456       71.716        0.490        0.031       94.478        7.477        0.006      332.856        1.793      863.975
03/22/2014  07:33:00      -78.191      -29.679       -7.671       31.422       23.679       15.190      987.326      560.693      230.737        0.442        0.089       83.634       10.904        0.017      332.878        1.828      863.974
03/22/2014  07:34:00      -79.772      -34.506       -7.352       17.631       20.508       12.000      310.839      420.587      143.995        0.424        0.044       86.915        8.495        0.010      332.937        1.924      863.983
03/22/2014  07:35:00      -82.097      -22.738       -7.026       14.588       15.520       13.738      212.800      240.876      188.742        0.397        0.032       85.187        7.315        0.007      333.010        2.046      863.977
03/22/2014  07:36:00      -90.308      -19.734       -9.717       16.210       16.695       14.025      262.754      278.722      196.696        0.469        0.037       92.439        9.048        0.010      332.996        2.022      863.991
03/22/2014  07:37:00      -86.498      -23.421       -8.471       14.520       17.129       11.415      210.833      293.409      130.311        0.437        0.032       89.613        6.170        0.005      333.040        2.094      863.995
03/22/2014  07:38:00      -69.957      -28.777       -7.814       11.740       13.928        8.495      137.823      193.979       72.163        0.309        0.020       75.644        5.096        0.005      333.097        2.190      864.010
03/22/2014  07:39:00      -87.275      -24.862       -8.437       16.164       17.943       12.310      261.269      321.945      151.533        0.452        0.037       90.747        7.565        0.007      333.117        2.220      864.019
03/22/2014  07:40:00     -111.097      -14.624       -7.395       23.538       16.011       14.177      554.020      256.357      200.992        0.681        0.051      112.055       11.641        0.011      333.075        2.152      864.022
03/22/2014  07:41:00     -101.560      -13.287       -4.206       33.533       20.895       17.701     1124.429      436.597      313.340        0.619        0.094      102.425       17.028        0.028      333.117        2.222      864.034
03/22/2014  07:42:00      -77.325      -23.176       -0.377       27.427       18.987       14.901      752.228      360.514      222.037        0.393        0.067       80.724       14.427        0.032      333.239        2.423      864.046
03/22/2014  07:43:00      -61.056      -19.871       -0.686       17.291       16.645       13.685      298.980      277.064      187.271        0.244        0.038       64.208        9.974        0.024      333.338        2.587      864.053
03/22/2014  07:44:00      -34.141      -24.515       -3.083       15.532       10.115        6.195      241.238      102.305       38.372        0.108        0.019       42.031        5.048        0.014      333.426        2.733      864.054
03/22/2014  07:45:00      -35.134      -11.519       -1.966       11.285        7.719        8.887      127.348       59.585       78.971        0.082        0.013       36.974        6.193        0.028      333.531        2.905      864.057
03/22/2014  07:46:00      -47.050      -18.670       -6.156        8.933        9.817       12.101       79.791       96.372      146.427        0.146        0.016       50.619        3.720        0.005      333.614        3.044      864.064
03/22/2014  07:47:00       -5.136      -22.605        1.015       12.263       13.329        7.177      150.391      177.667       51.503        0.046        0.019       23.181        2.129        0.008      333.717        3.214      864.066
03/22/2014  07:48:00       -5.975      -20.785       -6.798        9.726       11.207        8.443       94.592      125.590       71.285        0.040        0.015       21.627        1.861        0.007      333.746        3.263      864.067
03/22/2014  07:49:00        1.919      -16.841       -0.687       10.789       16.884       12.874      116.398      285.079      165.739        0.043        0.028       16.950        8.716        0.264      333.815        3.377      864.074
03/22/2014  07:50:00       -9.304        3.723       23.770        7.585       11.286       11.987       57.531      127.367      143.685        0.050        0.016       10.021        9.416        0.883      334.464        4.453      864.084
03/22/2014  07:51:00       -4.598        3.213       26.315        6.514       13.103       12.877       42.429      171.676      165.825        0.055        0.019        5.610        9.742        3.016      334.253        4.104      864.097
03/22/2014  07:52:00       -8.267       23.026       48.757        8.141       21.513       11.935       66.278      462.809      142.449        0.182        0.034       24.465       10.430        0.182      334.124        3.891      864.119
03/22/2014  07:53:00       -8.821       35.969       56.011       14.234       25.839       12.821      202.621      667.653      164.387        0.277        0.052       37.035       12.593        0.116      334.076        3.810      864.137
03/22/2014  07:54:00       -3.719       40.670       59.865       18.271       28.883       13.965      333.831      834.243      195.014        0.331        0.068       40.840       13.989        0.117      334.016        3.711      864.146
03/22/2014  07:55:00       34.595       21.326       40.196       39.243       27.966       28.636     1540.050      782.125      820.026        0.320        0.157       40.640       31.483        0.600      333.923        3.556      864.154
03/22/2014  07:56:00       31.597       -0.835        8.711       25.255       24.213       23.687      637.804      586.286      561.095        0.143        0.089       31.608       16.120        0.260      333.905        3.527      864.150
03/22/2014  07:57:00        9.423       34.786       50.346       17.860       32.891       15.622      318.989     1081.808      244.035        0.274        0.082       36.040       17.404        0.233      334.110        3.866      864.154
03/22/2014  07:58:00        0.596       44.914       61.852       18.085       30.227       19.956      327.073      913.678      398.240        0.374        0.082       44.918       20.612        0.211      334.006        3.695      864.162
03/22/2014  07:59:00        4.023       26.996       43.882       27.702       25.312       22.128      767.390      640.705      489.637        0.228        0.095       27.294       20.370        0.557      334.216        4.043      864.164
03/22/2014  08:00:00        2.522       26.572       52.361       18.184       28.121       19.224      330.668      790.803      369.552        0.247        0.075       26.691       13.871        0.270      334.185        3.991      864.168
03/22/2014  08:01:00        5.178       42.631       62.164       19.620       30.100       13.780      384.964      905.981      189.891        0.359        0.074       42.945       14.013        0.106      334.128        3.897      864.173
03/22/2014  08:02:00       -0.639       32.585       56.877       12.979       24.876       11.512      168.449      618.840      132.520        0.261        0.046       32.591       11.653        0.128      334.158        3.947      864.180
03/22/2014  08:03:00       -0.694       44.639       60.299       18.433       24.420       20.942      339.758      596.359      438.550        0.350        0.069       44.645       17.706        0.157      334.086        3.828      864.193
03/22/2014  08:04:00        2.819        6.654       42.776       14.382       11.596        9.729      206.831      134.471       94.663        0.116        0.022        7.227        8.431        1.361      334.370        4.298      864.215
03/22/2014  08:05:00       38.059       21.735       35.083       36.906       25.040       26.302     1362.046      626.999      691.774        0.292        0.134       43.828       27.103        0.382      334.141        3.918      864.224
03/22/2014  08:06:00       63.044       56.355       33.747       51.590       31.342       28.386     2661.575      982.332      805.774        0.637        0.222       84.561       28.566        0.114      334.060        3.784      864.232
03/22/2014  08:07:00       42.346       82.438       84.393       46.144       33.706       29.176     2129.234     1136.067      851.211        0.991        0.206       92.678       28.068        0.092      334.117        3.878      864.239
03/22/2014  08:08:00       93.865       74.033       41.821       41.687       31.157       38.760     1737.813      970.773     1502.318        1.013        0.211      119.547       32.159        0.072      333.967        3.629      864.236
03/22/2014  08:09:00       97.930       73.443       32.248       54.027       39.381       41.919     2918.867     1550.894     1757.220        1.112        0.311      122.409       19.213        0.025      333.881        3.486      864.232
03/22/2014  08:10:00       58.330       57.477       41.645       49.096       42.002       32.866     2410.373     1764.186     1080.178        0.685        0.263       81.891       21.953        0.072      334.042        3.754      864.238
03/22/2014  08:11:00       50.158       64.932       68.784       68.199       38.326       34.052     4651.127     1468.913     1159.510        0.937        0.364       82.049       33.790        0.170      334.169        3.964      864.237
03/22/2014  08:12:00      114.078       58.993       27.792       42.683       40.099       35.149     1821.809     1607.925     1235.421        1.097        0.233      128.429       21.033        0.027      333.885        3.492      864.240
03/22/2014  08:13:00       90.303       41.768       24.350       46.091       28.962       38.744     2124.404      838.773     1501.132        0.748        0.223       99.494       19.971        0.040      334.000        3.683      864.243
03/22/2014  08:14:00      116.186       87.320       62.578       29.952       20.881       26.899      897.141      435.999      723.536        1.355        0.103      145.341       11.646        0.006      333.924        3.559      864.244
03/22/2014  08:15:00       61.215       58.952       25.961       36.544       35.285       29.595     1335.440     1245.021      875.865        0.568        0.173       84.986       20.004        0.055      334.107        3.860      864.260
03/22/2014  08:16:00       93.900       23.813       20.485       49.030       42.246       35.288     2403.914     1784.717     1245.234        0.762        0.272       96.873       30.642        0.100      334.110        3.866      864.266
03/22/2014  08:17:00       89.382       60.451       50.674       36.876       39.484       35.833     1359.805     1559.013     1283.970        0.921        0.210      107.905       13.931        0.017      334.011        3.703      864.263
03/22/2014  08:18:00       31.953       58.105       57.930       38.860       36.617       32.751     1510.127     1340.777     1072.650        0.584        0.196       66.312       21.830        0.108      334.223        4.055      864.269
03/22/2014  08:19:00       77.350      102.795       86.597       41.744       32.030       26.097     1742.542     1025.905      681.050        1.375        0.172      128.646       17.637        0.019      334.107        3.860      864.283
03/22/2014  08:20:00       35.262       39.596       58.085       43.084       60.072       23.317     1856.247     3608.656      543.686        0.610        0.300       53.021       24.724        0.217      334.375        4.307      864.289
03/22/2014  08:21:00        6.457      -20.425       38.806       21.261       47.339       25.427      452.028     2240.998      646.537        0.265        0.167       21.421       29.089        1.844      334.624        4.719      864.298
03/22/2014  08:22:00       37.482      -40.835       21.865       44.123       43.903       32.197     1946.797     1927.452     1036.634        0.423        0.246       55.429       32.536        0.345      334.519        4.545      864.310
03/22/2014  08:23:00       25.107       -4.975       42.241       28.552       30.918       25.346      815.232      955.924      642.412        0.243        0.121       25.595       19.786        0.598      334.790        4.996      864.320
03/22/2014  08:24:00       78.744       33.552       48.692       41.470       36.537       34.012     1719.748     1334.975     1156.798        0.695        0.211       85.594       24.141        0.080      334.374        4.304      864.332
03/22/2014  08:25:00       28.543       31.590       42.829       40.660       38.667       27.603     1653.213     1495.156      761.936        0.378        0.196       42.575       24.080        0.320      334.470        4.464      864.331
03/22/2014  08:26:00       -5.863       18.057       50.945       16.214       26.437       17.289      262.910      698.908      298.898        0.211        0.063       18.985       12.286        0.419      334.754        4.936      864.332
03/22/2014  08:27:00       14.024       27.212        5.218       23.007       22.249       26.748      529.312      495.039      715.470        0.135        0.087       30.613       12.207        0.159      334.349        4.264      864.334
03/22/2014  08:28:00       45.251       31.370       39.561       38.243       33.298       30.742     1462.493     1108.760      945.076        0.406        0.176       55.061       23.822        0.187      334.423        4.386      864.341
03/22/2014  08:29:00       49.151       37.897       31.832       27.419       25.299       33.364      751.800      640.051     1113.130        0.368        0.125       62.065       21.601        0.121      334.436        4.407      864.336
03/22/2014  08:30:00       42.225       66.241       -7.008       25.261       20.883       23.205      638.131      436.097      538.480        0.392        0.081       78.554       11.558        0.022      334.441        4.416      864.338
03/22/2014  08:31:00       57.837       71.365       -7.545       22.456       14.400       23.030      504.292      207.347      530.375        0.487        0.062       91.859       11.329        0.015      334.244        4.088      864.348
03/22/2014  08:32:00       24.474       46.423       24.809       26.308       29.128       26.230      692.106      848.442      687.997        0.280        0.111       52.479        9.185        0.031      334.815        5.036      864.353
03/22/2014  08:33:00       73.137       55.881       53.132       40.843       28.950       33.453     1668.159      838.095     1119.099        0.746        0.181       92.042       24.873        0.073      334.516        4.540      864.356
03/22/2014  08:34:00       50.945       53.316       33.913       33.879       25.398       25.310     1147.784      645.064      640.605        0.451        0.122       73.743       20.602        0.078      334.422        4.385      864.361
03/22/2014  08:35:00       17.242       40.094       33.813       24.140       17.611       17.545      582.749      310.152      307.828        0.212        0.060       43.645        7.610        0.030      334.716        4.872      864.358
03/22/2014  08:36:00        4.630       -4.274       30.348       16.547       20.021       17.946      273.792      400.845      322.069        0.098        0.050        6.301        9.098        2.085      335.093        5.498      864.347
03/22/2014  08:37:00       12.544       19.507       51.824       25.558       20.034       10.494      653.193      401.358      110.115        0.219        0.058       23.192       10.424        0.202      335.159        5.609      864.347
03/22/2014  08:38:00       29.116       25.715       28.963       27.945       21.962       23.020      780.933      482.333      529.943        0.207        0.090       38.846       12.608        0.105      334.763        4.951      864.355
03/22/2014  08:39:00       23.347       34.010       33.665       46.918       26.925       32.411     2201.301      724.981     1050.458        0.341        0.199       41.253       26.099        0.400      335.025        5.385      864.366
03/22/2014  08:40:00      105.300       75.385       17.713       20.415       22.414       27.100      416.767      502.391      734.391        0.937        0.083      129.503       18.082        0.019      334.466        4.458      864.379
03/22/2014  08:41:00       76.231       73.532        6.413       24.150       26.182       21.905      583.222      685.519      479.822        0.650        0.087      105.916       19.809        0.035      334.593        4.667      864.398
03/22/2014  08:42:00       65.837       36.476       -3.980       15.806       22.191       19.464      249.815      492.442      378.855        0.340        0.056       75.267        9.236        0.015      334.379        4.314      864.416
03/22/2014  08:43:00       23.739       14.558       19.837       23.169       19.827       16.281      536.792      393.117      265.085        0.118        0.060       27.847        7.611        0.075      335.011        5.362      864.433
03/22/2014  08:44:00       19.627       39.198       23.189       30.562       35.033       30.210      934.027     1227.336      912.644        0.277        0.154       43.837       19.812        0.204      335.103        5.514      864.446
03/22/2014  08:45:00       -5.252       14.625       38.173       17.517       26.161       20.789      306.830      684.420      432.170        0.156        0.071       15.539        7.721        0.247      335.680        6.475      864.461
03/22/2014  08:46:00       42.102       54.927       37.455       39.754       31.111       46.093     1580.400      967.900     2124.538        0.543        0.234       69.207       29.425        0.181      334.993        5.332      864.469
03/22/2014  08:47:00       91.031       66.818       24.558       54.417       38.768       33.140     2961.218     1502.948     1098.245        0.946        0.278      112.922       29.661        0.069      334.749        4.928      864.469
03/22/2014  08:48:00       51.429       41.686       44.660       49.919       41.371       35.171     2491.870     1711.531     1236.971        0.591        0.272       66.202       21.997        0.110      335.006        5.354      864.472
03/22/2014  08:49:00       37.714       70.449       64.215       37.086       30.072       29.918     1375.375      904.350      895.089        0.684        0.159       79.909       20.316        0.065      335.033        5.399      864.469
03/22/2014  08:50:00        2.704       60.067       72.459       43.215       33.899       36.005     1867.541     1149.158     1296.388        0.659        0.216       60.128       34.218        0.324      335.324        5.881      864.471
03/22/2014  08:51:00       28.093       65.107       48.412       49.335       42.752       54.442     2433.917     1827.765     2963.904        0.730        0.361       70.909       41.458        0.342      335.378        5.973      864.475
03/22/2014  08:52:00       52.582       78.551       25.353       54.092       41.248       51.148     2925.943     1701.428     2616.113        0.841        0.362       94.525       42.219        0.199      335.061        5.445      864.502
03/22/2014  08:53:00       57.586       54.496       12.977       36.934       35.371       28.595     1364.097     1251.098      817.677        0.494        0.172       79.285       17.961        0.051      334.954        5.267      864.529
03/22/2014  08:54:00      148.573      120.272       -0.080       68.064       55.308       53.223     4632.722     3059.016     2832.676        2.353        0.526      191.152       41.463        0.047      334.871        5.128      864.542
03/22/2014  08:55:00      147.888      108.975        0.846       34.021       27.703       23.509     1157.452      767.449      552.692        1.811        0.124      183.702       13.803        0.006      334.676        4.806      864.558
03/22/2014  08:56:00       97.980       84.855       13.688       41.418       36.912       34.338     1715.454     1362.516     1179.073        1.062        0.213      129.617        7.266        0.003      334.896        5.171      864.560
03/22/2014  08:57:00      147.274      120.581       12.448       44.344       36.833       39.102     1966.418     1356.658     1528.938        2.062        0.243      190.340       26.346        0.019      334.879        5.142      864.568
03/22/2014  08:58:00      130.854       78.513       14.870       55.310       43.441       48.820     3059.144     1887.142     2383.425        1.542        0.366      152.601       38.598        0.064      334.990        5.327      864.570
03/22/2014  08:59:00       91.606       86.592       63.653       53.524       53.579       46.263     2864.821     2870.710     2140.271        1.391        0.394      126.055       33.976        0.073      335.172        5.629      864.553
03/22/2014  09:00:00      126.419       63.143       20.778       67.862       42.541       42.208     4605.191     1809.768     1781.500        1.430        0.410      141.311       39.752        0.079      335.122        5.546      864.559
03/22/2014  09:01:00      108.526       64.442        9.528       66.779       38.926       33.232     4459.449     1515.226     1104.369        1.155        0.354      126.217       35.967        0.081      334.912        5.196      864.573
03/22/2014  09:02:00      165.788       97.180        4.010       49.641       47.464       36.408     2464.195     2252.785     1325.560        2.149        0.302      192.171       25.181        0.017      335.002        5.344      864.574
03/22/2014  09:03:00      177.293       83.042       11.888       56.658       43.139       38.752     3210.074     1860.999     1501.726        2.252        0.329      195.778       20.185        0.011      335.080        5.474      864.575
03/22/2014  09:04:00      128.046       77.967       17.618       47.365       42.390       33.950     2243.411     1796.917     1152.600        1.399        0.260      149.916       23.893        0.025      335.205        5.685      864.578
03/22/2014  09:05:00      119.342       93.542       44.758       57.127       42.264       53.776     3263.529     1786.270     2891.910        1.647        0.397      151.633       39.168        0.067      335.307        5.855      864.588
03/22/2014  09:06:00      149.748      108.332        8.923       56.838       34.790       40.620     3230.550     1210.372     1649.957        2.016        0.305      184.825       34.701        0.035      335.261        5.774      864.590
03/22/2014  09:07:00      143.473      101.033       33.817       66.756       52.125       52.132     4456.335     2716.991     2717.737        2.091        0.495      175.477       49.862        0.081      335.172        5.627      864.604
03/22/2014  09:08:00      165.154      100.463       56.539       68.993       45.899       49.994     4759.989     2106.762     2499.441        2.496        0.468      193.310       31.645        0.027      335.243        5.745      864.617
03/22/2014  09:09:00       82.505       54.778       44.599       67.465       61.916       53.802     4551.515     3833.629     2894.656        1.154        0.564       99.034       40.426        0.167      335.482        6.146      864.623
03/22/2014  09:10:00       73.753      110.299       88.376       68.802       48.313       46.599     4733.716     2334.159     2171.457        1.733        0.462      132.685       37.204        0.079      335.582        6.310      864.624
03/22/2014  09:11:00      122.904      116.913       49.824       81.730       49.461       59.664     6679.787     2446.434     3559.778        2.197        0.634      169.630       63.420        0.140      335.469        6.122      864.643
03/22/2014  09:12:00       45.969       66.192       36.733       46.155       47.831       35.956     2130.290     2287.834     1292.859        0.678        0.286       80.588       21.374        0.070      335.742        6.579      864.653
03/22/2014  09:13:00      137.208       80.001       32.842       96.311       40.921       41.620     9275.718     1674.543     1732.260        1.949        0.634      158.827       41.087        0.067      335.431        6.060      864.667
03/22/2014  09:14:00      107.240       70.960       24.913       71.004       40.755       50.865     5041.586     1660.989     2587.289        1.322        0.464      128.591       43.232        0.113      335.376        5.968      864.675
03/22/2014  09:15:00       77.664       87.793       18.400       76.775       60.906       51.638     5894.460     3709.572     2666.483        1.317        0.614      117.215       39.858        0.116      335.473        6.130      864.681
03/22/2014  09:16:00      121.487       88.813       12.090       66.394       49.400       40.901     4408.200     2440.380     1672.868        1.566        0.426      150.488       24.660        0.027      335.426        6.051      864.683
03/22/2014  09:17:00      172.526       96.763       13.896       58.249       50.388       46.811     3392.987     2538.960     2191.258        2.372        0.406      197.809       19.760        0.010      335.504        6.180      864.690
03/22/2014  09:18:00      175.238      134.238       55.802       82.090       58.584       64.159     6738.725     3432.052     4116.331        3.306        0.714      220.745       42.798        0.038      335.500        6.173      864.698
03/22/2014  09:19:00      139.200      103.403       57.475       95.391       64.700       51.447     9099.509     4186.147     2646.770        2.465        0.797      173.404       49.270        0.081      335.468        6.120      864.714
03/22/2014  09:20:00       52.993       57.514       71.989       44.342       48.190       37.974     1966.181     2322.261     1442.020        0.851        0.287       78.205       22.947        0.086      335.589        6.323      864.719
03/22/2014  09:21:00       79.883       76.147        5.920       64.690       59.770       40.380     4184.838     3572.409     1630.570        1.080        0.469      110.361       28.542        0.067      335.466        6.119      864.725
03/22/2014  09:22:00      152.928       77.233       37.554       91.654       57.539       59.727     8400.453     3310.696     3567.330        2.302        0.764      171.324       19.870        0.013      335.616        6.366      864.714
03/22/2014  09:23:00      159.985      117.676       51.825       67.642       45.719       41.032     4575.393     2090.219     1683.608        2.524        0.417      198.603       36.779        0.034      335.403        6.011      864.726
03/22/2014  09:24:00       47.916      110.015       93.776       53.148       62.577       64.833     2824.700     3915.852     4203.338        1.707        0.547      119.997       51.640        0.185      335.604        6.348      864.726
03/22/2014  09:25:00       51.337      118.547      113.996       66.253       70.783       44.558     4389.439     5010.223     1985.379        2.053        0.569      129.185       39.214        0.092      335.628        6.385      864.731
03/22/2014  09:26:00      138.203       85.761       -3.737       62.475       62.867       49.447     3903.097     3952.319     2444.962        1.838        0.515      162.650       25.369        0.024      335.504        6.180      864.745
03/22/2014  09:27:00       57.455       71.195       66.629       57.888       44.049       37.887     3351.007     1940.338     1435.429        0.977        0.336       91.486       22.476        0.060      336.024        7.048      864.741
03/22/2014  09:28:00      126.876      123.194       63.814       99.808       48.266       71.179     9961.665     2329.559     5066.514        2.635        0.868      176.845       62.571        0.125      335.606        6.349      864.742
03/22/2014  09:29:00       40.720       72.589      104.117       70.928       66.546       45.427     5030.798     4428.311     2063.582        1.464        0.576       83.230       53.050        0.406      335.894        6.831      864.754
03/22/2014  09:30:00      152.169      101.038       40.217       68.231       64.350       60.727     4655.426     4140.887     3687.763        2.373        0.624      182.658       35.943        0.039      335.792        6.659      864.754
03/22/2014  09:31:00       73.260       27.304       60.596       99.653       83.081       43.771     9930.794     6902.446     1915.889        1.426        0.937       78.182       40.208        0.264      335.857        6.770      864.760
03/22/2014  09:32:00       62.893       23.474       46.121       68.979       92.645       60.969     4758.133     8583.129     3717.172        1.184        0.853       67.131       52.618        0.614      335.991        6.995      864.750
03/22/2014  09:33:00       77.156       52.600       29.612       37.595       33.141       28.433     1413.408     1098.349      808.435        0.646        0.166       93.380       15.429        0.027      335.722        6.545      864.755
03/22/2014  09:34:00       51.555      100.077       79.487       52.437       48.749       55.254     2749.618     2376.449     3052.965        1.358        0.409      112.576       36.405        0.105      336.164        7.282      864.754
03/22/2014  09:35:00       73.468       65.519      102.115       64.630       62.279       38.484     4177.011     3878.696     1480.993        1.483        0.477       98.439       30.459        0.096      335.940        6.907      864.761
03/22/2014  09:36:00       79.344       51.632       41.153       74.339       55.759       35.880     5526.326     3109.115     1287.365        1.029        0.496       94.664       29.390        0.096      335.933        6.897      864.761
03/22/2014  09:37:00       84.519       58.132       25.592       59.607       37.944       41.479     3552.963     1439.771     1720.498        0.894        0.336      102.581       12.688        0.015      335.980        6.975      864.758
03/22/2014  09:38:00       95.260       62.018       37.532       57.992       66.849       37.317     3363.031     4468.779     1392.590        1.178        0.461      113.669       20.099        0.031      335.901        6.842      864.765
03/22/2014  09:39:00       85.579       69.484       83.944       84.222       87.482       59.592     7093.394     7653.148     3551.259        1.874        0.915      110.235       55.447        0.253      336.153        7.264      864.765
03/22/2014  09:40:00      142.787       88.659       82.922       92.679       72.011       71.849     8589.405     5185.530     5162.281        2.703        0.947      168.073       60.950        0.132      336.007        7.018      864.771
03/22/2014  09:41:00      111.807      122.135      116.179       81.398       63.821       60.030     6625.624     4073.135     3603.622        2.761        0.715      165.583       60.389        0.133      335.843        6.744      864.785
03/22/2014  09:42:00       95.463      118.438      110.914       63.684       59.219       43.134     4055.596     3506.928     1860.539        2.243        0.471      152.121       33.676        0.049      335.999        7.005      864.806
03/22/2014  09:43:00       73.829      154.160      153.221       70.192       83.526       53.181     4926.925     6976.560     2828.214        3.371        0.737      170.927       54.931        0.103      336.068        7.119      864.804
03/22/2014  09:44:00      181.119      147.937       83.340       78.425       81.607       80.809     6150.549     6659.745     6530.160        4.048        0.967      233.858       67.309        0.083      335.887        6.816      864.819
03/22/2014  09:45:00      101.740       62.709       61.708       91.100       78.216       63.673     8299.211     6117.807     4054.191        1.828        0.924      119.514       60.293        0.255      336.010        7.025      864.832
03/22/2014  09:46:00      192.515      116.884       42.668      110.326       83.932       77.041    12171.878     7044.659     5935.378        3.884        1.258      225.219       75.262        0.112      336.015        7.030      864.846
03/22/2014  09:47:00      182.814       84.278       35.281      106.736       87.378       49.834    11392.488     7634.927     2483.472        3.164        1.076      201.305       42.770        0.045      336.016        7.033      864.856
03/22/2014  09:48:00      275.200      202.288       18.957      113.579       81.135       59.879    12900.253     6582.961     3585.476        7.004        1.153      341.549       34.173        0.010      335.879        6.804      864.861
03/22/2014  09:49:00      164.043       76.062       11.619       86.377       51.938       48.392     7461.019     2697.535     2341.780        2.266        0.625      180.819       32.235        0.032      335.890        6.824      864.882
03/22/2014  09:50:00      140.556      103.253        7.713       41.479       50.375       50.006     1720.530     2537.629     2500.554        1.862        0.338      174.406        5.661        0.001      336.050        7.091      864.875
03/22/2014  09:51:00      146.263       82.688       15.125       68.311       52.619       47.683     4666.440     2768.731     2273.712        1.908        0.485      168.019       38.134        0.052      336.418        7.705      864.876
03/22/2014  09:52:00      108.830       98.158       36.928       42.173       41.339       38.444     1778.557     1708.927     1477.931        1.390        0.248      146.557       15.228        0.011      336.138        7.239      864.873
03/22/2014  09:53:00      119.493       73.691       29.963       46.829       41.689       39.041     2192.923     1737.972     1524.175        1.303        0.273      140.389       27.149        0.037      336.121        7.210      864.883
03/22/2014  09:54:00      102.224       68.920       46.180       78.620       74.527       51.030     6181.041     5554.207     2604.024        1.583        0.717      123.287       22.951        0.035      336.674        8.133      864.873
03/22/2014  09:55:00      216.973      128.726       70.807      113.304       84.755       82.893    12837.898     7183.439     6871.300        4.777        1.345      252.285       63.717        0.064      336.308        7.520      864.875
03/22/2014  09:56:00      183.704       70.644       41.481      118.221       89.343       66.486    13976.175     7982.210     4420.453        3.341        1.319      196.819       56.317        0.082      336.388        7.654      864.872
03/22/2014  09:57:00      188.079       98.918       23.867       80.404       78.242       62.366     6464.858     6121.754     3889.468        3.110        0.824      212.505       40.413        0.036      335.997        6.998      864.880
03/22/2014  09:58:00       62.221       18.786       50.811       54.423       61.261       41.275     2961.907     3752.943     1703.596        0.761        0.421       64.995       40.615        0.390      336.618        8.041      864.870
03/22/2014  09:59:00       76.984       73.805       52.594       44.703       48.636       54.814     1998.363     2365.439     3004.576        1.075        0.368      106.648       32.968        0.096      336.453        7.764      864.869
03/22/2014  10:00:00       90.677      120.394       88.496       60.355       56.103       51.297     3642.717     3147.534     2631.413        1.998        0.471      150.722       31.505        0.044      336.464        7.782      864.870
03/22/2014  10:01:00       37.429       92.001       15.710       69.851       93.791       63.334     4879.149     8796.809     4011.148        1.390        0.884       99.323       49.550        0.249      336.619        8.042      864.888
03/22/2014  10:02:00      131.431       79.236       17.367       96.735       61.750       45.471     9357.564     3813.093     2067.567        1.954        0.762      153.469       24.182        0.025      336.547        7.921      864.879
03/22/2014  10:03:00      187.045      111.840        8.198      109.904       89.846       63.310    12078.794     8072.260     4008.122        3.586        1.208      217.931       35.265        0.026      336.361        7.609      864.887
03/22/2014  10:04:00      159.300      102.397       41.924       90.725       81.561       61.797     8231.091     6652.188     3818.821        2.816        0.935      189.372       40.370        0.045      336.544        7.914      864.879
03/22/2014  10:05:00      158.069      104.129       62.738      130.329       87.052       54.417    16985.575     7578.109     2961.232        3.364        1.376      189.285       63.029        0.111      336.278        7.469      864.892
03/22/2014  10:06:00      126.487       86.512       33.846      101.016       49.053       47.794    10204.295     2406.228     2284.254        1.976        0.745      153.243       56.778        0.137      336.468        7.788      864.871
03/22/2014  10:07:00      111.117       61.272       -3.519       88.314       67.158       48.470     7799.411     4510.227     2349.365        1.538        0.733      126.891       38.030        0.090      336.515        7.867      864.875
03/22/2014  10:08:00       88.403      124.817       -0.346       85.851       66.464       47.161     7370.383     4417.438     2224.174        1.870        0.701      152.953       38.939        0.065      336.764        8.283      864.853
03/22/2014  10:09:00      151.162      162.134      110.458      125.281       69.751       67.395    15695.284     4865.184     4542.022        4.322        1.255      221.669       71.634        0.104      336.622        8.043      864.845
03/22/2014  10:10:00       39.176      100.369      109.583       84.663       57.807       55.472     7167.814     3341.680     3077.101        1.860        0.679      107.743       55.487        0.265      336.740        8.243      864.840
03/22/2014  10:11:00      144.465       76.554       47.500       84.064       70.112       58.675     7066.807     4915.699     3442.793        2.220        0.771      163.495       59.055        0.130      336.628        8.055      864.850
03/22/2014  10:12:00      216.681      120.625       36.459       89.988       77.568       49.003     8097.925     6016.781     2401.297        3.967        0.826      247.994       38.204        0.024      336.440        7.740      864.829
03/22/2014  10:13:00      222.604      101.479      118.884      130.701      114.213      105.877    17082.625    13044.700    11209.834        5.765        2.067      244.644       86.585        0.125      336.583        7.979      864.813
03/22/2014  10:14:00      133.964      125.256      110.078      104.319       90.877       74.846    10882.552     8258.572     5601.873        3.524        1.237      183.399       60.113        0.107      336.665        8.117      864.797
03/22/2014  10:15:00      122.948      105.684      103.727       77.293      104.479       73.414     5974.208    10915.937     5389.649        2.966        1.114      162.127       65.293        0.162      336.562        7.943      864.794
03/22/2014  10:16:00      156.252      113.943       95.279       80.606       55.212       51.720     6497.287     3048.350     2674.975        2.935        0.611      193.385       40.811        0.045      336.513        7.864      864.767
03/22/2014  10:17:00      174.514      130.106       56.031       90.536       72.201       76.765     8196.731     5213.037     5892.899        3.491        0.965      217.676       36.687        0.028      336.758        8.272      864.751
03/22/2014  10:18:00      182.755       93.519       59.932       90.520       78.401       64.027     8193.786     6146.774     4099.483        3.209        0.922      205.293       53.476        0.068      336.740        8.242      864.734
03/22/2014  10:19:00      170.952       97.665       61.665      130.820      100.869       71.605    17113.823    10174.471     5127.308        3.749        1.621      196.884       63.651        0.105      336.974        8.634      864.728
03/22/2014  10:20:00      187.163      100.249       75.123      157.360      124.287      108.743    24762.027    15447.173    11825.111        5.137        2.602      212.320      102.325        0.232      336.671        8.127      864.729
03/22/2014  10:21:00      123.367       91.994       67.511       85.008       82.933       69.994     7226.376     6877.813     4899.148        2.362        0.950      153.891       53.284        0.120      336.506        7.852      864.759
03/22/2014  10:22:00      155.030      162.503      109.534       94.509       61.034       78.430     8932.004     3725.112     6151.248        4.062        0.940      224.592       57.427        0.065      336.515        7.865      864.743
03/22/2014  10:23:00      125.344      105.323       83.394       77.385       69.535       57.124     5988.437     4835.068     3263.160        2.392        0.704      163.719       39.312        0.058      336.561        7.945      864.752
03/22/2014  10:24:00       49.665       61.765       86.817       61.643       73.511       45.738     3799.822     5403.940     2091.977        1.256        0.565       79.256       39.531        0.249      337.078        8.809      864.733
03/22/2014  10:25:00       81.651       20.238       75.268       78.387       77.561       44.302     6144.590     6015.672     1962.667        1.343        0.706       84.122       50.160        0.356      337.130        8.896      864.722
03/22/2014  10:26:00       26.002       41.818       88.152       63.867       66.467       41.868     4078.943     4417.928     1752.941        1.022        0.512       49.242       47.561        0.933      337.335        9.240      864.698
03/22/2014  10:27:00      189.548      123.390       22.535      101.619       70.855       67.007    10326.427     5020.495     4490.000        3.575        0.992      226.171       49.705        0.048      336.952        8.597      864.694
03/22/2014  10:28:00      161.865      102.065        9.723       85.948       71.032       46.745     7387.105     5045.484     2185.133        2.566        0.731      191.357       34.111        0.032      336.947        8.588      864.693
03/22/2014  10:29:00      152.308       72.290       22.811      105.294       87.121       65.395    11086.867     7590.019     4276.445        2.594        1.148      168.593       48.775        0.084      337.234        9.067      864.690
03/22/2014  10:30:00       20.533       21.333       38.810       50.746       69.565       62.876     2575.146     4839.305     3953.442        0.687        0.568       29.609       50.413        2.899      337.489        9.498      864.695
03/22/2014  10:31:00      103.631       93.031       95.831       73.972       75.400       69.963     5471.902     5685.205     4894.787        2.231        0.803      139.263       64.065        0.212      336.889        8.491      864.711
03/22/2014  10:32:00       67.448      123.723      120.396       59.596       57.114       51.970     3551.723     3262.017     2700.889        2.193        0.476      140.913       46.947        0.111      336.866        8.454      864.693
03/22/2014  10:33:00      126.663      108.141       77.849       90.282       74.033       78.309     8150.792     5480.856     6132.270        2.678        0.988      166.548       62.208        0.140      337.119        8.875      864.687
03/22/2014  10:34:00      159.447       99.783       27.514       72.729       58.658       52.843     5289.555     3440.706     2792.418        2.383        0.576      188.096       36.113        0.037      337.174        8.968      864.706
03/22/2014  10:35:00      118.584       80.175       55.361       90.209       83.781       63.946     8137.624     7019.271     4089.066        2.140        0.962      143.144       51.252        0.128      337.364        9.287      864.730
03/22/2014  10:36:00       74.275        0.637       73.589       81.372       93.547       62.554     6621.469     8751.135     3912.963        1.511        0.964       74.277       63.096        0.722      337.521        9.549      864.753
03/22/2014  10:37:00      153.741     -165.309      -49.836       84.014      115.419       52.521     7058.415    13321.542     2758.490        3.829        1.157      225.750       54.065        0.057      337.139        8.910      864.772
03/22/2014  10:38:00       53.314      -11.989       28.328       58.002       58.559       42.215     3364.240     3429.187     1782.065        0.618        0.429       54.645       40.093        0.538      337.368        9.294      864.778
03/22/2014  10:39:00       27.992      -39.950       20.047       47.848       32.971       33.954     2289.401     1087.105     1152.898        0.365        0.226       48.781       24.866        0.260      337.622        9.720      864.753
03/22/2014  10:40:00       26.111      -47.525       13.675       62.346       48.296       43.481     3887.004     2332.494     1890.630        0.562        0.406       54.226       24.075        0.197      337.624        9.725      864.738
03/22/2014  10:41:00        4.372       29.677       59.183       25.625       37.308       31.316      656.620     1391.896      980.665        0.372        0.151       29.998       23.671        0.623      337.834       10.077      864.750
03/22/2014  10:42:00       57.063      106.568      120.848       72.009       60.944       45.867     5185.246     3714.207     2103.795        2.011        0.550      120.884       47.261        0.153      337.445        9.424      864.751
03/22/2014  10:43:00       83.861       89.813      144.910       94.882       91.336       70.275     9002.536     8342.296     4938.542        2.919        1.114      122.878       67.095        0.298      337.381        9.314      864.742
03/22/2014  10:44:00      177.345      167.514      144.333      117.520      104.197       99.348    13810.898    10857.087     9870.095        5.744        1.727      243.951       78.830        0.104      337.083        8.814      864.724
03/22/2014  10:45:00      218.587      155.033      145.472      114.210      105.605       84.737    13043.818    11152.334     7180.330        6.217        1.569      267.984       56.061        0.044      337.030        8.726      864.727
03/22/2014  10:46:00      130.797       97.970      105.506      123.953      100.657       87.925    15364.420    10131.925     7730.859        3.553        1.661      163.420       93.200        0.325      337.418        9.376      864.720
03/22/2014  10:47:00      145.060       46.556       64.618      119.931      136.968       84.417    14383.416    18760.192     7126.204        3.382        2.013      152.348       74.867        0.241      337.534        9.571      864.735
03/22/2014  10:48:00      149.308      -39.569       51.250       95.809      115.088       74.368     9179.332    13245.303     5530.629        2.722        1.398      154.462       54.340        0.124      337.398        9.343      864.747
03/22/2014  10:49:00       15.238       10.559       71.567       50.017       66.586       48.866     2501.666     4433.713     2387.908        0.739        0.466       18.539       49.843        7.228      337.649        9.766      864.755
03/22/2014  10:50:00       51.013       38.398       43.944       92.342       50.650       48.341     8527.070     2565.395     2336.885        0.972        0.671       63.849       35.398        0.307      337.960       10.288      864.740
03/22/2014  10:51:00       28.270       20.147       84.037       43.436       89.767       51.562     1886.705     8058.061     2658.629        1.043        0.630       34.714       61.892        3.179      337.525        9.558      864.758
03/22/2014  10:52:00       58.966      -56.101       26.616       53.583       79.439       40.780     2871.085     6310.516     1662.983        0.909        0.542       81.390       50.752        0.389      337.464        9.456      864.767
03/22/2014  10:53:00       10.623     -100.978       14.008       74.686       87.913       62.520     5578.064     7728.677     3908.762        1.386        0.861      101.535       50.017        0.243      337.561        9.617      864.771
03/22/2014  10:54:00       58.467      -70.413        8.971       70.941       88.277       66.479     5032.637     7792.890     4419.480        1.285        0.862       91.523       51.901        0.322      337.721        9.886      864.779
03/22/2014  10:55:00       10.338      -24.387       18.191       54.728       50.053       42.650     2995.156     2505.329     1819.002        0.417        0.366       26.488       38.341        2.095      337.663        9.789      864.785
03/22/2014  10:56:00      -62.388      -73.065       -2.108       57.755       48.222       34.187     3335.681     2325.381     1168.784        0.803        0.341       96.077       33.324        0.120      337.714        9.875      864.773
03/22/2014  10:57:00      123.214     -117.866      -11.191      165.301      134.845       80.145    27324.513    18183.232     6423.205        4.056        2.597      170.511      104.910        0.379      337.657        9.778      864.784
03/22/2014  10:58:00       70.502      -45.998       37.714       80.868       85.931       70.678     6539.711     7384.069     4995.417        1.371        0.946       84.181       59.480        0.499      337.598        9.679      864.809
03/22/2014  10:59:00      102.146     -177.604      -27.551       64.493       72.595       45.307     4159.285     5269.992     2052.757        2.711        0.574      204.883       28.490        0.019      337.397        9.342      864.812
03/22/2014  11:00:00       55.489      109.561      120.136       69.453       96.507       61.258     4823.666     9313.526     3752.593        2.370        0.894      122.812       65.975        0.289      337.575        9.640      864.798
03/22/2014  11:01:00      121.474       74.309       42.108       87.134       77.766       64.042     7592.286     6047.536     4101.395        1.989        0.887      142.400       50.182        0.124      337.396        9.340      864.802
03/22/2014  11:02:00       82.394      132.260      122.995       95.342       71.904       71.968     9090.025     5170.123     5179.399        2.942        0.972      155.825       59.363        0.145      337.464        9.453      864.759
03/22/2014  11:03:00      124.204     -165.631      -19.526       98.007      121.765       58.462     9605.390    14826.621     3417.775        3.554        1.392      207.027       71.195        0.118      337.405        9.354      864.771
03/22/2014  11:04:00      119.231     -113.890        0.052      101.751      123.731       86.570    10353.205    15309.242     7494.359        3.017        1.658      164.885       98.669        0.358      337.653        9.771      864.748
03/22/2014  11:05:00       90.967      -76.156       14.832       76.308       94.662       71.937     5822.841     8960.869     5174.938        1.712        0.998      118.637       65.963        0.309      337.669        9.799      864.737
03/22/2014  11:06:00       71.252      -98.421      -21.592       55.445       87.988       48.619     3074.116     7741.915     2363.769        1.420        0.659      121.505       49.163        0.164      337.643        9.756      864.713
03/22/2014  11:07:00      112.201     -158.684      -31.224       68.015       69.284       39.900     4626.026     4800.215     1591.985        2.488        0.551      194.344       28.102        0.021      337.413        9.367      864.693
03/22/2014  11:08:00       52.394      -92.457        6.270       50.732       76.081       43.779     2573.712     5788.267     1916.636        1.080        0.514      106.270       37.759        0.126      337.733        9.908      864.675
03/22/2014  11:09:00       23.818       52.541      108.166       59.799       85.494       56.360     3575.921     7309.296     3176.406        1.454        0.703       57.688       61.424        1.134      337.908       10.201      864.676
03/22/2014  11:10:00      113.452      110.655      107.367      117.050       84.156       70.111    13700.760     7082.229     4915.494        3.117        1.285      158.480       63.088        0.158      337.619        9.712      864.660
03/22/2014  11:11:00       84.135       63.704       60.080       79.989       60.150       50.432     6398.220     3618.080     2543.342        1.365        0.628      105.531       43.502        0.170      337.740        9.917      864.665
03/22/2014  11:12:00      117.596       38.131       54.036       88.104      117.597       73.483     7762.327    13829.097     5399.762        2.259        1.350      123.624       77.870        0.397      337.871       10.137      864.651
03/22/2014  11:13:00      138.050       50.892       16.662       80.542       62.030       48.243     6486.948     3847.717     2327.363        1.729        0.633      147.131       29.818        0.041      337.549        9.596      864.652
03/22/2014  11:14:00      169.930      102.537       25.646       83.138       46.453       48.013     6911.959     2157.863     2305.272        2.571        0.569      198.469       42.581        0.046      337.516        9.541      864.654
03/22/2014  11:15:00      231.321      146.872       67.230      101.365       72.003       75.981    10274.777     5184.485     5773.180        5.041        1.062      274.009       48.656        0.032      337.753        9.936      864.626
03/22/2014  11:16:00      135.830       89.939       80.336      109.337       87.032       71.256    11954.477     7574.496     5077.462        2.880        1.230      162.907       70.447        0.187      337.946       10.263      864.635
03/22/2014  11:17:00      107.590      119.750       51.505      143.849      101.836       62.860    20692.493    10370.549     3951.426        3.179        1.751      160.983       61.809        0.147      338.061       10.456      864.622
03/22/2014  11:18:00      291.170      197.921       28.857       80.991       66.259       60.181     6559.579     4390.293     3621.787        6.968        0.729      352.069       42.250        0.014      337.213        9.032      864.625
03/22/2014  11:19:00      232.320      128.022        9.967       84.970       78.341       50.033     7219.962     6137.382     2503.256        4.316        0.793      265.259       15.176        0.003      337.387        9.324      864.613
03/22/2014  11:20:00      223.935      168.032       13.757       70.983       67.831       56.306     5038.631     4600.991     3170.400        4.569        0.641      279.967       34.400        0.015      337.379        9.309      864.613
03/22/2014  11:21:00      138.946       67.677       24.872       59.863       61.538       53.900     3583.544     3786.932     2905.251        1.739        0.514      154.552       28.853        0.035      337.478        9.477      864.612
03/22/2014  11:22:00      104.682       85.003       11.939       79.818       54.474       51.863     6370.875     2967.438     2689.757        1.518        0.601      134.847       40.321        0.089      337.799       10.017      864.617
03/22/2014  11:23:00      202.909      143.864       30.169      101.415       80.931       70.240    10284.909     6549.782     4933.701        4.227        1.088      248.734       45.108        0.033      337.693        9.837      864.619
03/22/2014  11:24:00      238.950      161.291       15.234       61.146       62.518       50.787     3738.808     3908.467     2579.306        4.678        0.511      288.291       15.591        0.003      337.386        9.322      864.640
03/22/2014  11:25:00       37.225       60.084        9.473       63.051       49.449       41.497     3975.477     2445.193     1722.016        0.661        0.407       70.681       27.052        0.146      337.679        9.817      864.667
03/22/2014  11:26:00       76.521       89.729       -0.722       68.252       70.249       46.153     4658.401     4934.991     2130.107        1.281        0.586      117.927       29.991        0.065      337.868       10.132      864.657
03/22/2014  11:27:00      141.357       91.944       35.390       77.338       55.449       61.471     5981.170     3074.554     3778.627        2.126        0.642      168.628       31.532        0.035      337.643        9.754      864.666
03/22/2014  11:28:00      155.467       95.037       43.429       88.580       69.257       60.235     7846.390     4796.548     3628.265        2.568        0.814      182.214       40.166        0.049      337.741        9.918      864.678
03/22/2014  11:29:00       92.286       44.171       56.053      131.309      107.737       63.995    17241.955    11607.256     4095.397        2.327        1.647      102.313       39.890        0.152      338.124       10.562      864.659
03/22/2014  11:30:00       42.943       79.848      116.900       84.397       68.262       74.658     7122.829     4659.657     5573.782        1.962        0.868       90.663       68.570        0.572      337.804       10.024      864.693
03/22/2014  11:31:00      116.442       77.330       45.807       81.871       59.347       71.105     6702.810     3522.052     5055.920        1.846        0.764      139.781       37.421        0.072      337.768        9.964      864.682
03/22/2014  11:32:00       17.656       38.648       79.849       57.825       69.882       45.163     3343.705     4883.517     2039.723        0.922        0.513       42.490       44.298        1.087      338.434       11.083      864.660
03/22/2014  11:33:00       45.584       -9.146       34.303       95.107       61.153       78.237     9045.316     3739.731     6121.032        1.112        0.945       46.492       47.947        1.064      337.815       10.044      864.658
03/22/2014  11:34:00     -151.344      -18.102      -30.962       83.731       51.991       25.076     7010.851     2703.060      628.791        1.727        0.517      152.423       24.288        0.025      337.281        9.148      864.630
03/22/2014  11:35:00      -65.929      -68.370      -14.587      141.461       86.388       44.895    20011.344     7462.961     2015.576        1.936        1.474       94.979       34.575        0.133      337.749        9.931      864.566
03/22/2014  11:36:00      -16.747      -11.560       -5.738       39.108       42.656       29.391     1529.406     1819.504      863.832        0.233        0.211       20.349       27.844        1.872      337.850       10.104      864.575
03/22/2014  11:37:00       54.977       74.038       98.448       71.873       78.778       52.726     5165.722     6206.038     2780.034        1.617        0.708       92.218       40.691        0.195      338.181       10.658      864.563
03/22/2014  11:38:00      180.511      107.044       46.559       97.815      103.611       72.922     9567.748    10735.217     5317.626        3.591        1.281      209.863       52.132        0.062      337.976       10.309      864.556
03/22/2014  11:39:00      107.122       86.079      111.472       94.346      138.606       95.322     8901.239    19211.729     9086.334        3.425        1.860      137.421       89.064        0.420      337.922       10.221      864.551
03/22/2014  11:40:00       67.586       30.601       11.697       46.254       37.546       40.564     2139.430     1409.737     1645.446        0.542        0.260       74.191       31.464        0.180      337.728        9.898      864.574
03/22/2014  11:41:00       -2.155       67.633       72.548       59.924       99.703       97.875     3590.928     9940.738     9579.552        1.647        1.156       67.667       93.770        1.920      338.108       10.534      864.544
03/22/2014  11:42:00      174.616      107.677       94.620       74.443      112.245       76.931     5541.700    12598.855     5918.369        3.754        1.203      205.147       77.167        0.141      337.521        9.548      864.529
03/22/2014  11:43:00       81.366       90.133       14.206       67.818       77.323       52.542     4599.214     5978.833     2760.697        1.414        0.667      121.426       42.217        0.121      337.915       10.212      864.520
03/22/2014  11:44:00       42.195        4.833       12.368       42.371       29.617       35.135     1795.284      877.162     1234.445        0.293        0.195       42.471       14.135        0.111      338.316       10.886      864.499
03/22/2014  11:45:00       -0.586       15.374       44.819       70.459       55.150       43.898     4964.529     3041.544     1927.053        0.609        0.497       15.385       35.411        5.298      338.863       11.803      864.482
03/22/2014  11:46:00       41.896       41.990       21.634       68.052      102.869       52.053     4631.070    10582.109     2709.563        1.095        0.896       59.316       26.492        0.199      338.856       11.790      864.475
03/22/2014  11:47:00      123.996     -154.404        7.420      112.421      165.171       90.420    12638.525    27281.398     8175.728        4.368        2.405      198.029       89.928        0.206      338.459       11.124      864.465
03/22/2014  11:48:00      119.578     -154.118       -8.442      116.567       89.984       69.214    13587.959     8097.184     4790.569        3.229        1.324      195.067       71.843        0.136      337.882       10.155      864.484
03/22/2014  11:49:00       33.717       15.849       35.966       52.470       48.324       39.149     2753.050     2335.189     1532.627        0.465        0.331       37.256       37.044        0.989      338.195       10.682      864.481
03/22/2014  11:50:00       22.936      -48.401       21.827       64.017       51.512       34.012     4098.167     2653.520     1156.834        0.563        0.395       53.561       27.793        0.269      338.417       11.055      864.460
03/22/2014  11:51:00      167.343       87.829       96.045      136.508      120.370       86.115    18634.522    14488.925     7415.709        4.273        2.027      188.991       86.207        0.208      338.252       10.775      864.445
03/22/2014  11:52:00      136.271      151.803      125.975      143.110       92.489      109.594    20480.501     8554.248    12010.897        4.926        2.052      203.995      112.632        0.305      338.348       10.935      864.430
03/22/2014  11:53:00      192.196       99.647       14.738       66.258       82.444       56.718     4390.103     6796.968     3216.879        3.074        0.720      216.492       35.765        0.027      338.148       10.599      864.445
03/22/2014  11:54:00      106.257       93.096       28.247       72.215       59.731       60.939     5214.946     3567.833     3713.552        1.662        0.625      141.271       36.299        0.066      338.405       11.034      864.415
03/22/2014  11:55:00      224.112      134.581       50.397      115.469       97.172       82.141    13333.160     9442.476     6747.225        5.020        1.476      261.415       50.661        0.038      338.393       11.010      864.411
03/22/2014  11:56:00      116.779       77.181       74.619      118.346      103.436       88.110    14005.784    10699.065     7763.457        2.881        1.623      139.979       71.506        0.261      338.499       11.191      864.433
03/22/2014  11:57:00       25.379      -38.219       71.030       63.885      176.878       87.765     4081.330    31285.960     7702.724        2.510        2.154       45.878      118.239        6.642      338.191       10.673      864.451
03/22/2014  11:58:00      109.748     -147.329        5.832      102.997      125.893       61.809    10608.372    15848.999     3820.364        3.203        1.514      183.713       82.811        0.203      338.229       10.737      864.443
03/22/2014  11:59:00      188.441     -228.932      -33.424      128.442      123.001       69.930    16497.454    15129.359     4890.254        6.277        1.826      296.513       76.759        0.067      337.954       10.273      864.411
03/22/2014  12:00:00      168.498     -231.121      -42.450      113.607      125.805       73.728    12906.663    15826.816     5435.891        5.888        1.708      286.022       70.158        0.060      337.910       10.200      864.393
03/22/2014  12:01:00       90.851     -122.626       10.083       85.005      127.678       55.451     7225.853    16301.635     3074.803        2.499        1.330      152.613       68.250        0.200      337.941       10.254      864.387
03/22/2014  12:02:00       85.819      -16.260       79.316       79.382      146.160      100.390     6301.448    21362.805    10078.058        2.583        1.887       87.346      112.759        1.667      338.290       10.840      864.341
03/22/2014  12:03:00       44.932       54.080      143.118       97.363      107.882       72.653     9479.619    11638.599     5278.507        2.591        1.320       70.310       54.232        0.595      338.777       11.657      864.303
03/22/2014  12:04:00       79.992      -13.183       71.791      112.612      163.673       95.630    12681.430    26788.709     9145.183        3.016        2.431       81.071      122.037        2.266      338.471       11.143      864.330
03/22/2014  12:05:00      148.595     -162.729      -10.734      101.002      111.246       63.891    10201.369    12375.693     4082.068        3.766        1.333      220.366       59.512        0.073      338.170       10.636      864.330
03/22/2014  12:06:00        0.943     -135.157       17.537      131.856       98.216       71.616    17385.901     9646.445     5128.889        2.536        1.608      135.160       75.760        0.314      338.587       11.340      864.308
03/22/2014  12:07:00      202.970     -208.065      -16.056       65.075       93.331       52.556     4234.792     8710.650     2762.171        5.022        0.785      290.668       56.967        0.038      338.187       10.666      864.301
03/22/2014  12:08:00      103.069      -79.517       32.372       81.211      119.696       74.024     6595.238    14327.063     5479.594        2.219        1.320      130.178       81.470        0.392      338.518       11.223      864.296
03/22/2014  12:09:00       44.263      -39.553       22.808       39.444       86.373       46.502     1555.791     7460.290     2162.405        0.761        0.559       59.360       56.788        0.915      338.445       11.102      864.295
03/22/2014  12:10:00       77.673     -111.744      -14.060       54.229       49.445       37.558     2940.739     2444.775     1410.585        1.276        0.340      136.088       27.809        0.042      338.054       10.445      864.288
03/22/2014  12:11:00      131.214       64.003       46.535       97.427       66.412       60.174     9491.924     4410.600     3620.883        2.050        0.876      145.991       39.778        0.074      338.211       10.707      864.282
03/22/2014  12:12:00      109.660       62.178       39.895       62.861       65.363       43.200     3951.512     4272.334     1866.245        1.378        0.505      126.061       32.547        0.067      338.450       11.109      864.268
03/22/2014  12:13:00      176.150       83.757       38.745      126.148       78.331       66.344    15913.354     6135.688     4401.480        3.299        1.323      195.049       42.662        0.048      338.772       11.650      864.266
03/22/2014  12:14:00      161.784       96.822       42.876      121.995       61.526       67.119    14882.836     3785.473     4504.934        3.028        1.159      188.543       71.189        0.143      338.447       11.103      864.260
03/22/2014  12:15:00      108.345      106.188       31.224       75.036       45.172       52.649     5630.391     2040.501     2771.881        1.721        0.522      151.705       35.640        0.055      338.393       11.013      864.254
03/22/2014  12:16:00      244.468      156.488       48.181       84.367       60.799       70.154     7117.845     3696.541     4921.535        5.115        0.787      290.264       48.746        0.028      338.159       10.617      864.270
03/22/2014  12:17:00      218.869      104.263       27.396       74.802       61.276       53.457     5595.269     3754.775     2857.645        3.586        0.610      242.434       29.859        0.015      338.234       10.743      864.252
03/22/2014  12:18:00      255.918      172.635       33.984      104.297       90.736       54.083    10877.819     8233.003     2925.010        5.924        1.102      308.702       39.916        0.017      338.712       11.548      864.225
03/22/2014  12:19:00      346.694      170.972       17.004      105.358       99.685       83.118    11100.293     9937.190     6908.563        8.883        1.397      386.560       28.881        0.006      338.278       10.818      864.214
03/22/2014  12:20:00      200.036      162.549       31.088      114.904       98.991       93.474    13203.035     9799.248     8737.439        4.957        1.587      257.754       64.773        0.063      338.133       10.573      864.205
03/22/2014  12:21:00      202.178      138.596       33.103      110.599       96.456       89.120    12232.236     9303.747     7942.405        4.532        1.474      245.122       49.493        0.041      338.633       11.415      864.208
03/22/2014  12:22:00      187.703      137.673       24.177       94.467       71.715       63.917     8923.932     5143.034     4085.405        3.646        0.908      232.779       15.667        0.005      338.230       10.737      864.229
03/22/2014  12:23:00      106.574       62.769        7.550       98.181       58.951       44.068     9639.413     3475.227     1942.022        1.520        0.753      123.685       18.166        0.022      338.330       10.907      864.213
03/22/2014  12:24:00       96.451       65.524       36.467      101.555       75.127       63.645    10313.399     5644.046     4050.724        1.746        1.000      116.603       32.892        0.080      338.747       11.607      864.192
03/22/2014  12:25:00      129.747       82.787       20.993       70.073       57.407       38.853     4910.159     3295.556     1509.536        1.692        0.486      153.909       28.208        0.034      338.297       10.852      864.179
03/22/2014  12:26:00       81.312       43.927       -5.350       40.729       50.934       30.585     1658.886     2594.302      935.437        0.688        0.259       92.419       24.535        0.070      338.167       10.635      864.162
03/22/2014  12:27:00       77.007       55.789       17.622       42.548       27.481       33.439     1810.332      755.187     1118.147        0.652        0.184       95.092       24.092        0.064      338.682       11.501      864.145
03/22/2014  12:28:00      143.335       58.195       66.546      124.782       98.127       61.340    15570.561     9628.865     3762.619        2.866        1.448      154.699       51.574        0.111      338.872       11.818      864.123
03/22/2014  12:29:00      125.567       45.159       69.520       99.062       88.731       79.305     9813.270     7873.160     6289.349        2.330        1.199      133.440       71.292        0.285      339.071       12.152      864.131
03/22/2014  12:30:00      186.863      155.801      147.342      172.852      121.417      109.619    29877.746    14742.058    12016.392        6.876        2.832      243.293      104.155        0.183      338.780       11.662      864.131
03/22/2014  12:31:00      216.087      151.665       59.877      111.179       86.649       75.044    12360.835     7508.094     5631.560        4.939        1.275      263.999       27.333        0.011      338.408       11.036      864.133
03/22/2014  12:32:00      131.308       66.266       51.659      118.550       90.161       66.204    14054.014     8129.001     4382.956        2.543        1.328      147.082       31.844        0.047      339.027       12.078      864.121
03/22/2014  12:33:00      184.972      110.874       18.826       84.949       63.471       62.198     7216.248     4028.545     3868.555        3.099        0.756      215.656       21.548        0.010      338.439       11.090      864.112
03/22/2014  12:34:00      128.032       82.774       35.547       88.967       75.389       44.065     7915.190     5683.536     1941.767        2.002        0.777      152.459       44.036        0.083      338.709       11.543      864.093
03/22/2014  12:35:00      125.277       43.185      123.704      143.654      142.853      100.531    20636.411    20406.876    10106.551        4.200        2.557      132.511      108.604        0.672      339.120       12.234      864.105
03/22/2014  12:36:00       21.997       83.033      136.535       58.859      144.517       98.802     3464.359    20885.095     9761.773        3.006        1.706       85.897      110.692        1.661      339.047       12.112      864.092
03/22/2014  12:37:00       53.675       18.757       56.598       89.171       96.845       60.791     7951.542     9378.921     3695.559        1.373        1.051       56.858       54.679        0.925      339.368       12.653      864.098
03/22/2014  12:38:00      132.179      165.961      113.573      116.546      100.681       97.714    13583.079    10136.614     9547.952        4.558        1.663      212.166       84.734        0.160      339.010       12.049      864.091
03/22/2014  12:39:00      162.578       93.352       86.477      119.135       95.716       79.975    14193.228     9161.513     6395.949        3.618        1.488      187.473       62.786        0.112      338.720       11.561      864.092
03/22/2014  12:40:00       39.904       39.785       43.372       54.384       61.365       55.595     2957.645     3765.698     3090.753        0.743        0.491       56.349       28.836        0.262      339.034       12.091      864.077
03/22/2014  12:41:00       63.381       -7.974       33.799       51.994       62.452       43.064     2703.335     3900.263     1854.508        0.684        0.423       63.880       37.305        0.341      338.940       11.933      864.078
03/22/2014  12:42:00      -56.978       24.115       -7.233       40.933       26.684       25.088     1675.493      712.012      629.399        0.345        0.151       61.871       17.879        0.084      338.650       11.444      864.054
03/22/2014  12:43:00      -18.906        9.665       11.184       35.881       18.722       30.544     1287.444      350.505      932.938        0.157        0.129       21.233       27.495        1.677      339.246       12.449      864.027
03/22/2014  12:44:00       40.145       61.193       28.191       31.208       53.483       44.591      973.915     2860.453     1988.328        0.599        0.291       73.186       27.547        0.142      339.285       12.514      863.986
03/22/2014  12:45:00       29.638       20.385       21.683       40.770       27.351       26.620     1662.199      748.077      708.610        0.244        0.156       35.971       18.303        0.259      339.579       13.011      863.981
03/22/2014  12:46:00       48.682       31.052       26.554      102.852       94.823       63.945    10578.570     8991.343     4088.905        1.385        1.183       57.743       22.955        0.158      339.144       12.277      863.979
03/22/2014  12:47:00       32.696       51.426       21.010       66.724       62.212       51.038     4452.108     3870.353     2604.883        0.754        0.546       60.940       38.452        0.398      339.161       12.305      863.960
03/22/2014  12:48:00       99.241      -45.530       63.363      109.236      162.980       96.042    11932.512    26562.577     9224.043        3.182        2.386      109.187      110.303        1.021      339.186       12.347      863.947
03/22/2014  12:49:00       79.817       84.163      100.592       53.163       57.671       44.328     2826.343     3325.901     1964.949        1.584        0.406      115.992       31.219        0.072      338.923       11.904      863.924
03/22/2014  12:50:00       53.594      -69.519        8.982       58.511      112.727       61.041     3423.594    12707.444     3726.036        1.382        0.993       87.779       75.585        0.741      339.219       12.402      863.908
03/22/2014  12:51:00       38.888      -15.567       50.477       59.435       64.455       39.075     3532.564     4154.411     1526.873        0.676        0.461       41.888       41.847        0.998      339.535       12.933      863.889
03/22/2014  12:52:00       96.089      -75.793       56.049       83.862      162.072       83.863     7032.785    26267.246     7033.008        2.922        2.017      122.383       96.319        0.619      339.068       12.146      863.827
03/22/2014  12:53:00       83.538      159.977      139.268      136.288       82.382       90.456    18574.305     6786.786     8182.303        4.275        1.677      180.475       81.392        0.203      339.482       12.844      863.825
03/22/2014  12:54:00      155.893       83.674       27.768      132.377       97.398       81.342    17523.774     9486.456     6616.575        3.285        1.681      176.929       63.270        0.128      339.269       12.484      863.823
03/22/2014  12:55:00      142.610       66.173       22.034      115.650       93.931       73.053    13374.844     8823.020     5336.743        2.636        1.377      157.215       63.519        0.163      339.283       12.508      863.821
03/22/2014  12:56:00       97.830       37.859       21.074       85.311       82.065       43.576     7277.938     6734.595     1898.878        1.368        0.796      104.900       34.948        0.111      339.206       12.379      863.820
03/22/2014  12:57:00      130.730      146.389       12.816       94.694       90.939       63.982     8966.934     8269.812     4093.710        3.000        1.067      196.265       54.038        0.076      339.055       12.124      863.797
03/22/2014  12:58:00      107.766      188.773       57.638      132.576      111.119       98.294    17576.323    12347.543     9661.627        4.507        1.979      217.368       81.810        0.142      338.762       11.630      863.782
03/22/2014  12:59:00      153.942       84.434       78.369      116.566      117.030       84.178    13587.592    13696.105     7085.953        3.566        1.718      175.577       59.516        0.115      339.096       12.193      863.773
03/22/2014  13:00:00      206.136      115.884       90.842      118.920      106.972      102.816    14142.046    11443.089    10571.138        5.016        1.808      236.477       67.496        0.081      338.925       11.905      863.750
03/22/2014  13:01:00       98.849     -100.673       31.389       89.597      138.928       52.334     8027.583    19300.976     2738.852        2.547        1.503      141.089       43.475        0.095      339.396       12.699      863.754
03/22/2014  13:02:00      194.172     -181.015       -9.770      125.567      128.953       64.382    15767.130    16628.909     4145.105        5.355        1.827      265.460       78.468        0.087      339.177       12.328      863.742
03/22/2014  13:03:00       91.708       10.751      123.311      115.503      120.620       94.926    13340.886    14549.229     9011.032        3.031        1.845       92.336       86.075        0.869      339.296       12.532      863.737
03/22/2014  13:04:00       28.423      -10.715       90.573       59.861       85.468       57.641     3583.343     7304.844     3322.541        1.167        0.711       30.376       58.455        3.703      339.256       12.465      863.750
03/22/2014  13:05:00       16.754      -22.150       50.440       31.862       71.431       55.126     1015.175     5102.336     3038.929        0.623        0.458       27.773       55.362        3.974      339.371       12.659      863.722
03/22/2014  13:06:00      195.832     -127.032       42.800      161.882      222.701      118.878    26205.712    49595.897    14131.995        7.311        4.497      233.425      158.074        0.459      339.128       12.248      863.713
03/22/2014  13:07:00      281.009     -380.769      -51.258      110.059       89.111       50.416    12112.961     7940.694     2541.759       12.458        1.130      473.235       54.217        0.013      338.614       11.382      863.681
03/22/2014  13:08:00       20.167     -183.089       -3.769      117.997       98.077       51.362    13923.385     9619.145     2638.023        3.006        1.309      184.196       44.616        0.059      339.020       12.066      863.723
03/22/2014  13:09:00      172.146     -191.420      -25.672       96.378      121.718       79.122     9288.748    14815.292     6260.258        4.864        1.518      257.441       89.719        0.121      339.122       12.237      863.688
03/22/2014  13:10:00      106.075     -134.596       -8.109       74.174       87.562       51.525     5501.737     7667.185     2654.788        2.263        0.791      171.371       54.177        0.100      338.863       11.803      863.686
03/22/2014  13:11:00       44.103      -64.478       26.782       43.098       72.838       43.320     1857.473     5305.376     1876.657        0.793        0.452       78.118       41.183        0.278      339.351       12.625      863.665
03/22/2014  13:12:00       29.725       20.029       69.272       45.277       83.813       43.632     2050.051     7024.584     1903.766        0.853        0.549       35.843       47.278        1.740      339.412       12.729      863.652
03/22/2014  13:13:00       53.692       96.883       90.621       75.973       72.373       41.771     5771.840     5237.792     1744.820        1.662        0.638      110.766       27.140        0.060      339.309       12.554      863.650
03/22/2014  13:14:00       88.515      -12.662       56.042      109.448       96.137       64.659    11978.932     9242.232     4180.801        1.826        1.270       89.416       76.029        0.723      339.362       12.641      863.633
03/22/2014  13:15:00       82.010      -35.574       32.922       85.408       76.562       42.102     7294.580     5861.694     1772.567        1.200        0.746       89.393       62.728        0.492      339.401       12.710      863.652
03/22/2014  13:16:00       73.206       31.677      -11.914       22.458       19.110       35.127      504.382      365.208     1233.890        0.430        0.105       79.766       16.986        0.045      338.625       11.404      863.641
03/22/2014  13:17:00       74.569       82.612       -1.709       59.264       60.753       35.954     3512.178     3690.925     1292.695        1.044        0.425      111.289       35.401        0.101      338.735       11.588      863.606
03/22/2014  13:18:00       57.705       41.915       33.915       53.570       39.952       38.785     2869.767     1596.200     1504.276        0.610        0.299       71.321       14.028        0.039      339.158       12.300      863.561
03/22/2014  13:19:00       16.441       28.469       24.598       32.612       26.048       27.516     1063.533      678.524      757.135        0.209        0.125       32.876       16.432        0.250      339.672       13.165      863.554
03/22/2014  13:20:00       71.669      102.451       84.048       81.150       88.236       83.013     6585.354     7785.673     6891.130        2.198        1.063      125.031       74.232        0.352      339.266       12.481      863.546
03/22/2014  13:21:00       77.295       75.330      111.013       82.611      123.546       77.955     6824.606    15263.587     6076.934        2.606        1.408      107.932       79.538        0.543      339.433       12.760      863.537
03/22/2014  13:22:00      209.182      191.603      166.211      159.797      133.501      132.442    25535.075    17822.598    17540.997        8.449        3.045      283.670      131.889        0.216      339.113       12.222      863.515
03/22/2014  13:23:00      251.686      180.807       66.968      133.186      101.075      110.169    17738.388    10216.243    12137.172        7.030        2.005      309.898       80.754        0.068      338.675       11.485      863.502
03/22/2014  13:24:00       85.788      -17.017       61.481       66.030      127.394       59.088     4359.914    16229.108     3491.449        1.775        1.204       87.459       69.361        0.629      339.055       12.126      863.506
03/22/2014  13:25:00       22.821      150.928      154.211       58.290       88.513       64.648     3397.767     7834.631     4179.317        3.124        0.771      152.643       57.272        0.141      339.382       12.675      863.447
03/22/2014  13:26:00       45.193       54.912       27.893       54.363       72.978       54.494     2955.370     5325.745     2969.642        0.854        0.563       71.118       39.470        0.308      339.285       12.515      863.459
03/22/2014  13:27:00       69.127       69.032       47.149       87.506       82.684       62.078     7657.349     6836.715     3853.687        1.505        0.917       97.694       58.110        0.354      339.273       12.492      863.449
03/22/2014  13:28:00      101.491       39.551       82.513      105.632       65.723       42.360    11158.194     4319.492     1794.407        1.797        0.864      108.925       23.023        0.045      339.383       12.677      863.428
03/22/2014  13:29:00       70.442      117.812       45.505       91.935       72.872       91.658     8451.975     5310.269     8401.249        2.153        1.108      137.265       45.655        0.111      339.625       13.085      863.391
03/22/2014  13:30:00       55.806       61.276       64.348       80.853       80.779       75.636     6537.288     6525.190     5720.734        1.489        0.939       82.880       64.032        0.597      340.148       13.969      863.388
03/22/2014  13:31:00       37.035      -29.913       90.489      135.867      235.253      132.747    18459.859    55344.064    17621.637        5.092        4.571       47.607      127.282        7.148      339.857       13.476      863.319
03/22/2014  13:32:00      144.712     -155.516       -6.143      144.662      168.789      106.271    20927.170    28489.661    11293.620        5.293        3.036      212.431      108.599        0.261      339.346       12.614      863.409
03/22/2014  13:33:00       -2.030      -41.648       69.229       62.295       87.412       71.586     3880.702     7640.909     5124.533        1.159        0.832       41.697       62.538        2.249      339.916       13.577      863.420
03/22/2014  13:34:00       92.075      -46.778       36.170      114.877      142.555       87.819    13196.678    20321.845     7712.182        2.660        2.062      103.276       97.409        0.890      339.458       12.805      863.440
03/22/2014  13:35:00       40.061       19.179       55.351       60.379       90.719       61.733     3645.573     8230.025     3810.987        1.036        0.784       44.415       67.879        2.336      339.258       12.468      863.438
03/22/2014  13:36:00       38.001       70.900       52.133       57.891       73.121       68.263     3351.375     5346.693     4659.796        1.127        0.668       80.442       47.653        0.351      339.182       12.340      863.405
03/22/2014  13:37:00       24.822      -41.313       24.231       59.507       82.253       43.910     3541.062     6765.532     1928.091        0.757        0.612       48.197       54.532        1.280      339.774       13.338      863.378
03/22/2014  13:38:00      -19.906      -62.566       11.219       85.047       73.508       55.029     7233.072     5403.483     3028.142        1.005        0.783       65.656       21.982        0.112      339.992       13.705      863.353
03/22/2014  13:39:00      -59.606     -117.268      -16.236       78.374       65.524       48.963     6142.514     4293.332     2397.367        1.520        0.642      131.547       45.246        0.118      339.531       12.928      863.336
03/22/2014  13:40:00     -145.149      -90.699       -4.947       70.815       49.117       34.102     5014.702     2412.484     1162.941        1.895        0.430      171.156       28.783        0.028      339.396       12.698      863.310
03/22/2014  13:41:00      -70.265      -36.984        8.485       62.903       41.872       27.367     3956.849     1753.304      748.941        0.642        0.323       79.404       26.542        0.112      339.511       12.895      863.297
03/22/2014  13:42:00       16.672       53.802       58.886       44.376       63.092       50.339     1969.190     3980.601     2534.040        0.756        0.424       56.326       44.880        0.635      340.065       13.830      863.317
03/22/2014  13:43:00      133.780      133.583      105.182       89.478       92.297       86.916     8006.270     8518.724     7554.440        3.544        1.204      189.055       72.385        0.147      339.242       12.438      863.304
03/22/2014  13:44:00      100.555       76.746       25.436       33.211       41.444       36.536     1102.967     1717.626     1334.850        1.040        0.208      126.496       21.831        0.030      338.922       11.903      863.290
03/22/2014  13:45:00       48.573        1.891       59.188       77.189      130.628       54.231     5958.127    17063.740     2941.045        1.591        1.298       48.609       64.465        1.759      339.706       13.223      863.256
03/22/2014  13:46:00      232.304      154.932        9.046      130.224       85.694       78.917    16958.381     7343.491     6227.934        5.429        1.526      279.229       58.819        0.044      339.545       12.949      863.259
03/22/2014  13:47:00       93.932       65.618       75.579       90.872       87.182       59.460     8257.690     7600.674     3535.477        1.911        0.970      114.582       49.664        0.188      339.766       13.324      863.271
03/22/2014  13:48:00       13.842      -21.121       46.063       53.498       98.845       59.822     2862.045     9770.389     3578.682        0.948        0.811       25.252       69.467        7.568      340.095       13.878      863.252
03/22/2014  13:49:00      139.037      121.709       73.514       81.417       72.955       53.805     6628.690     5322.475     2895.003        2.719        0.742      184.782       36.875        0.040      339.409       12.721      863.230
03/22/2014  13:50:00       93.694       65.701       71.195      102.612       89.318       84.572    10529.147     7977.755     7152.410        2.191        1.283      114.434       66.336        0.336      339.741       13.281      863.172
03/22/2014  13:51:00      181.448      121.721       49.580       94.505       69.106       78.788     8931.207     4775.654     6207.474        3.505        0.996      218.494       60.801        0.077      339.769       13.324      863.153
03/22/2014  13:52:00      294.302      136.547      105.807      165.696      120.233       85.205    27455.223    14455.903     7259.839        8.280        2.459      324.436       81.053        0.062      339.896       13.541      863.168
03/22/2014  13:53:00      115.211      -38.381       93.169      139.586      174.161       90.500    19484.205    30332.014     8190.258        4.071        2.900      121.436      120.021        0.977      340.012       13.737      863.152
03/22/2014  13:54:00       19.912       37.721       92.448       72.907      111.695       78.465     5315.461    12475.866     6156.747        1.715        1.197       42.654       67.471        2.502      340.209       14.072      863.147
03/22/2014  13:55:00      138.028      108.189       15.658      102.414       63.455       52.458    10488.693     4026.514     2751.879        2.413        0.863      175.376       27.939        0.025      339.428       12.752      863.134
03/22/2014  13:56:00       82.513       13.754       61.272      119.490       86.992       64.468    14277.763     7567.595     4156.157        1.837        1.300       83.652       61.345        0.538      339.767       13.325      863.091
03/22/2014  13:57:00       11.934      -66.342       45.930       62.927      106.600       61.426     3959.845    11363.645     3773.114        1.287        0.955       67.407       60.407        0.803      340.314       14.249      863.063
03/22/2014  13:58:00       97.567       61.407       21.776      109.381       66.858       50.242    11964.203     4469.931     2524.260        1.636        0.948      115.283       40.140        0.121      340.357       14.320      863.081
03/22/2014  13:59:00      224.385      147.176       33.922      114.060       77.042       83.273    13009.687     5935.442     6934.393        4.952        1.294      268.346       42.860        0.026      339.647       13.119      863.095
03/22/2014  14:00:00      178.134      141.297       74.051      117.301       76.376       94.797    13759.630     5833.340     8986.532        4.288        1.429      227.369       83.553        0.135      339.633       13.095      863.107
03/22/2014  14:01:00      159.455     -108.470       21.835      150.954      187.576       94.202    22787.205    35184.712     8873.947        5.225        3.342      192.851      125.013        0.420      339.804       13.388      863.109
03/22/2014  14:02:00      173.128       81.971       85.410       88.030       97.371       75.369     7749.338     9481.148     5680.499        3.345        1.146      191.553       59.547        0.097      339.534       12.930      863.113
03/22/2014  14:03:00      104.611      196.257      178.833      156.232      120.191      104.050    24408.453    14445.985    10826.301        6.555        2.484      222.397       90.940        0.167      339.733       13.266      863.078
03/22/2014  14:04:00       80.338     -167.471        3.059       99.733      125.270       67.453     9946.707    15692.558     4549.947        3.234        1.509      185.744       70.851        0.146      340.039       13.784      863.103
03/22/2014  14:05:00       51.106       12.879       40.725       58.736       73.519       62.126     3449.930     5405.044     3859.650        0.857        0.636       52.704       44.727        0.720      340.386       14.370      863.121
03/22/2014  14:06:00       33.599       25.226       63.197       55.141       55.061       47.935     3040.511     3031.687     2297.775        0.706        0.418       42.014       37.734        0.807      340.482       14.533      863.101
03/22/2014  14:07:00       39.431       40.679      110.889       90.166      104.071       70.387     8129.920    10830.785     4954.372        1.971        1.196       56.654       70.618        1.554      340.218       14.086      863.092
03/22/2014  14:08:00      130.682        0.938       66.463       89.006       76.602       63.621     7922.028     5867.876     4047.613        1.966        0.892      130.686       56.112        0.184      339.855       13.474      863.104
03/22/2014  14:09:00      106.820       71.824       42.339       65.375       61.916       57.429     4273.921     3833.536     3298.119        1.488        0.570      128.721       42.165        0.107      339.722       13.250      863.099
03/22/2014  14:10:00       87.661       45.298       34.457       82.362       78.818       50.030     6783.493     6212.317     2503.014        1.321        0.775       98.673       41.352        0.176      340.087       13.866      863.092
03/22/2014  14:11:00       69.559      -98.045       -5.085       63.305      112.513       48.799     4007.530    12659.068     2381.320        1.676        0.952      120.214       44.299        0.136      340.236       14.115      863.088
03/22/2014  14:12:00      124.449       -0.626       80.134      122.045      111.154       78.177    14894.922    12355.108     6111.619        2.763        1.668      124.450       73.135        0.345      340.099       13.885      863.074
03/22/2014  14:13:00      126.167       19.595      128.312      154.949      149.510       83.709    24009.251    22353.377     7007.263        4.306        2.668      127.679      101.399        0.631      339.761       13.314      863.019
03/22/2014  14:14:00      141.105      141.011      116.876      151.929       79.816       64.131    23082.281     6370.661     4112.809        4.350        1.678      199.486       61.501        0.095      340.087       13.863      863.000
03/22/2014  14:15:00      183.545      278.387      236.641      149.201      144.430      125.682    22260.946    20859.929    15796.072       11.304        2.946      333.449      107.965        0.105      339.749       13.294      862.986
03/22/2014  14:16:00      190.520      126.985      126.588      134.775      111.595      116.095    18164.237    12453.550    13478.030        5.626        2.205      228.961      104.556        0.209      339.461       12.807      863.002
03/22/2014  14:17:00      225.968      165.527      117.960      134.815      133.823       99.707    18175.146    17908.490     9941.455        6.919        2.301      280.108       73.680        0.069      339.458       12.802      862.980
03/22/2014  14:18:00      269.242      192.814       99.389      102.697       97.891      101.014    10546.627     9582.725    10203.728        7.493        1.517      331.162       75.291        0.052      339.376       12.663      862.988
03/22/2014  14:19:00      193.960      117.161       33.076       74.350       51.222       62.129     5527.996     2623.686     3860.006        3.222        0.601      226.599       39.880        0.031      339.479       12.837      862.999
03/22/2014  14:20:00      143.628       80.987       32.518       74.981       62.159       55.469     5622.164     3863.708     3076.856        2.040        0.628      164.887       24.979        0.023      339.744       13.287      862.987
03/22/2014  14:21:00       89.299       84.217      -15.402       88.510       67.950       48.433     7833.994     4617.256     2345.762        1.505        0.740      122.747       47.696        0.151      339.391       12.691      862.967
03/22/2014  14:22:00       -1.370      -28.767        8.772       64.665       42.270       38.700     4181.515     1786.760     1497.665        0.418        0.373       28.800       23.217        0.650      339.831       13.436      862.905
03/22/2014  14:23:00      161.769       83.791       25.945       74.505       49.547       43.933     5550.942     2454.886     1930.078        2.190        0.497      182.181       27.135        0.022      339.723       13.251      862.910
03/22/2014  14:24:00      176.691      130.752       71.448       85.167       89.651       86.320     7253.478     8037.266     7451.228        3.808        1.137      219.809       70.453        0.103      339.698       13.206      862.909
03/22/2014  14:25:00       56.460       72.037       74.729       89.106       68.848       52.873     7939.800     4740.030     2795.585        1.472        0.774       91.526       35.608        0.151      340.237       14.118      862.901
03/22/2014  14:26:00      111.614       58.846       10.616       90.024       68.344       46.023     8104.285     4670.953     2118.082        1.546        0.745      126.177       31.726        0.063      339.906       13.558      862.894
03/22/2014  14:27:00      164.695      133.350       -9.634       66.031       42.892       49.439     4360.067     1839.695     2444.229        2.682        0.432      211.912       24.944        0.014      339.456       12.798      862.886
03/22/2014  14:28:00      114.054       95.256        6.065       77.491       60.279       46.580     6004.792     3633.597     2169.694        1.696        0.590      148.600       27.566        0.034      339.611       13.060      862.863
03/22/2014  14:29:00       95.130       54.701       40.181       57.811       45.490       35.480     3342.097     2069.318     1258.798        1.016        0.334      109.736       14.772        0.018      339.741       13.281      862.852
03/22/2014  14:30:00      134.915      114.541        9.406       82.776       45.584       44.653     6851.845     2077.857     1993.903        2.116        0.546      176.979       27.220        0.024      339.575       12.999      862.847
03/22/2014  14:31:00       68.696       56.853       42.509       63.774       61.451       34.147     4067.137     3776.213     1165.995        0.938        0.450       89.171       14.394        0.026      339.641       13.115      862.823
03/22/2014  14:32:00       85.814       63.652       25.329       60.018       44.744       39.763     3602.198     2002.046     1581.075        0.962        0.359      106.844       32.753        0.094      339.721       13.247      862.806
03/22/2014  14:33:00      157.430       96.654       52.479      114.053       67.629       63.638    13007.993     4573.677     4049.753        2.925        1.082      184.733       48.141        0.068      339.908       13.563      862.781
03/22/2014  14:34:00      148.740      109.410       56.073      146.915       89.328       72.888    21584.131     7979.412     5312.654        3.605        1.744      184.646       70.035        0.144      340.138       13.951      862.763
03/22/2014  14:35:00      198.478      168.509        7.082      103.945       82.410       67.281    10804.519     6791.338     4526.681        4.498        1.106      260.363       49.122        0.036      339.539       12.939      862.786
03/22/2014  14:36:00      -13.522      200.780      -36.376       46.894       74.825       26.966     2199.084     5598.842      727.151        2.517        0.426      201.235       29.882        0.022      339.511       12.892      862.783
03/22/2014  14:37:00        2.936      137.353      -12.861       26.158       68.094       34.210      684.246     4636.840     1170.337        1.276        0.325      137.384       40.412        0.087      339.606       13.053      862.756
03/22/2014  14:38:00       49.297       47.305       11.306       42.311       30.947       32.112     1790.208      957.733     1031.183        0.429        0.189       68.323       22.315        0.107      339.886       13.527      862.760
03/22/2014  14:39:00       84.406       83.581       80.919      109.390       79.383       64.859    11966.093     6301.607     4206.689        2.156        1.124      118.786       48.349        0.166      340.227       14.100      862.756
03/22/2014  14:40:00      139.464       76.905       42.711       88.971       56.178       48.664     7915.777     3155.985     2368.192        2.031        0.672      159.262       25.458        0.026      340.105       13.894      862.745
03/22/2014  14:41:00       60.997      -40.260       70.856       89.176      133.979       67.402     7952.337    17950.360     4542.982        2.040        1.522       73.086       75.960        1.080      340.353       14.314      862.718
03/22/2014  14:42:00      133.530        5.254       77.622      115.273      175.383       82.730    13287.901    30759.257     6844.182        3.738        2.545      133.634       99.564        0.555      340.074       13.841      862.686
03/22/2014  14:43:00       71.770      -25.576       42.859       72.614       86.775       51.560     5272.824     7529.908     2658.413        1.155        0.773       76.191       48.391        0.403      340.090       13.870      862.694
03/22/2014  14:44:00       83.019      -77.535       40.563       80.866      111.128       75.570     6539.378    12349.440     5710.845        1.957        1.230      113.595       72.261        0.405      340.023       13.757      862.672
03/22/2014  14:45:00      161.246       69.571       17.361      113.271       57.937       59.911    12830.376     3356.728     3589.272        2.546        0.989      175.614       54.879        0.098      340.134       13.942      862.674
03/22/2014  14:46:00      244.482      184.244       27.407       80.239       70.507       62.166     6438.238     4971.248     3864.608        5.487        0.764      306.133       30.758        0.010      339.644       13.115      862.675
03/22/2014  14:47:00       70.355       40.009       -3.692      109.317       70.759       46.022    11950.210     5006.863     2117.993        1.282        0.954       80.935       21.775        0.072      339.555       12.968      862.697
03/22/2014  14:48:00       38.951      126.628      -27.983       50.376       91.184       36.743     2537.743     8314.433     1350.068        1.527        0.610      132.484       40.639        0.094      339.514       12.899      862.685
03/22/2014  14:49:00       -9.753       -2.548      -12.148       25.431       34.001       13.472      646.713     1156.055      181.497        0.112        0.099       10.081       14.574        2.090      339.599       13.043      862.661
03/22/2014  14:50:00      -25.656      158.584      -27.091       31.416       73.062       21.702      986.973     5338.081      470.984        1.667        0.340      160.646       22.989        0.020      339.647       13.123      862.647
03/22/2014  14:51:00      -43.209      152.334       -8.996       45.280       67.754       32.733     2050.324     4590.591     1071.450        1.643        0.386      158.344       34.306        0.047      339.850       13.464      862.647
03/22/2014  14:52:00       -9.067       93.464        1.744       37.602       46.628       33.065     1413.932     2174.206     1093.275        0.675        0.234       93.903       31.183        0.110      339.957       13.647      862.636
03/22/2014  14:53:00       79.927       51.703       17.410       59.152       38.019       45.071     3498.916     1445.436     2031.399        0.817        0.349       95.192       22.230        0.055      339.954       13.641      862.630
03/22/2014  14:54:00      217.402       99.868       24.232      166.152       91.145       74.147    27606.564     8307.439     5497.737        4.961        2.071      239.243       50.339        0.044      340.063       13.824      862.631
03/22/2014  14:55:00      195.063       94.228       21.366      121.512       72.635       57.152    14765.178     5275.806     3266.364        3.534        1.165      216.630       30.447        0.020      339.951       13.632      862.643
03/22/2014  14:56:00      190.089      103.898       22.332       73.049       61.777       52.723     5336.219     3816.391     2779.686        2.968        0.597      216.631       36.760        0.029      339.775       13.337      862.620
03/22/2014  14:57:00      122.544      124.794      -18.341       83.169       86.763       62.504     6917.090     7527.886     3906.807        2.464        0.918      174.901       55.937        0.102      339.642       13.113      862.603
03/22/2014  14:58:00       43.459       63.002        9.503       42.578       47.520       36.009     1812.871     2258.195     1296.646        0.566        0.268       76.537       32.532        0.181      339.772       13.334      862.604
03/22/2014  14:59:00       14.174      133.693      -28.185       27.468       44.325       21.721      754.476     1964.709      471.785        1.103        0.160      134.442       25.202        0.035      339.582       13.016      862.577
03/22/2014  15:00:00      -17.281      146.615      -23.887       31.103       33.794       19.628      967.403     1142.050      385.250        1.243        0.125      147.630        2.315        0.000      339.593       13.031      862.563
03/22/2014  15:01:00       92.961      127.051       18.018       70.893       54.156       67.054     5025.813     2932.881     4496.261        1.878        0.623      157.428       17.337        0.012      339.921       13.583      862.579
03/22/2014  15:02:00       71.540       95.503      134.683       81.259      110.630       86.470     6603.094    12238.925     7476.988        2.934        1.316      119.327       85.286        0.511      340.376       14.353      862.545
03/22/2014  15:03:00       34.578      118.558      114.382       72.211       76.877       60.861     5214.492     5910.004     3704.116        2.158        0.741      123.498       37.966        0.095      340.215       14.081      862.520
03/22/2014  15:04:00       74.419       51.778       15.790       69.282       53.032       47.250     4799.954     2812.380     2232.583        0.916        0.492       90.659       36.478        0.162      339.931       13.603      862.527
03/22/2014  15:05:00      214.002      129.877       35.148      129.134      108.140       77.202    16675.517    11694.318     5960.101        4.911        1.716      250.330       42.476        0.029      340.071       13.836      862.515
03/22/2014  15:06:00      203.528      156.667       24.974      120.067       70.138       61.514    14416.049     4919.373     3784.032        4.485        1.156      256.843       33.181        0.017      339.931       13.600      862.506
03/22/2014  15:07:00      106.348       77.189       26.539      103.438       66.847       68.177    10699.343     4468.560     4648.107        1.889        0.991      131.408       43.074        0.107      340.280       14.190      862.505
03/22/2014  15:08:00       39.223       81.297       -3.611       51.336       69.366       43.272     2635.433     4811.645     1872.430        0.874        0.466       90.264       28.964        0.103      340.376       14.353      862.489
03/22/2014  15:09:00      113.998      142.787        3.643       91.156       70.494       62.663     8309.330     4969.402     3926.672        2.530        0.860      182.712       45.930        0.063      340.113       13.908      862.455
03/22/2014  15:10:00       78.537      102.659       11.673      106.906       92.568       50.496    11428.793     8568.886     2549.819        1.969        1.127      129.255       47.932        0.138      340.137       13.949      862.434
03/22/2014  15:11:00       69.998       89.085       -2.085       51.718       43.296       33.686     2674.759     1874.506     1134.774        0.926        0.284      113.295       32.230        0.081      339.799       13.379      862.414
03/22/2014  15:12:00      134.153      134.498       -6.111      118.728       57.540       48.195    14096.303     3310.814     2322.776        2.792        0.986      189.966       45.260        0.057      339.861       13.482      862.394
03/22/2014  15:13:00      138.688      130.015       32.190       92.029      100.143       64.717     8469.360    10028.564     4188.252        2.993        1.134      190.101       56.911        0.090      340.070       13.833      862.369
03/22/2014  15:14:00       33.001      128.636       -5.935       61.454       82.662       55.255     3776.560     6832.973     3053.131        1.566        0.683      132.802       47.973        0.130      340.260       14.156      862.368
03/22/2014  15:15:00      -32.458       95.301      -23.261       86.105       69.782       39.375     7414.041     4869.585     1550.421        1.225        0.692      100.677       25.006        0.062      340.523       14.602      862.367
03/22/2014  15:16:00      -21.579       66.539       21.709       42.182       50.615       40.222     1779.280     2561.891     1617.844        0.566        0.298       69.951       36.230        0.268      340.668       14.848      862.367
03/22/2014  15:17:00      106.489       84.424        7.577       98.969       73.757       43.015     9794.923     5440.133     1850.296        1.780        0.854      135.894       31.395        0.053      340.476       14.521      862.346
03/22/2014  15:18:00      178.651       88.209        8.434       90.769       61.062       52.322     8239.021     3728.612     2737.557        2.723        0.735      199.241       34.841        0.031      340.033       13.772      862.348
03/22/2014  15:19:00       60.394      108.947        2.561       72.713       71.244       40.183     5287.114     5075.685     1614.699        1.375        0.599      124.567       36.915        0.088      340.044       13.793      862.359
03/22/2014  15:20:00       -6.556      158.774       -9.995       42.614       74.061       39.117     1815.966     5485.007     1530.101        1.709        0.442      158.909       46.839        0.087      339.939       13.615      862.348
03/22/2014  15:21:00      -17.257        8.649      -10.289       26.647       41.617       22.019      710.073     1731.965      484.849        0.170        0.146       19.303       18.775        0.946      339.984       13.692      862.330
03/22/2014  15:22:00       78.373       62.911       67.397       85.947       56.620       54.292     7386.956     3205.878     2947.655        1.409        0.677      100.499       34.611        0.119      340.286       14.202      862.296
03/22/2014  15:23:00       88.570      -90.199       39.027      111.644      178.444       99.944    12464.342    31842.229     9988.860        3.589        2.715      126.414      122.535        0.940      340.215       14.080      862.280
03/22/2014  15:24:00      147.587      181.172      144.750      125.048       81.667       86.659    15636.894     6669.440     7509.775        5.268        1.491      233.678       78.334        0.112      340.144       13.959      862.285
03/22/2014  15:25:00      154.105      176.906      116.611       92.790       68.741       68.278     8609.999     4725.304     4661.904        4.332        0.900      234.615       57.876        0.061      340.129       13.932      862.281
03/22/2014  15:26:00      140.959      152.590      106.631      134.860       90.369      101.048    18187.238     8166.639    10210.753        4.554        1.828      207.733       93.387        0.202      340.005       13.725      862.281
03/22/2014  15:27:00      105.262       67.208       36.938       79.983       69.932       61.237     6397.262     4890.542     3750.002        1.600        0.752      124.888       47.972        0.148      339.984       13.693      862.283
03/22/2014  15:28:00       74.626       66.512        1.631       77.152       59.272       47.702     5952.361     3513.220     2275.479        1.087        0.587       99.964       48.592        0.236      340.040       13.787      862.285
03/22/2014  15:29:00      111.714       89.931        4.446      100.784       51.642       49.923    10157.363     2666.915     2492.261        1.795        0.766      143.414       33.878        0.056      339.894       13.538      862.264
03/22/2014  15:30:00      193.194      120.198       58.080       89.792       58.272       42.077     8062.627     3395.667     1770.500        3.418        0.661      227.533       36.148        0.025      340.006       13.726      862.239
03/22/2014  15:31:00      173.771       78.222        7.166       64.407       60.850       50.306     4148.223     3702.701     2530.720        2.337        0.519      190.565       21.260        0.012      340.171       14.006      862.230
03/22/2014  15:32:00      121.172       56.410        5.694       70.096       74.902       55.139     4913.490     5610.315     3040.260        1.573        0.678      133.659       24.853        0.035      340.207       14.066      862.216
03/22/2014  15:33:00       66.672       51.042       20.425       49.669       54.263       44.277     2467.026     2944.419     1960.477        0.742        0.369       83.967       17.949        0.046      340.460       14.496      862.206
03/22/2014  15:34:00       79.741       36.818       70.739       82.762       63.159       55.590     6849.481     3989.090     3090.291        1.332        0.696       87.831       46.240        0.277      340.628       14.779      862.204
03/22/2014  15:35:00       74.482       15.100       88.492      101.324      126.969       87.205    10266.534    16121.021     7604.700        2.379        1.700       75.997       88.033        1.342      340.517       14.593      862.184
03/22/2014  15:36:00       67.342       64.858      118.758       69.269       86.582       57.666     4798.158     7496.359     3325.396        1.923        0.781       93.496       58.307        0.389      340.523       14.601      862.190
03/22/2014  15:37:00       19.841       15.264       54.019       66.054       63.209       27.723     4363.154     3995.360      768.585        0.633        0.456       25.032       18.887        0.569      340.744       14.976      862.184
03/22/2014  15:38:00       59.212      -10.877       36.848       52.932       57.089       29.215     2801.788     3259.118      853.514        0.595        0.346       60.202       23.731        0.155      340.740       14.969      862.175
03/22/2014  15:39:00        2.610       20.022       51.491       26.407       36.019       24.871      697.325     1297.389      618.588        0.284        0.131       20.191        9.110        0.204      340.943       15.312      862.164
03/22/2014  15:40:00       79.077        9.752       37.707       52.333       45.081       38.395     2738.745     2032.285     1474.190        0.701        0.312       79.676       28.373        0.127      340.125       13.932      862.174
03/22/2014  15:41:00      108.141       73.617       41.808       42.383       33.061       52.618     1796.309     1093.016     2768.638        1.226        0.283      130.820       28.231        0.047      339.987       13.697      862.142
03/22/2014  15:42:00       29.649       58.468       20.016       47.229       74.078       65.876     2230.564     5487.569     4339.661        0.838        0.603       65.556       32.036        0.239      340.044       13.794      862.119
03/22/2014  15:43:00       32.679      -33.291      -21.118       34.058       70.175       26.010     1159.943     4924.485      676.498        0.469        0.338       46.650       19.470        0.174      339.963       13.657      862.104
03/22/2014  15:44:00       -3.269      -14.632        4.828       41.124       33.366       23.137     1691.210     1113.274      535.300        0.179        0.167       14.992       17.819        1.413      340.546       14.641      862.069
03/22/2014  15:45:00       36.786        6.228       20.105       25.608       47.996       24.627      655.778     2303.584      606.511        0.268        0.178       37.309       17.853        0.229      340.571       14.684      862.038
03/22/2014  15:46:00      -36.058       16.327        0.492       32.560       38.921       23.954     1060.153     1514.856      573.782        0.236        0.157       39.583       23.297        0.346      340.517       14.593      862.019
03/22/2014  15:47:00       -5.186       14.140       37.084       22.649       42.115       28.313      512.987     1773.656      801.607        0.234        0.154       15.061       27.913        3.435      340.754       14.993      862.015
03/22/2014  15:48:00       33.459       11.397       13.473       27.278       23.880       30.035      744.073      570.273      902.125        0.182        0.111       35.347       20.780        0.346      340.322       14.263      862.016
03/22/2014  15:49:00       18.270       29.593        4.403       41.108       21.295       17.539     1689.883      453.460      307.629        0.184        0.123       34.778       10.639        0.094      340.572       14.685      862.012
03/22/2014  15:50:00       50.123      -37.809       38.444       65.770       83.961       42.460     4325.722     7049.412     1802.819        0.930        0.659       62.784       39.842        0.403      340.530       14.614      862.008
03/22/2014  15:51:00      100.347     -142.457      -11.401       69.412       74.995       37.108     4818.052     5624.317     1377.017        2.115        0.591      174.251       39.712        0.052      340.190       14.039      862.007
03/22/2014  15:52:00       62.939      -17.438       19.456       33.484       45.719       39.712     1121.147     2090.189     1577.082        0.472        0.239       65.310       30.425        0.217      340.184       14.031      862.006
03/22/2014  15:53:00      194.000      108.555       32.474       88.332       70.780       56.343     7802.548     5009.796     3174.558        3.323        0.799      222.306       33.781        0.023      340.187       14.034      862.003
03/22/2014  15:54:00       99.204      120.796      100.816       86.121       85.466       78.235     7416.862     7304.461     6120.762        2.772        1.042      156.311       69.838        0.200      340.596       14.723      861.983
03/22/2014  15:55:00      166.036      109.640       56.951       94.907       72.868       79.156     9007.244     5309.693     6265.654        3.170        1.029      198.970       68.323        0.118      340.360       14.323      861.969
03/22/2014  15:56:00       51.232       25.952       56.039       83.204       70.161       62.672     6922.938     4922.595     3927.778        1.110        0.789       57.430       51.271        0.797      340.784       15.043      861.958
03/22/2014  15:57:00      158.874       94.015      105.747      131.667      105.518       68.976    17336.290    11134.141     4757.703        3.924        1.661      184.607       63.038        0.117      340.459       14.490      861.953
03/22/2014  15:58:00      146.128      104.303       84.498      133.706       84.187       67.604    17877.313     7087.501     4570.267        3.445        1.477      179.534       55.464        0.095      340.422       14.428      861.960
03/22/2014  15:59:00      188.833      140.302       17.314       84.716       79.071       59.692     7176.856     6252.154     3563.107        3.631        0.850      235.250       42.060        0.032      340.174       14.010      861.957
03/22/2014  16:00:00      213.028      138.660       34.038       97.619       79.911       56.200     9529.494     6385.785     3158.409        4.242        0.954      254.180       54.202        0.045      340.417       14.419      861.946
03/22/2014  16:01:00       29.520       34.614       38.285       52.788       52.907       55.805     2786.583     2799.109     3114.163        0.612        0.435       45.492       45.689        1.009      340.722       14.938      861.956
03/22/2014  16:02:00       80.320       28.025       19.619       74.237       55.653       30.001     5511.202     3097.213      900.032        0.856        0.475       85.069       23.362        0.075      340.533       14.620      861.953
03/22/2014  16:03:00      103.505       65.143       -6.990       42.546       26.963       33.603     1810.181      727.002     1129.154        0.934        0.183      122.298       27.631        0.051      340.327       14.271      861.943
03/22/2014  16:04:00       24.451       -8.703      -22.770       40.423       86.792       26.528     1633.980     7532.823      703.729        0.553        0.494       25.954       32.096        1.529      340.308       14.240      861.941
03/22/2014  16:05:00       46.764       23.047       13.985       47.939       87.728       41.461     2298.165     7696.210     1719.017        0.731        0.586       52.134       26.848        0.265      340.395       14.386      861.920
03/22/2014  16:06:00       -1.546       77.416      -21.107       24.717       25.734       24.447      610.921      662.218      597.655        0.416        0.094       77.431       12.204        0.025      340.096       13.880      861.901
03/22/2014  16:07:00        5.271       85.071       37.041       82.392       43.184       71.635     6788.421     1864.818     5131.519        1.121        0.689       85.234       38.551        0.205      340.296       14.218      861.887
03/22/2014  16:08:00       58.635      -26.279       46.412       54.962       97.630       38.743     3020.810     9531.573     1501.045        1.017        0.703       64.254       50.854        0.626      340.427       14.439      861.887
03/22/2014  16:09:00       71.700       44.334       67.365      104.163      114.525       63.320    10849.925    13116.065     4009.471        1.981        1.399       84.299       44.090        0.274      340.735       14.960      861.865
03/22/2014  16:10:00      244.063      136.421       42.960       81.437       65.929       62.981     6632.010     4346.589     3966.652        4.748        0.747      279.602       37.500        0.018      340.412       14.411      861.893
03/22/2014  16:11:00       76.050       96.894       47.350       58.651       52.922       59.866     3439.902     2800.785     3583.991        1.362        0.491      123.175       39.145        0.101      340.327       14.269      861.884
03/22/2014  16:12:00       25.070      -25.416       31.098       58.253      106.685       56.561     3393.437    11381.679     3199.112        1.010        0.899       35.700       66.196        3.438      340.594       14.723      861.886
03/22/2014  16:13:00        7.019       44.856        1.429       44.874       52.963       40.855     2013.638     2805.096     1669.093        0.427        0.324       45.402       27.290        0.361      340.570       14.682      861.882
03/22/2014  16:14:00       79.037       72.348       31.810       70.582       44.731       46.597     4981.871     2000.874     2171.267        1.082        0.458      107.150       23.678        0.049      340.377       14.356      861.881
03/22/2014  16:15:00       94.147       93.392       89.379       89.645       70.864       80.360     8036.207     5021.715     6457.775        2.254        0.976      132.611       61.315        0.214      340.549       14.646      861.880
03/22/2014  16:16:00       77.215       72.361       53.720       99.534      101.764       73.520     9906.968    10355.965     5405.210        1.987        1.283      105.822       55.296        0.273      340.530       14.613      861.885
03/22/2014  16:17:00      251.555      166.507       54.411      120.151       71.393       71.586    14436.299     5097.026     5124.624        5.931        1.233      301.670       60.309        0.040      340.534       14.618      861.889
03/22/2014  16:18:00      221.200      131.581       10.324      113.232       86.307       66.124    12821.496     7448.921     4372.377        4.549        1.232      257.377       34.949        0.018      340.258       14.153      861.891
03/22/2014  16:19:00      183.272      134.800       16.891      103.328       67.017       70.584    10676.658     4491.277     4982.073        3.609        1.008      227.508       44.038        0.037      340.182       14.024      861.892
03/22/2014  16:20:00       51.348      127.082       -9.079       85.362       71.978       40.319     7286.594     5180.840     1625.583        1.648        0.705      137.063       35.409        0.067      340.406       14.404      861.893
03/22/2014  16:21:00      136.369      120.423        8.083       99.554       65.174       54.530     9911.029     4247.605     2973.502        2.514        0.857      181.929       35.135        0.037      340.187       14.031      861.892
03/22/2014  16:22:00       89.295      116.327       -1.832       93.436       53.362       39.712     8730.297     2847.548     1577.062        1.733        0.658      146.648       32.357        0.049      340.190       14.039      861.882
03/22/2014  16:23:00      161.916      144.415      116.942      100.105       79.921       74.523    10021.101     6387.372     5553.636        4.135        1.098      216.962       46.256        0.045      340.538       14.623      861.858
03/22/2014  16:24:00      212.958       93.811       36.182       97.383       77.224       53.536     9483.384     5963.474     2866.070        3.688        0.916      232.705       31.856        0.019      340.254       14.143      861.858
03/22/2014  16:25:00      -32.867       88.704      -15.654      105.929       55.190       50.415    11221.020     3045.937     2541.690        1.300        0.840       94.598       36.876        0.152      340.397       14.389      861.833
03/22/2014  16:26:00      -31.790      247.666      -43.604       51.405       49.596       29.421     2642.481     2459.777      865.598        3.511        0.298      249.698       22.050        0.008      340.201       14.055      861.800
03/22/2014  16:27:00      -30.514      203.029       -7.958       52.748       88.714       47.661     2782.373     7870.190     2271.607        2.757        0.646      205.310       50.264        0.060      340.373       14.346      861.802
03/22/2014  16:28:00       16.075       72.840        4.663       59.949       65.485       31.234     3593.832     4288.315      975.547        0.722        0.443       74.593       34.618        0.215      340.527       14.610      861.810
03/22/2014  16:29:00       33.748       38.875        3.323       61.451       56.904       35.430     3776.164     3238.043     1255.287        0.546        0.413       51.480       17.693        0.118      340.604       14.739      861.813
03/22/2014  16:30:00       91.118      177.683      -11.251       75.555       87.233       54.492     5708.540     7609.587     2969.388        2.814        0.814      199.684       49.206        0.061      340.383       14.363      861.803
03/22/2014  16:31:00       60.000       58.090        3.899       72.821       56.971       38.123     5302.857     3245.661     1453.343        0.849        0.500       83.513       32.208        0.149      340.548       14.644      861.794
03/22/2014  16:32:00       10.974      221.480      -13.852       70.502      115.295       54.084     4970.583    13293.033     2925.100        3.527        1.059      221.751       56.955        0.066      340.365       14.331      861.798
03/22/2014  16:33:00       34.512      180.138      -27.631       42.077       75.471       41.941     1770.512     5695.839     1759.007        2.181        0.461      183.414       42.111        0.053      340.288       14.205      861.805
03/22/2014  16:34:00      161.178       94.541       24.740      100.490       63.502       61.805    10098.282     4032.527     3819.837        2.674        0.898      186.859       36.271        0.038      340.510       14.577      861.811
03/22/2014  16:35:00       48.197      248.448      -12.917       99.464      105.916       82.296     9893.178    11218.205     6772.668        4.605        1.394      253.080       70.599        0.078      340.450       14.474      861.769
03/22/2014  16:36:00       -7.210      256.560      -34.436       53.781       84.204       36.344     2892.354     7090.252     1320.883        3.918        0.565      256.662       38.862        0.023      340.274       14.178      861.772
03/22/2014  16:37:00      108.915      157.194       -2.579       93.224       91.064       57.338     8690.680     8292.651     3287.611        2.842        1.014      191.239       60.232        0.099      340.364       14.332      861.747
03/22/2014  16:38:00      160.578       85.496       12.773       47.944       39.766       36.397     2298.588     1581.307     1324.728        1.923        0.260      181.920       22.098        0.015      340.585       14.705      861.738
03/22/2014  16:39:00      163.408       95.851       13.385      117.191       81.898       46.371    13733.757     6707.319     2150.254        2.933        1.130      189.446       33.449        0.031      340.598       14.727      861.728
03/22/2014  16:40:00      264.234      124.461       51.678      118.659       87.034       89.733    14079.881     7574.982     8052.015        5.884        1.485      292.079       57.565        0.039      340.541       14.629      861.701
03/22/2014  16:41:00      169.270      115.277       37.621      101.525       71.438       55.741    10307.287     5103.413     3107.064        3.093        0.926      204.795       43.465        0.045      340.554       14.650      861.702
03/22/2014  16:42:00      155.664      133.409       21.336       94.520       89.559       66.066     8934.002     8020.812     4364.775        3.190        1.066      205.011       41.418        0.041      340.677       14.858      861.692
03/22/2014  16:43:00      146.732      110.655       12.415      107.522       76.053       66.910    11560.909     5784.107     4476.984        2.787        1.091      183.779       52.831        0.083      340.705       14.910      861.688
03/22/2014  16:44:00      321.098      193.756       41.149      106.999       92.311       71.158    11448.752     8521.346     5063.475        8.368        1.252      375.028       50.332        0.018      340.459       14.493      861.685
03/22/2014  16:45:00      213.241      156.462       69.984      110.049       85.944       68.369    12110.833     7386.382     4674.341        4.951        1.209      264.485       61.172        0.053      340.307       14.235      861.680
03/22/2014  16:46:00      145.689      131.426       94.203      152.164      115.318       95.499    23153.887    13298.267     9120.090        4.646        2.279      196.210       94.237        0.231      340.511       14.580      861.675
03/22/2014  16:47:00       51.769       49.347       12.910       59.978       43.778       42.955     3597.313     1916.541     1845.110        0.632        0.368       71.520       12.921        0.033      340.328       14.273      861.696
03/22/2014  16:48:00      159.644      121.926       63.425       69.882       55.062       60.446     4883.542     3031.850     3653.690        2.797        0.578      200.879       33.443        0.028      340.338       14.287      861.681
03/22/2014  16:49:00       81.159       91.113       70.227       74.701       73.012       69.729     5580.252     5330.793     4862.198        1.779        0.789      122.018       47.573        0.152      340.440       14.459      861.674
03/22/2014  16:50:00      189.940      141.078        8.524      117.309       96.381       83.457    13761.434     9289.234     6965.031        4.303        1.501      236.601       52.123        0.049      340.413       14.414      861.677
03/22/2014  16:51:00      234.917      142.885       35.119      139.790       85.998       64.750    19541.305     7395.707     4192.498        5.398        1.556      274.958       40.864        0.022      340.340       14.291      861.677
03/22/2014  16:52:00      302.076      178.084       38.317       94.472       87.461       67.662     8924.901     7649.463     4578.152        7.279        1.058      350.662       44.608        0.016      340.280       14.188      861.676
03/22/2014  16:53:00      159.466       85.943       37.394       91.642       68.547       55.592     8398.206     4698.684     3090.454        2.520        0.809      181.151       43.475        0.058      340.418       14.422      861.670
03/22/2014  16:54:00      162.459       96.809       11.369      104.198       64.393       61.065    10857.221     4146.511     3728.958        2.731        0.937      189.116       35.549        0.035      340.414       14.414      861.667
03/22/2014  16:55:00      167.922      148.269       19.524      135.427      103.727       88.171    18340.570    10759.335     7774.148        4.371        1.844      224.013       63.568        0.081      340.378       14.355      861.667
03/22/2014  16:56:00      202.511      168.930       11.757      143.630      101.595       75.864    20629.462    10321.489     5755.287        5.319        1.835      263.719       54.471        0.043      340.441       14.460      861.675
03/22/2014  16:57:00      351.315      241.158       39.950      115.700       97.447       90.207    13386.545     9495.870     8137.257       10.709        1.551      426.122       58.247        0.019      340.199       14.051      861.671
03/22/2014  16:58:00      265.620      182.018       41.280       78.157       63.109       64.405     6108.478     3982.755     4148.027        5.981        0.712      322.000       28.288        0.008      340.228       14.099      861.680
03/22/2014  16:59:00      155.965      109.926       14.734      120.379       74.816       67.468    14491.040     5597.381     4551.952        3.063        1.232      190.811       43.686        0.052      340.260       14.156      861.673
03/22/2014  17:00:00       62.531      185.921      -24.169       64.173      123.024       47.534     4118.144    15134.797     2259.471        3.028        1.076      196.155       58.845        0.090      340.307       14.236      861.670
03/22/2014  17:01:00       54.050       83.361        6.748       49.231       53.255       37.413     2423.732     2836.067     1399.755        0.829        0.333       99.350       34.495        0.121      340.219       14.089      861.675
03/22/2014  17:02:00       34.795       27.162        2.601       22.401       27.891       22.444      501.810      777.883      503.740        0.187        0.089       44.142       17.246        0.153      340.292       14.212      861.674
03/22/2014  17:03:00       54.993       31.985       -5.254       38.116       32.183       21.722     1452.811     1035.724      471.851        0.352        0.148       63.618       17.844        0.079      340.365       14.335      861.664
03/22/2014  17:04:00       16.095       28.112       -9.178       27.227       21.927       11.228      741.328      480.797      126.066        0.124        0.067       32.394        7.445        0.053      340.379       14.358      861.658
03/22/2014  17:05:00       27.223       10.249       -1.315       23.201       12.833       11.353      538.306      164.689      128.881        0.084        0.042       29.088        7.749        0.071      340.528       14.611      861.651
03/22/2014  17:06:00      114.770       59.478       11.545      121.617       85.318       42.253    14790.597     7279.133     1785.305        2.035        1.193      129.266       24.229        0.035      340.592       14.718      861.654
03/22/2014  17:07:00      191.168       96.697       40.539       94.335       85.861       45.665     8899.058     7372.098     2085.268        3.294        0.918      214.233       21.639        0.010      340.486       14.536      861.656
03/22/2014  17:08:00       67.754      104.759      105.477       84.475       77.195       65.500     7136.042     5958.991     4290.248        2.203        0.869      124.760       60.070        0.232      340.849       15.152      861.671
03/22/2014  17:09:00       76.242       15.455       37.146      128.747       60.819       59.528    16575.752     3698.996     3543.580        1.562        1.191       77.793       44.359        0.325      340.963       15.345      861.695
03/22/2014  17:10:00      170.482       67.732       66.587      125.780       92.792       79.640    15820.615     8610.314     6342.470        3.442        1.539      183.444       67.125        0.134      340.536       14.622      861.692
03/22/2014  17:11:00       45.036      -58.487       19.942       58.042       78.220       43.304     3368.855     6118.345     1875.276        0.860        0.568       73.817       39.881        0.292      340.745       14.977      861.693
03/22/2014  17:12:00      196.561       10.721       22.919      111.583      162.232       84.091    12450.769    26319.202     7071.234        4.255        2.292      196.854       43.111        0.048      340.747       14.979      861.676
03/22/2014  17:13:00      100.377       60.937       39.587       81.136       57.966       51.963     6583.120     3360.038     2700.187        1.400        0.632      117.426       36.908        0.099      340.794       15.061      861.710
03/22/2014  17:14:00       12.820       -1.584       44.798       41.167       54.179       34.719     1694.709     2935.313     1205.395        0.400        0.292       12.918       15.374        1.417      341.050       15.493      861.699
03/22/2014  17:15:00      100.012       61.100       15.678       79.825       56.831       48.971     6371.973     3229.778     2398.197        1.299        0.600      117.199       45.234        0.149      340.913       15.260      861.703
03/22/2014  17:16:00      181.053      147.591       15.801      142.086       76.522       81.348    20188.410     5855.640     6617.470        4.373        1.633      233.588       43.556        0.035      340.475       14.519      861.725
03/22/2014  17:17:00      140.236       94.585        0.432       80.948       62.282       40.043     6552.546     3879.072     1603.421        2.032        0.602      169.152       29.855        0.031      340.459       14.493      861.723
03/22/2014  17:18:00       53.503       79.490       17.618       72.045       79.068       57.528     5190.499     6251.672     3309.434        1.212        0.738       95.819       45.064        0.221      340.469       14.512      861.713
03/22/2014  17:19:00      100.928      133.995        7.137       74.394       87.405       66.232     5534.403     7639.651     4386.680        2.287        0.878      167.753       39.989        0.057      340.585       14.706      861.697
03/22/2014  17:20:00      181.182      153.650       17.139      127.357      105.845       80.642    16219.697    11203.255     6503.197        4.532        1.696      237.561       59.000        0.062      340.397       14.386      861.696
03/22/2014  17:21:00      198.561      138.358       11.213      117.412       94.589       66.154    13785.606     8947.102     4376.392        4.290        1.355      242.012       37.670        0.024      340.391       14.378      861.686
03/22/2014  17:22:00      150.245       78.432       27.130       85.473       58.373       52.430     7305.653     3407.432     2748.858        2.146        0.673      169.485       31.914        0.035      340.520       14.595      861.687
03/22/2014  17:23:00       76.253       81.524       15.102       88.113       61.246       54.695     7763.913     3751.128     2991.570        1.360        0.725      111.627       34.895        0.098      340.542       14.633      861.695
03/22/2014  17:24:00      120.209      113.252       -5.280       95.081       70.779       42.306     9040.379     5009.650     1789.782        2.157        0.792      165.156       31.974        0.037      340.689       14.881      861.712
03/22/2014  17:25:00       69.639      136.783       -5.920       62.992       84.946       52.411     3967.953     7215.836     2746.874        1.876        0.697      153.490       49.351        0.103      340.405       14.401      861.718
03/22/2014  17:26:00      109.121      106.816        9.383       75.180       82.685       53.821     5651.965     6836.876     2896.748        1.939        0.769      152.699       43.654        0.082      340.586       14.708      861.715
03/22/2014  17:27:00       39.610       32.040       13.570       54.763       46.500       30.479     2998.989     2162.270      928.982        0.443        0.305       50.946       26.558        0.272      340.740       14.970      861.702
03/22/2014  17:28:00      165.715      107.332       18.706       41.596       46.172       35.392     1730.234     2131.878     1252.601        2.222        0.256      197.438       24.247        0.015      340.530       14.611      861.706
03/22/2014  17:29:00      244.592      160.161       61.596      120.604       78.147       69.490    14545.223     6106.928     4828.915        5.737        1.274      292.364       20.257        0.005      340.569       14.677      861.686
03/22/2014  17:30:00      252.193      163.099       37.753      113.592       73.172       75.086    12903.198     5354.147     5637.978        5.776        1.195      300.337       59.132        0.039      340.374       14.348      861.675
03/22/2014  17:31:00      142.611      110.303      117.360      113.213       90.417       70.658    12817.151     8175.290     4992.511        3.613        1.299      180.291       69.622        0.149      340.481       14.528      861.669
03/22/2014  17:32:00      138.983      145.547      143.624      131.469       88.255       78.614    17284.057     7788.900     6180.121        4.619        1.563      201.247       80.216        0.159      340.609       14.744      861.646
03/22/2014  17:33:00      115.947       48.348       85.152      109.658      117.670       77.130    12024.852    13846.165     5949.077        2.742        1.591      125.623       75.737        0.363      340.707       14.910      861.652
03/22/2014  17:34:00      155.918       80.239       78.971      110.161       92.049       76.092    12135.384     8473.070     5789.930        3.169        1.320      175.354       67.656        0.149      340.448       14.474      861.676
03/22/2014  17:35:00       42.813       17.030       56.265       48.590       76.649       40.214     2360.981     5875.090     1617.143        0.757        0.493       46.076       44.383        0.928      340.438       14.459      861.687
03/22/2014  17:36:00       94.984       99.582      103.244       84.382       91.063       64.031     7120.277     8292.517     4099.931        2.455        0.976      137.617       61.995        0.203      340.563       14.669      861.669
03/22/2014  17:37:00      121.194      101.113      129.009       87.662       86.573       63.487     7684.648     7494.865     4030.655        3.038        0.961      157.835       53.483        0.115      340.466       14.504      861.679
03/22/2014  17:38:00      115.869       68.050      102.227      106.299       99.622       63.096    11299.383     9924.504     3981.161        2.685        1.260      134.374       57.847        0.185      340.432       14.446      861.660
03/22/2014  17:39:00       59.960      141.834      196.495      109.807      181.964      108.223    12057.597    33110.773    11712.285        5.959        2.844      153.988      127.656        0.687      340.551       14.646      861.628
03/22/2014  17:40:00       -2.122       63.417      110.522       59.411       86.197       75.805     3529.664     7429.961     5746.414        1.647        0.835       63.452       60.420        0.907      340.726       14.945      861.661
03/22/2014  17:41:00       91.989       90.215       -3.462       73.390       58.733       50.664     5386.155     3449.592     2566.800        1.401        0.570      128.844       40.245        0.098      340.579       14.696      861.674
03/22/2014  17:42:00      110.521       86.016        9.959       82.182       53.954       46.915     6753.864     2911.032     2201.062        1.579        0.593      140.049       26.107        0.035      340.460       14.494      861.681
03/22/2014  17:43:00       99.979       51.627       10.226       80.535       42.094       33.492     6485.941     1771.867     1121.712        1.107        0.469      112.522        7.909        0.005      340.469       14.510      861.679
03/22/2014  17:44:00       99.813      170.930       -5.810      131.842      131.458       70.272    17382.444    17281.193     4938.219        3.940        1.980      197.939       41.566        0.044      340.421       14.429      861.674
03/22/2014  17:45:00      257.520      191.456       26.242       78.054       60.109       56.138     6092.488     3613.123     3151.464        5.826        0.643      320.892       32.445        0.010      340.199       14.052      861.690
03/22/2014  17:46:00      116.341       64.216       12.100       64.928       54.518       42.033     4215.637     2972.247     1766.784        1.338        0.448      132.887       20.050        0.023      340.249       14.138      861.677
03/22/2014  17:47:00      169.263       93.368       13.003       85.444       53.605       43.164     7300.664     2873.522     1863.134        2.478        0.602      193.307       15.626        0.007      340.294       14.213      861.670
03/22/2014  17:48:00      122.020       78.975       15.001       59.077       48.848       41.419     3490.034     2386.081     1715.528        1.447        0.380      145.347       25.740        0.031      340.364       14.332      861.660
03/22/2014  17:49:00      176.402      117.632       31.418       62.102       48.889       44.136     3856.617     2390.164     1947.973        2.707        0.410      212.026       34.922        0.027      340.337       14.284      861.659
03/22/2014  17:50:00      173.267      124.565       26.909      110.546       91.576       58.938    12220.428     8386.181     3473.683        3.517        1.204      213.396       31.654        0.022      340.417       14.422      861.675
03/22/2014  17:51:00      218.985      133.052       31.052       98.848       82.506       60.376     9770.914     6807.170     3645.271        4.342        1.011      256.237       42.537        0.028      340.392       14.378      861.664
03/22/2014  17:52:00      283.957      175.690       26.416      107.562       93.453       79.284    11569.572     8733.489     6285.949        6.939        1.329      333.913       58.385        0.031      340.362       14.327      861.661
03/22/2014  17:53:00      227.392      136.764       37.776       89.965       82.073       67.774     8093.635     6736.034     4593.354        4.563        0.971      265.351       34.880        0.017      340.213       14.076      861.669
03/22/2014  17:54:00      168.325      104.840       14.481       51.306       53.830       39.010     2632.296     2897.671     1521.805        2.329        0.353      198.305       22.506        0.013      340.225       14.098      861.663
03/22/2014  17:55:00       87.764       52.594       42.148       85.364       57.551       47.333     7287.012     3312.135     2240.387        1.254        0.642      102.317       22.350        0.048      340.389       14.375      861.636
03/22/2014  17:56:00      208.435      126.779       31.278       96.169       64.429       68.635     9248.555     4151.154     4710.784        3.930        0.906      243.964       38.139        0.024      340.379       14.356      861.628
03/22/2014  17:57:00      198.558      131.939       50.808      124.222       84.279       75.295    15431.094     7102.915     5669.380        4.380        1.410      238.397       25.098        0.011      340.386       14.369      861.622
03/22/2014  17:58:00      270.355      167.445       41.169      120.840      102.195       71.889    14602.262    10443.788     5168.007        6.651        1.511      318.009       48.922        0.024      340.335       14.281      861.624
03/22/2014  17:59:00      267.873      124.916       47.838      105.977       72.155       66.687    11231.123     5206.350     4447.187        5.526        1.044      295.567       39.686        0.018      340.247       14.131      861.620
03/22/2014  18:00:00      145.860       98.328       23.956       63.586       50.659       46.050     4043.225     2566.329     2120.588        2.012        0.437      175.908       33.316        0.036      340.308       14.238      861.631
03/22/2014  18:01:00      178.062      112.215       31.917       92.833       63.144       57.916     8618.006     3987.195     3354.240        3.064        0.798      210.471       36.554        0.030      340.348       14.305      861.641
03/22/2014  18:02:00       97.159       83.697        6.590       73.154       62.057       47.929     5351.459     3851.123     2297.229        1.399        0.575      128.239       23.844        0.035      340.301       14.226      861.643
03/22/2014  18:03:00      153.226       91.437       33.449       92.504       65.913       56.233     8556.994     4344.562     3162.116        2.451        0.803      178.434       29.774        0.028      340.323       14.262      861.652
03/22/2014  18:04:00      194.120      134.620       19.302       96.541       74.844       62.970     9320.133     5601.585     3965.205        3.753        0.944      236.231       38.823        0.027      340.428       14.438      861.670
03/22/2014  18:05:00      271.042      177.317       38.927       85.420       65.449       59.714     7296.660     4283.508     3565.800        6.078        0.757      323.890       34.027        0.011      340.336       14.283      861.679
03/22/2014  18:06:00      237.681      153.462       43.984       93.486       82.065       75.192     8739.686     6734.683     5653.817        5.155        1.056      282.919       45.443        0.026      340.339       14.288      861.671
03/22/2014  18:07:00      141.024      124.651       88.834      144.562       82.453       90.757    20898.310     6798.455     8236.840        3.962        1.797      188.217       86.429        0.211      340.381       14.359      861.664
03/22/2014  18:08:00       60.963       52.630       76.476       78.146       70.324       60.149     6106.742     4945.468     3617.904        1.350        0.734       80.538       54.638        0.460      340.423       14.434      861.672
03/22/2014  18:09:00      203.451      129.041       97.055      132.940       97.294       83.060    17673.023     9466.165     6898.924        5.075        1.702      240.923       81.305        0.114      340.278       14.184      861.690
03/22/2014  18:10:00      230.068      126.387       62.194      128.766       89.451       73.634    16580.709     8001.488     5421.961        5.138        1.500      262.498       66.719        0.065      340.262       14.158      861.683
03/22/2014  18:11:00      262.203      184.562       42.281      118.245       82.069       75.006    13981.801     6735.241     5625.917        6.547        1.317      320.646       36.143        0.013      340.110       13.899      861.700
03/22/2014  18:12:00      250.659      166.211       21.908       99.001       73.632       61.068     9801.164     5421.662     3729.304        5.494        0.948      300.759       31.612        0.011      340.120       13.919      861.694
03/22/2014  18:13:00      215.738      112.718       34.713      120.506       77.284       69.801    14521.736     5972.767     4872.187        4.291        1.268      243.409       50.836        0.044      340.152       13.974      861.691
03/22/2014  18:14:00      125.955       84.297       23.479      103.157       78.171       57.890    10641.264     6110.687     3351.299        2.181        1.005      151.561       31.638        0.044      340.166       13.997      861.704
03/22/2014  18:15:00      197.488      133.549       31.156      101.117       94.512       61.280    10224.677     8932.564     3755.184        4.036        1.146      238.405       19.623        0.007      340.144       13.958      861.706
03/22/2014  18:16:00      217.058      165.131       12.843       98.368       69.110       65.839     9676.298     4776.134     4334.828        4.666        0.939      272.731       39.757        0.021      340.114       13.908      861.718
03/22/2014  18:17:00      217.881      127.799       39.816       97.300       70.516       67.345     9467.309     4972.444     4535.371        4.218        0.949      252.596       42.710        0.029      340.136       13.945      861.710
03/22/2014  18:18:00       95.489       38.350       22.647       71.497       45.045       43.135     5111.848     2029.067     1860.630        1.005        0.450      102.902       36.202        0.124      340.187       14.034      861.710
03/22/2014  18:19:00      136.250       79.334       26.116       63.908       49.394       49.394     4084.259     2439.802     2439.736        1.725        0.448      157.664       21.478        0.019      340.197       14.050      861.725
03/22/2014  18:20:00      162.945       72.449       28.041       84.572       80.128       44.060     7152.429     6420.504     1941.271        2.405        0.776      178.325       28.467        0.025      340.161       13.988      861.718
03/22/2014  18:21:00       58.121       78.514        1.841       52.445       61.135       38.537     2750.431     3737.433     1485.078        0.876        0.399       97.685       32.035        0.108      340.164       13.996      861.720
03/22/2014  18:22:00       60.589      163.977      -26.119       44.264       73.306       38.061     1959.301     5373.724     1448.622        2.001        0.439      174.812       40.446        0.054      340.089       13.866      861.723
03/22/2014  18:23:00       39.617       37.489       -0.301       47.668       36.000       30.512     2272.274     1296.029      930.976        0.374        0.225       54.543       29.375        0.290      340.195       14.049      861.732
03/22/2014  18:24:00       80.417       84.689        3.821       75.444       51.859       44.062     5691.772     2689.373     1941.492        1.199        0.516      116.787       27.046        0.054      340.131       13.939      861.739
03/22/2014  18:25:00      121.427       80.150        0.711       59.275       54.559       37.368     3513.483     2976.676     1396.383        1.453        0.394      145.494       24.411        0.028      340.153       13.977      861.747
03/22/2014  18:26:00      139.758       86.551       17.013       89.058       77.129       45.897     7931.285     5948.908     2106.512        2.165        0.799      164.388       22.897        0.019      340.156       13.980      861.761
03/22/2014  18:27:00      287.668      151.014       29.781       77.715       59.276       56.890     6039.636     3513.627     3236.432        5.962        0.639      324.897       37.842        0.014      340.098       13.879      861.746
03/22/2014  18:28:00      170.864       74.494       35.791      110.277       61.272       59.933    12161.031     3754.249     3592.007        2.776        0.975      186.397       48.568        0.068      340.137       13.948      861.732
03/22/2014  18:29:00      206.012      134.568       25.153       85.308       49.445       50.662     7277.481     2444.796     2566.668        3.673        0.614      246.068       11.737        0.002      340.099       13.883      861.739
03/22/2014  18:30:00      133.241      137.045       88.564      102.984       64.897       65.002    10605.708     4211.683     4225.319        3.171        0.952      191.140       52.425        0.075      340.112       13.905      861.726
03/22/2014  18:31:00      159.433      133.209       70.467      119.845       68.504       75.608    14362.916     4692.819     5716.624        3.645        1.239      207.759       62.936        0.092      340.098       13.882      861.726
03/22/2014  18:32:00      190.134      121.368       53.455      113.982       69.929       64.676    12991.997     4890.059     4182.938        3.790        1.103      225.568       60.943        0.073      340.060       13.816      861.726
03/22/2014  18:33:00      193.887      103.228       76.255       92.293       53.329       46.309     8517.961     2844.004     2144.533        3.378        0.675      219.655       42.709        0.038      340.064       13.823      861.729
03/22/2014  18:34:00      139.856      113.790       65.174       97.914       61.710       66.197     9587.088     3808.093     4382.089        2.726        0.889      180.299       59.137        0.108      340.093       13.874      861.716
03/22/2014  18:35:00      183.790       80.497       28.802       78.452       70.699       63.623     6154.726     4998.342     4047.830        2.814        0.760      200.645       39.269        0.038      340.057       13.813      861.724
03/22/2014  18:36:00      156.233       95.258       50.329      109.567       70.115       61.782    12005.009     4916.112     3817.036        2.837        1.037      182.983       57.164        0.098      340.086       13.862      861.721
03/22/2014  18:37:00      151.828      125.947      103.057      128.029       81.630       82.594    16391.404     6663.464     6821.829        3.970        1.494      197.267       74.794        0.144      340.070       13.834      861.716
03/22/2014  18:38:00      131.450       66.796       27.310       79.847       50.858       55.998     6375.557     2586.546     3135.793        1.729        0.605      147.448       39.058        0.070      340.047       13.796      861.722
03/22/2014  18:39:00      136.574       67.633       82.283       87.994       70.435       50.700     7742.941     4961.073     2570.454        2.263        0.764      152.403       57.185        0.141      340.030       13.767      861.718
03/22/2014  18:40:00      195.085      140.784       65.823       93.994       52.900       50.521     8834.807     2798.369     2552.362        3.820        0.709      240.579       50.301        0.044      340.009       13.729      861.716
03/22/2014  18:41:00      197.275      102.987       61.399      159.725       68.802       74.098    25511.926     4733.700     5490.557        4.451        1.787      222.539       71.275        0.103      339.985       13.691      861.712
03/22/2014  18:42:00      198.981       95.801       52.764      106.897       83.596       68.428    11426.958     6988.209     4682.457        3.732        1.155      220.842       46.180        0.044      339.938       13.612      861.722
03/22/2014  18:43:00      124.256       71.415       15.950       59.747       59.842       57.323     3569.752     3581.070     3285.939        1.561        0.522      143.317       27.647        0.037      339.927       13.595      861.727
03/22/2014  18:44:00      131.787       74.664       47.174       70.948       65.321       60.926     5033.609     4266.829     3711.976        1.909        0.651      151.468       37.522        0.061      339.914       13.571      861.719
03/22/2014  18:45:00      179.764       90.885       56.117       79.210       58.636       56.677     6274.296     3438.190     3212.254        2.832        0.646      201.433       45.527        0.051      339.951       13.633      861.724
03/22/2014  18:46:00       79.976       62.638       57.753       64.813       70.954       63.953     4200.686     5034.498     4089.936        1.349        0.666      101.586       43.474        0.183      339.913       13.573      861.728
03/22/2014  18:47:00      102.567       54.105       45.287       85.700       45.069       56.426     7344.518     2031.233     3183.853        1.403        0.628      115.962       59.546        0.264      339.920       13.581      861.734
03/22/2014  18:48:00      129.949       72.520       37.307       91.764       51.839       57.164     8420.611     2687.292     3267.680        1.895        0.719      148.815       45.604        0.094      339.907       13.560      861.747
03/22/2014  18:49:00      171.553      114.923       42.187       58.795       55.294       47.232     3456.838     3057.434     2230.888        2.658        0.437      206.489       28.485        0.019      339.866       13.490      861.754
03/22/2014  18:50:00      206.948      112.192       45.637       90.072       72.061       63.535     8113.044     5192.745     4036.718        3.742        0.867      235.403       40.051        0.029      339.873       13.500      861.752
03/22/2014  18:51:00      135.125      100.023       67.015       88.677       61.155       54.674     7863.667     3739.967     2989.229        2.367        0.730      168.117       47.374        0.079      339.838       13.443      861.759
03/22/2014  18:52:00       99.459       88.857       75.096       73.682       61.954       51.219     5429.008     3838.318     2623.338        1.766        0.595      133.370       42.383        0.101      339.857       13.476      861.767
03/22/2014  18:53:00      122.558       59.165       52.958       78.726       59.877       54.608     6197.833     3585.257     2982.074        1.704        0.638      136.092       42.280        0.097      339.865       13.490      861.788
03/22/2014  18:54:00       83.481       60.358       60.961       76.556       57.151       53.060     5860.881     3266.270     2815.349        1.313        0.597      103.015       46.740        0.206      339.931       13.601      861.801
03/22/2014  18:55:00      101.602       74.995       78.181      124.247       70.705       70.444    15437.428     4999.206     4962.344        2.373        1.270      126.282       78.620        0.388      339.901       13.549      861.806
03/22/2014  18:56:00      166.899       30.878       52.242       93.810       60.140       60.490     8800.377     3616.857     3659.051        2.380        0.804      169.731       54.564        0.103      339.860       13.480      861.821
03/22/2014  18:57:00      155.450       70.622       50.187       95.013       63.556       58.354     9027.398     4039.413     3405.153        2.407        0.824      170.739       35.146        0.042      339.837       13.442      861.831
03/22/2014  18:58:00      126.399       95.024       58.089       63.529       51.595       52.209     4035.955     2662.020     2725.798        1.890        0.471      158.134       50.681        0.103      339.824       13.420      861.842
03/22/2014  18:59:00       93.644       56.526       36.841       70.260       58.656       33.467     4936.435     3440.568     1120.019        1.141        0.475      109.382       30.017        0.075      339.791       13.367      861.851
03/22/2014  19:00:00       41.280       57.428       68.653       40.998       34.395       21.631     1680.852     1183.018      467.907        0.652        0.167       70.726       16.102        0.052      339.747       13.292      861.854
03/22/2014  19:01:00      109.092       48.874       45.115       84.297       60.737       52.533     7105.994     3688.988     2759.674        1.494        0.678      119.539       29.648        0.062      339.740       13.280      861.858
03/22/2014  19:02:00      145.332       76.729       66.824      130.565       84.792       62.418    17047.261     7189.687     3895.995        2.980        1.407      164.344       51.093        0.097      339.696       13.202      861.859
03/22/2014  19:03:00       81.492       47.464       54.317       63.250       67.543       49.357     4000.599     4562.042     2436.092        1.142        0.550       94.307       29.397        0.097      339.657       13.139      861.859
03/22/2014  19:04:00      185.948       90.014       53.186      108.114       83.675       64.056    11688.641     7001.544     4103.113        3.415        1.140      206.590       59.609        0.083      339.700       13.210      861.862
03/22/2014  19:05:00      124.505       40.904       45.453       91.139       60.785       45.396     8306.276     3694.801     2060.758        1.665        0.703      131.052       30.809        0.055      339.707       13.223      861.868
03/22/2014  19:06:00      133.897       28.184       43.355       89.349       65.491       54.254     7983.167     4289.035     2943.502        1.791        0.761      136.831       53.018        0.150      339.714       13.235      861.869
03/22/2014  19:07:00       43.907       47.441       82.385       61.064       57.930       35.173     3728.804     3355.914     1237.119        0.964        0.416       64.641       30.656        0.225      339.678       13.175      861.881
03/22/2014  19:08:00      130.787       82.698       81.346      135.813       58.281       66.934    18445.266     3396.622     4480.202        2.844        1.316      154.739       68.048        0.193      339.692       13.197      861.885
03/22/2014  19:09:00      114.806       57.735       48.847       84.774       70.823       74.390     7186.581     5015.869     5533.807        1.832        0.887      128.505       60.410        0.221      339.651       13.129      861.893
03/22/2014  19:10:00      119.145       72.820       53.213       95.748       81.780       74.139     9167.633     6688.048     5496.643        2.184        1.068      139.637       51.446        0.136      339.636       13.104      861.900
03/22/2014  19:11:00      140.515       92.043       73.417       88.206       62.511       66.769     7780.374     3907.660     4458.091        2.487        0.807      167.978       54.871        0.107      339.639       13.108      861.905
03/22/2014  19:12:00      122.527       87.547       51.051       82.403       51.509       46.301     6790.320     2653.203     2143.779        1.843        0.579      150.590       27.249        0.033      339.625       13.083      861.916
03/22/2014  19:13:00       94.611       24.010       50.357       72.667       54.199       39.086     5280.443     2937.502     1527.682        1.090        0.487       97.610       34.244        0.123      339.584       13.017      861.921
03/22/2014  19:14:00      137.667       96.108       44.653       76.551       46.357       47.421     5860.126     2148.995     2248.745        2.022        0.513      167.896       35.958        0.046      339.613       13.065      861.936
03/22/2014  19:15:00      147.123       78.176       56.449       72.037       48.057       56.414     5189.274     2309.443     3182.485        2.081        0.534      166.603       46.130        0.077      339.605       13.050      861.950
03/22/2014  19:16:00      106.482       43.676       51.033       77.503       70.122       51.679     6006.653     4917.112     2670.744        1.472        0.680      115.092       46.641        0.164      339.551       12.961      861.965
03/22/2014  19:17:00       87.056       43.181       48.041       65.602       44.728       46.811     4303.645     2000.576     2191.239        1.012        0.425       97.177       33.419        0.118      339.530       12.924      861.980
03/22/2014  19:18:00      181.845       94.828       57.696      110.833       86.911       60.516    12283.962     7553.599     3662.243        3.444        1.175      205.085       50.189        0.060      339.573       12.996      861.989
03/22/2014  19:19:00      187.504      104.098       64.038       65.995       56.657       50.580     4355.314     3209.982     2558.329        3.011        0.506      214.462       36.219        0.029      339.557       12.967      861.992
03/22/2014  19:20:00      136.406       66.936       44.851       83.061       82.067       64.662     6899.061     6734.992     4181.167        2.145        0.891      151.944       52.672        0.120      339.552       12.962      862.006
03/22/2014  19:21:00      120.912       58.014       26.676       70.745       56.024       50.642     5004.917     3138.665     2564.595        1.470        0.535      134.109       22.617        0.028      339.548       12.955      862.016
03/22/2014  19:22:00      137.460       33.710       59.458       96.249       62.332       49.634     9263.921     3885.295     2463.539        1.959        0.781      141.533       48.201        0.116      339.502       12.878      862.026
03/22/2014  19:23:00      137.737       67.463       69.107       77.312       72.978       66.903     5977.181     5325.768     4475.981        2.204        0.789      153.371       69.136        0.203      339.519       12.906      862.021
03/22/2014  19:24:00      105.236      128.192      103.375       84.303       84.669       58.724     7107.070     7168.839     3448.564        2.796        0.886      165.855       39.651        0.057      339.486       12.850      862.020
03/22/2014  19:25:00      114.280      116.000       61.964       96.319       70.253       61.280     9277.346     4935.421     3755.205        2.416        0.898      162.837       50.009        0.094      339.451       12.791      862.021
03/22/2014  19:26:00      171.875      104.057       52.849       68.093       68.288       42.372     4636.667     4663.263     1795.375        2.713        0.555      200.920       20.737        0.011      339.407       12.717      862.036
03/22/2014  19:27:00      168.169       69.919       57.697      103.938       83.375       52.378    10803.114     6951.468     2743.430        2.849        1.025      182.126       52.122        0.082      339.503       12.876      862.035
03/22/2014  19:28:00       56.650       88.258       86.471       59.882       42.078       46.673     3585.905     1770.525     2178.415        1.300        0.377      104.875       33.022        0.099      339.477       12.837      862.041
03/22/2014  19:29:00       74.756       45.452       56.680       67.124       49.543       45.156     4505.639     2454.462     2039.046        0.993        0.450       87.489       39.154        0.200      339.381       12.675      862.048
03/22/2014  19:30:00       44.925       35.665       39.794       36.316       28.286       28.726     1318.829      800.096      825.183        0.391        0.147       57.361       12.789        0.050      339.347       12.618      862.055
03/22/2014  19:31:00       55.940       43.651       71.117       67.357       54.141       37.966     4536.993     2931.279     1441.392        0.950        0.445       70.955       29.621        0.174      339.335       12.595      862.064
03/22/2014  19:32:00      125.440       54.631       67.959       80.745       77.959       59.546     6519.788     6077.672     3545.667        1.974        0.807      136.820       53.427        0.152      339.320       12.571      862.065
03/22/2014  19:33:00      112.168       51.021       69.392       81.729       77.179       57.027     6679.604     5956.586     3252.118        1.794        0.794      123.227       45.179        0.134      339.310       12.554      862.063
03/22/2014  19:34:00      187.466       67.907       42.436      108.771       83.508       66.621    11831.055     6973.630     4438.300        3.240        1.162      199.386       54.874        0.076      339.322       12.572      862.065
03/22/2014  19:35:00      174.485       46.138       66.048      102.398       79.183       64.798    10485.355     6269.883     4198.835        2.894        1.048      180.482       52.651        0.085      339.358       12.634      862.064
03/22/2014  19:36:00      105.959       69.878       92.571       92.253       74.470       53.163     8510.535     5545.770     2826.330        2.078        0.844      126.926       41.990        0.109      339.323       12.576      862.072
03/22/2014  19:37:00       85.099       71.215       83.482       84.608       59.507       46.699     7158.592     3541.032     2180.765        1.608        0.644      110.966       42.598        0.147      339.291       12.522      862.086
03/22/2014  19:38:00      109.386       29.484       47.072       68.240       68.737       55.385     4656.660     4724.737     3067.483        1.375        0.622      113.290       48.164        0.181      339.271       12.488      862.103
03/22/2014  19:39:00      153.338       21.406       68.741      109.749       80.725       54.125    12044.789     6516.562     2929.492        2.509        1.075      154.825       59.269        0.147      339.323       12.575      862.105
03/22/2014  19:40:00      119.093       30.963       46.457      148.004      105.676       70.894    21905.135    11167.385     5025.980        2.769        1.905      123.052       71.406        0.337      339.351       12.623      862.111
03/22/2014  19:41:00       82.274       91.605       91.684       87.725       78.939       65.834     7695.707     6231.369     4334.101        2.091        0.913      123.128       55.135        0.201      339.321       12.571      862.143
03/22/2014  19:42:00       91.019       57.904       63.278      105.189       77.477       58.435    11064.677     6002.698     3414.597        1.806        1.024      107.877       42.466        0.155      339.270       12.487      862.158
03/22/2014  19:43:00      200.518      114.194       56.189       83.972       61.423       41.226     7051.289     3772.745     1699.551        3.446        0.626      230.754       29.633        0.016      339.271       12.486      862.186
03/22/2014  19:44:00      193.741       57.918       14.581      133.038       80.213       64.641    17699.203     6434.198     4178.512        3.470        1.416      202.213       56.052        0.077      339.344       12.612      862.200
03/22/2014  19:45:00       63.610       46.132       60.329       50.508       40.139       38.870     2551.099     1611.162     1510.900        0.774        0.284       78.577       25.047        0.102      339.284       12.512      862.221
03/22/2014  19:46:00      121.599       48.768       47.799       87.458       52.360       50.759     7648.928     2741.523     2576.502        1.621        0.648      131.013       41.086        0.098      339.242       12.440      862.244
03/22/2014  19:47:00       96.137       19.480       22.017       70.664       54.369       41.354     4993.420     2956.023     1710.137        0.988        0.483       98.090       35.214        0.129      339.234       12.427      862.273
03/22/2014  19:48:00       64.985       60.877       55.185       62.742       37.740       36.089     3936.541     1424.344     1302.392        0.882        0.333       89.045       34.711        0.152      339.212       12.391      862.286
03/22/2014  19:49:00       53.148       45.007       38.751       29.009       28.319       26.170      841.502      801.948      684.875        0.434        0.116       69.644       13.882        0.040      339.131       12.255      862.292
03/22/2014  19:50:00       43.859       41.276       52.016       29.174       28.122       22.385      851.102      790.824      501.096        0.424        0.107       60.227       20.789        0.119      339.166       12.314      862.322
03/22/2014  19:51:00       86.696       13.629       25.478       46.447       46.523       33.875     2157.349     2164.374     1147.483        0.691        0.273       87.761       21.840        0.062      339.174       12.326      862.341
03/22/2014  19:52:00       68.973        2.317       30.696       38.782       22.818       23.812     1504.071      520.640      566.992        0.415        0.130       69.012       22.053        0.102      339.130       12.252      862.361
03/22/2014  19:53:00        4.400        4.862       23.191       17.433       13.430       11.488      303.919      180.365      131.963        0.060        0.031        6.557        7.598        1.343      339.061       12.135      862.379
03/22/2014  19:54:00       27.728       28.324       31.400       28.120       18.868       16.974      790.707      356.018      288.116        0.200        0.072       39.637        8.158        0.042      339.057       12.129      862.397
03/22/2014  19:55:00       20.356      -50.436        0.571       22.539       37.023       20.161      508.012     1370.739      406.478        0.262        0.114       54.389       14.090        0.067      339.214       12.394      862.419
03/22/2014  19:56:00       35.729      -64.308        3.609       19.787       23.361       15.377      391.514      545.742      236.450        0.330        0.059       73.567        7.859        0.011      339.325       12.581      862.437
03/22/2014  19:57:00       32.706       -7.159       21.978       25.695       44.696       20.652      660.217     1997.741      426.490        0.234        0.154       33.480       19.803        0.350      339.176       12.329      862.440
03/22/2014  19:58:00       42.267       30.280       26.567       32.649       24.338       16.036     1065.930      592.335      257.167        0.266        0.096       51.994        6.883        0.018      339.181       12.339      862.455
03/22/2014  19:59:00       41.646       31.035       25.213       32.189       18.727       15.539     1036.111      350.706      241.459        0.248        0.081       51.938       11.951        0.053      339.177       12.333      862.458
03/22/2014  20:00:00        2.753      -32.051       11.968       20.893       48.020       22.719      436.526     2305.936      516.157        0.222        0.163       32.169       27.939        0.754      339.236       12.431      862.470
03/22/2014  20:01:00       28.927      -78.524        5.508       32.129       38.921       32.277     1032.301     1514.840     1041.817        0.531        0.179       83.682       23.855        0.081      339.379       12.671      862.479
03/22/2014  20:02:00       47.539      -49.461       37.836       48.292       87.319       39.016     2332.103     7624.581     1522.258        0.881        0.574       68.603       46.339        0.456      339.286       12.516      862.483
03/22/2014  20:03:00       51.388       31.069       58.596       73.004       52.176       46.992     5329.594     2722.310     2208.235        0.865        0.513       60.050       52.622        0.768      339.159       12.301      862.495
03/22/2014  20:04:00       52.622       51.813       66.614       44.715       40.062       29.496     1999.468     1604.987      869.989        0.718        0.224       73.849       23.621        0.102      339.169       12.318      862.518
03/22/2014  20:05:00       70.812       59.453       39.144       33.168       25.583       28.054     1100.101      654.478      787.004        0.631        0.127       92.461       20.472        0.049      339.116       12.229      862.534
03/22/2014  20:06:00       66.641       39.388       32.392       48.176       39.817       33.348     2320.957     1585.379     1112.082        0.603        0.251       77.410       30.902        0.159      339.104       12.210      862.546
03/22/2014  20:07:00       68.372       51.466       70.651       66.463       52.057       47.118     4417.289     2709.945     2220.081        1.083        0.467       85.578       41.281        0.233      339.079       12.167      862.570
03/22/2014  20:08:00       83.459       38.524       31.057       57.535       43.658       36.812     3310.226     1906.053     1355.097        0.799        0.329       91.921       32.560        0.125      339.111       12.220      862.584
03/22/2014  20:09:00       28.978      -68.125        8.466       27.934       39.071       19.920      780.315     1526.518      396.811        0.413        0.135       74.032       17.180        0.054      339.179       12.335      862.594
03/22/2014  20:10:00       75.783       29.479       39.238       63.281       67.545       41.643     4004.440     4562.290     1734.172        0.922        0.515       81.315       33.003        0.165      339.058       12.130      862.620
03/22/2014  20:11:00       68.055       56.866       37.137       54.547       38.709       32.214     2975.427     1498.407     1037.766        0.738        0.276       88.686       27.250        0.094      338.987       12.012      862.640
03/22/2014  20:12:00       79.866       -7.464       17.724       52.959       31.821       28.963     2804.680     1012.563      838.827        0.570        0.233       80.214       16.303        0.041      338.947       11.945      862.654
03/22/2014  20:13:00       78.459       76.100       70.036       57.297       55.725       56.395     3282.938     3105.279     3180.445        1.321        0.478      109.302       47.046        0.185      338.967       11.980      862.660
03/22/2014  20:14:00      104.049       60.424       61.675       86.561       59.438       48.577     7492.844     3532.843     2359.706        1.583        0.669      120.321       52.625        0.191      338.992       12.019      862.676
03/22/2014  20:15:00       97.879       40.702       25.815       48.691       52.618       35.925     2370.787     2768.696     1290.582        0.917        0.322      106.005       21.026        0.039      338.986       12.012      862.682
03/22/2014  20:16:00      100.403       40.557       18.846       61.259       40.578       34.140     3752.651     1646.538     1165.539        0.932        0.328      108.285       24.515        0.051      338.931       11.916      862.691
03/22/2014  20:17:00       62.924       65.949       36.096       51.770       34.980       37.311     2680.092     1223.619     1392.140        0.745        0.265       91.152       33.983        0.139      338.935       11.925      862.699
03/22/2014  20:18:00       82.051       37.049       23.103       44.749       33.738       29.509     2002.475     1138.283      870.767        0.632        0.201       90.028       24.573        0.075      338.875       11.823      862.701
03/22/2014  20:19:00       83.979       32.755       13.757       48.904       42.204       22.785     2391.634     1781.219      519.163        0.650        0.235       90.141       14.136        0.025      338.830       11.748      862.714
03/22/2014  20:20:00      121.900       52.003       22.756       55.523       39.532       27.742     3082.761     1562.783      769.613        1.175        0.271      132.529       17.858        0.018      338.843       11.768      862.729
03/22/2014  20:21:00       85.456       58.664       11.574       29.443       24.784       21.144      866.895      614.246      447.076        0.640        0.096      103.654       10.116        0.010      338.769       11.647      862.737
03/22/2014  20:22:00      105.628       52.463       21.582       51.875       45.384       32.157     2691.020     2059.728     1034.086        1.008        0.289      117.940       17.432        0.022      338.791       11.684      862.752
03/22/2014  20:23:00       98.491       61.902       20.206       40.071       27.480       31.423     1605.723      755.143      987.389        0.864        0.167      116.329       18.090        0.024      338.751       11.616      862.761
03/22/2014  20:24:00      100.348       47.563       -3.390       31.445       24.252       21.694      988.796      588.154      470.615        0.720        0.102      111.050       19.297        0.030      338.743       11.602      862.762
03/22/2014  20:25:00       65.946       44.512       11.550       30.523       28.153       25.735      931.638      792.586      662.299        0.442        0.119       79.562       19.382        0.059      338.721       11.564      862.773
03/22/2014  20:26:00       75.659       38.569       17.049       26.148       25.365       23.072      683.744      643.364      532.332        0.468        0.093       84.923       16.996        0.040      338.737       11.593      862.781
03/22/2014  20:27:00       44.773       32.427       -0.170       24.601       24.605       16.480      605.228      605.429      271.598        0.227        0.074       55.282        9.782        0.031      338.661       11.463      862.782
03/22/2014  20:28:00       69.767       54.040        3.961       26.501       17.478       21.106      702.323      305.481      445.481        0.463        0.073       88.249       13.858        0.025      338.665       11.471      862.801
03/22/2014  20:29:00       78.969       50.086       10.289       23.167       24.500       20.002      536.721      600.255      400.069        0.519        0.077       93.513        5.582        0.004      338.650       11.445      862.806
03/22/2014  20:30:00       96.458       26.009       12.568       61.985       48.427       35.372     3842.147     2345.141     1251.183        0.879        0.372       99.903       25.293        0.064      338.771       11.649      862.811
03/22/2014  20:31:00       61.938       26.043        4.176       27.924       23.371       17.640      779.754      546.224      311.179        0.308        0.082       67.190        6.067        0.008      338.725       11.571      862.831
03/22/2014  20:32:00       38.449       30.085        9.466       23.437       15.109       16.032      549.296      228.273      257.023        0.175        0.052       48.820        5.676        0.014      338.648       11.442      862.840
03/22/2014  20:33:00       75.594       59.639       13.037       55.019       46.950       30.267     3027.131     2204.312      916.110        0.779        0.307       96.287       19.087        0.039      338.819       11.729      862.843
03/22/2014  20:34:00       76.040       36.339       14.545       39.485       32.114       23.490     1559.081     1031.312      551.762        0.523        0.157       84.277       11.995        0.020      338.802       11.700      862.853
03/22/2014  20:35:00       59.185       47.918        7.486       25.876       27.747       20.283      669.554      769.901      411.395        0.385        0.093       76.151       15.705        0.043      338.701       11.532      862.877
03/22/2014  20:36:00       18.038       30.714       -4.644       23.929       25.689       17.691      572.615      659.942      312.970        0.142        0.077       35.619       14.828        0.173      338.671       11.480      862.888
03/22/2014  20:37:00       49.603       40.534        9.975       21.836       22.618       14.845      476.832      511.586      220.382        0.271        0.060       64.059       11.318        0.031      338.667       11.474      862.898
03/22/2014  20:38:00       45.950       40.629        1.823       23.835       18.078       16.321      568.124      326.802      266.383        0.246        0.058       61.336       11.789        0.037      338.711       11.547      862.915
03/22/2014  20:39:00       32.525       49.644       -0.299       33.060       24.730       20.612     1092.988      611.559      424.864        0.283        0.106       59.350       18.811        0.100      338.701       11.531      862.930
03/22/2014  20:40:00       -1.101      117.067      -24.199       18.712       20.402       11.144      350.147      416.238      124.186        0.759        0.045      117.072       13.184        0.013      338.611       11.380      862.933
03/22/2014  20:41:00        1.675       82.544      -14.383       63.287       61.800       30.201     4005.258     3819.220      912.091        0.788        0.437       82.561       37.754        0.209      338.810       11.715      862.950
03/22/2014  20:42:00      -10.855       87.267      -13.104       23.397       33.296       15.585      547.440     1108.628      242.883        0.490        0.095       87.939       16.099        0.034      338.711       11.549      862.974
03/22/2014  20:43:00      -20.731       71.546      -13.449       22.351       42.073       16.169      499.583     1770.118      261.441        0.413        0.127       74.489       21.992        0.087      338.719       11.561      862.985
03/22/2014  20:44:00      -14.566       71.309      -13.527       24.617       27.071       17.274      605.993      732.858      298.390        0.356        0.082       72.781        6.926        0.009      338.651       11.448      862.995
03/22/2014  20:45:00      -15.617        6.915        7.720       29.377       35.633       16.780      863.034     1269.701      281.558        0.138        0.121       17.079       17.858        1.093      338.282       10.828      863.011
03/22/2014  20:46:00      -64.028      -27.098      -10.510       15.603       24.657       13.654      243.455      607.970      186.442        0.299        0.052       69.526        9.009        0.017      337.856       10.112      863.023
03/22/2014  20:47:00      -66.293       -3.748       -7.001       45.334       31.482       17.898     2055.198      991.136      320.345        0.391        0.168       66.399       10.848        0.027      337.914       10.210      863.031
03/22/2014  20:48:00      -67.473       -0.778       -9.925       36.510       19.840       13.232     1332.998      393.619      175.094        0.328        0.095       67.478       14.964        0.049      337.910       10.204      863.031
03/22/2014  20:49:00      -44.636       -4.722       -9.746       20.625       21.612       14.595      425.399      467.078      213.007        0.161        0.055       44.885        9.723        0.047      338.165       10.631      863.037
03/22/2014  20:50:00      -24.556        5.137       -9.062       16.023       23.035       12.657      256.728      530.591      160.199        0.083        0.047       25.088       11.112        0.196      338.183       10.661      863.049
03/22/2014  20:51:00      -18.345        7.604       -6.425       17.488       19.334        9.379      305.846      373.790       87.961        0.060        0.038       19.859        6.647        0.112      338.117       10.551      863.063
03/22/2014  20:52:00      -61.410       48.066      -19.773       20.370       18.766       11.345      414.952      352.166      128.712        0.368        0.045       77.985        9.206        0.014      338.223       10.729      863.066
03/22/2014  20:53:00      -51.783       19.365      -11.157       19.942       22.783       16.370      397.664      519.065      267.987        0.218        0.059       55.285       13.500        0.060      338.368       10.973      863.074
03/22/2014  20:54:00      -19.610      -13.067        0.127       20.412       17.247        9.960      416.666      297.458       99.197        0.068        0.041       23.565        7.582        0.104      337.917       10.216      863.091
03/22/2014  20:55:00      -13.120       -4.228        1.082       26.500       18.626       15.488      702.239      346.932      239.888        0.074        0.064       13.785       10.967        0.633      337.905       10.196      863.098
03/22/2014  20:56:00       -7.721       32.600       -4.159       31.049       29.912       22.097      964.061      894.701      488.294        0.174        0.117       33.502        4.466        0.018      338.188       10.669      863.096
03/22/2014  20:57:00      -18.443       16.332        7.175       27.432       18.121       14.325      752.503      328.372      205.197        0.097        0.064       24.635       14.837        0.363      337.946       10.264      863.092
03/22/2014  20:58:00        4.547      -15.737       -7.768        9.084       23.821        7.347       82.516      567.457       53.981        0.052        0.035       16.380        4.355        0.071      337.927       10.232      863.099
03/22/2014  20:59:00      -55.495      -24.637       -7.930       33.417       20.961       16.426     1116.727      439.352      269.824        0.279        0.091       60.718       13.753        0.051      337.650        9.768      863.097
03/22/2014  21:00:00      -85.113      -35.410      -11.250       21.487       18.111       13.292      461.678      328.023      176.672        0.480        0.048       92.185        7.056        0.006      337.582        9.652      863.100
03/22/2014  21:01:00      -90.463       -4.479      -14.333       29.205       17.154       14.681      852.945      294.245      215.518        0.489        0.068       90.574       11.757        0.017      337.669        9.799      863.106
03/22/2014  21:02:00      -82.918        2.613      -17.721       31.404       17.009       15.172      986.238      289.305      230.178        0.435        0.075       82.960       16.213        0.038      337.977       10.317      863.116
03/22/2014  21:03:00      -41.064       48.158      -10.557       38.271       25.445       21.626     1464.687      647.473      467.682        0.335        0.129       63.289       17.335        0.075      338.316       10.887      863.125
03/22/2014  21:04:00       18.175       97.492      -13.587       22.977       29.399       12.379      527.925      864.289      153.249        0.578        0.077       99.172       11.056        0.012      338.624       11.401      863.130
03/22/2014  21:05:00       14.187       85.979      -11.573       11.837       29.665       11.693      140.122      880.026      136.729        0.444        0.058       87.142       15.962        0.034      338.452       11.111      863.136
03/22/2014  21:06:00      -18.244       60.122      -12.373       29.915       38.719       14.499      894.889     1499.190      210.225        0.335        0.130       62.830       18.551        0.087      338.377       10.988      863.156
03/22/2014  21:07:00      -26.027       39.878       -5.362       24.665       25.196       19.602      608.354      634.835      384.228        0.196        0.081       47.620       18.293        0.148      338.418       11.056      863.170
03/22/2014  21:08:00       -8.271       17.692        3.867       26.140       16.053       21.844      683.294      257.705      477.149        0.091        0.071       19.530       12.587        0.415      338.359       10.957      863.176
03/22/2014  21:09:00      -28.220       -6.838        1.352       17.876       17.146       13.786      319.551      293.979      190.052        0.082        0.040       29.036       13.361        0.212      337.850       10.103      863.187
03/22/2014  21:10:00      -50.519      -14.821      -10.013       20.116       14.737        9.846      404.661      217.176       96.945        0.180        0.036       52.648        7.106        0.018      337.663        9.789      863.197
03/22/2014  21:11:00      -36.187      -22.439       -6.862       29.844       19.358       16.368      890.675      374.746      267.904        0.170        0.077       42.579        9.059        0.045      337.523        9.554      863.219
03/22/2014  21:12:00      -77.424      -26.212       -8.181       25.069       24.486       16.087      628.440      599.563      258.802        0.412        0.074       81.741       15.598        0.036      337.476        9.476      863.233
03/22/2014  21:13:00      -82.505      -22.123      -15.637       14.148       22.614       12.802      200.164      511.415      163.886        0.421        0.044       85.419       10.011        0.014      337.467        9.461      863.241
03/22/2014  21:14:00      -86.983      -31.055       -8.120       14.171       16.795       13.074      200.821      282.085      170.937        0.462        0.033       92.360       10.605        0.013      337.505        9.524      863.255
03/22/2014  21:15:00      -48.703      -14.068      -11.428       31.344       25.644       14.669      982.469      657.605      215.188        0.228        0.093       50.694        9.396        0.034      337.512        9.536      863.259
03/22/2014  21:16:00      -45.672       12.816      -12.855       20.150       25.769       17.969      406.008      664.035      322.892        0.190        0.070       47.436       14.661        0.096      337.748        9.931      863.276
03/22/2014  21:17:00      -27.755       -4.403       -5.254       22.447       28.863       15.885      503.864      833.044      252.326        0.120        0.079       28.102       12.771        0.207      337.698        9.847      863.269
03/22/2014  21:18:00      -51.820      -18.220       -7.617       23.057       20.158       16.461      531.624      406.335      270.954        0.214        0.060       54.930        7.928        0.021      337.379        9.312      863.262
03/22/2014  21:19:00      -22.077      -14.662       -5.605       24.493       16.680       14.043      599.893      278.237      197.205        0.090        0.054       26.502       10.098        0.145      337.200        9.015      863.257
03/22/2014  21:20:00      -41.578       -1.376       -4.434       32.055       29.933       15.829     1027.550      896.007      250.544        0.196        0.109       41.601        7.030        0.029      337.395        9.341      863.265
03/22/2014  21:21:00      -36.960      -13.253       -7.430       28.299       28.647       11.225      800.847      820.653      126.002        0.167        0.087       39.264       11.920        0.092      337.305        9.188      863.262
03/22/2014  21:22:00      -53.161      -12.441       -9.102       18.293       26.604       13.534      334.624      707.774      183.170        0.214        0.061       54.598        4.233        0.006      337.326        9.226      863.256
03/22/2014  21:23:00      -55.627      -38.274       -2.680       22.602       21.754       14.323      510.867      473.238      205.154        0.288        0.059       67.522        9.287        0.019      337.145        8.921      863.258
03/22/2014  21:24:00      -35.000        2.846       -4.183       31.092       27.374       22.491      966.742      749.330      505.826        0.174        0.111       35.116       18.900        0.290      337.419        9.379      863.271
03/22/2014  21:25:00      -52.961        5.377       -9.832       18.521       23.532       14.666      343.023      553.738      215.082        0.202        0.056       53.233       10.007        0.035      337.455        9.441      863.281
03/22/2014  21:26:00      -49.725       -1.374       -9.458       25.129       18.842       11.322      631.484      355.013      128.181        0.184        0.056       49.744        9.025        0.033      337.540        9.583      863.281
03/22/2014  21:27:00      -41.064      -11.951      -10.310       32.508       26.023       12.598     1056.744      677.195      158.716        0.191        0.095       42.768        7.777        0.033      337.381        9.318      863.292
03/22/2014  21:28:00      -41.400       -6.404       -7.123       31.876       26.113       12.396     1016.050      681.906      153.663        0.183        0.093       41.892       11.141        0.071      337.370        9.299      863.296
03/22/2014  21:29:00      -39.169       -5.609       -0.785       24.539       20.376       13.504      602.160      415.170      182.356        0.138        0.060       39.569       11.580        0.086      337.288        9.162      863.296
03/22/2014  21:30:00      -55.374      -17.751        0.293       37.759       25.457       19.691     1425.732      648.075      387.736        0.292        0.123       58.150       12.082        0.043      337.102        8.849      863.300
03/22/2014  21:31:00      -19.469       -9.043       -7.431       18.951       27.110       17.606      359.141      734.927      309.964        0.096        0.070       21.466       12.389        0.333      337.163        8.951      863.318
03/22/2014  21:32:00      -56.174      -13.646      -14.159       19.824       24.878       18.451      392.986      618.901      340.435        0.245        0.068       57.808       11.548        0.040      337.212        9.034      863.328
03/22/2014  21:33:00      -43.914       -5.814       -4.580       24.806       25.256       12.520      615.362      637.882      156.747        0.170        0.070       44.297       10.694        0.058      337.244        9.087      863.325
03/22/2014  21:34:00      -45.707       11.771       -3.127       26.155       27.329       20.668      684.082      746.854      427.160        0.205        0.093       47.199       14.281        0.092      337.573        9.637      863.335
03/22/2014  21:35:00      -94.041       71.947      -19.141       36.217       47.899       24.597     1311.678     2294.321      604.994        0.930        0.211      118.406       28.381        0.057      337.738        9.916      863.336
03/22/2014  21:36:00     -110.517      103.053      -26.916       24.489       33.539       18.187      599.715     1124.895      330.778        1.281        0.103      151.109       16.002        0.011      337.749        9.933      863.334
03/22/2014  21:37:00      -80.726      101.108      -18.718       39.771       34.027       26.985     1581.697     1157.811      728.180        1.028        0.173      129.381       28.231        0.048      337.709        9.866      863.332
03/22/2014  21:38:00      -71.504       69.243      -17.947       26.505       39.274       22.201      702.515     1542.408      492.895        0.648        0.137       99.536       19.485        0.038      337.784        9.993      863.337
03/22/2014  21:39:00      -77.912       77.828      -16.094       33.310       39.216       23.838     1109.544     1537.900      568.242        0.780        0.161      110.124       22.928        0.043      337.846       10.096      863.338
03/22/2014  21:40:00      -72.683       66.281      -18.087       31.691       25.809       18.328     1004.316      666.111      335.931        0.600        0.100       98.367       17.588        0.032      337.816       10.046      863.334
03/22/2014  21:41:00      -70.214       21.737      -10.222       30.699       36.385       17.660      942.411     1323.894      311.868        0.404        0.129       73.501       14.433        0.039      337.753        9.940      863.340
03/22/2014  21:42:00      -56.071        7.246      -18.055       21.908       23.916       15.374      479.951      571.960      236.371        0.241        0.064       56.538       13.006        0.053      337.737        9.913      863.346
03/22/2014  21:43:00      -49.864       -3.205       -9.642       18.694       33.431       14.191      349.462     1117.608      201.374        0.213        0.083       49.966       11.138        0.050      337.451        9.435      863.345
03/22/2014  21:44:00      -52.138        4.654       -7.666       20.923       28.903       17.296      437.784      835.401      299.164        0.219        0.079       52.346       16.835        0.103      337.443        9.423      863.345
03/22/2014  21:45:00      -46.031       11.598      -11.119       17.813       21.560       14.009      317.321      464.813      196.244        0.168        0.049       47.470        8.286        0.030      337.576        9.645      863.360
03/22/2014  21:46:00      -36.384       12.569       -9.072       36.889       37.496       20.067     1360.764     1405.913      402.679        0.237        0.158       38.494       20.200        0.275      337.470        9.466      863.364
03/22/2014  21:47:00      -40.348       -5.379       -7.262       21.539       18.113       13.920      463.935      328.074      193.760        0.135        0.049       40.705       10.701        0.069      337.433        9.404      863.363
03/22/2014  21:48:00      -33.336        1.366       -0.774       19.326       11.630        9.848      373.496      135.254       96.977        0.086        0.030       33.364        9.396        0.079      337.367        9.294      863.373
03/22/2014  21:49:00      -24.349      -14.138       -8.334       14.329       12.409        7.780      205.306      153.990       60.529        0.064        0.021       28.156        6.156        0.048      337.227        9.061      863.382
03/22/2014  21:50:00      -20.263      -25.960       -8.905       20.681       15.874       14.166      427.698      251.998      200.663        0.102        0.044       32.932       10.360        0.099      337.264        9.121      863.391
03/22/2014  21:51:00      -44.866      -38.348       -4.660       30.611       19.317       15.026      937.031      373.161      225.777        0.252        0.077       59.021       11.829        0.040      337.102        8.848      863.399
03/22/2014  21:52:00      -84.912      -51.853      -11.981       41.892       22.220       18.300     1754.942      493.732      334.876        0.631        0.129       99.492       19.888        0.040      336.953        8.599      863.421
03/22/2014  21:53:00     -103.444      -56.945      -24.699       15.441       15.000       13.949      238.415      225.002      194.570        0.761        0.033      118.082        5.967        0.003      336.931        8.562      863.443
03/22/2014  21:54:00     -130.320      -48.263      -20.254       19.874       19.839       12.268      394.957      393.574      150.498        1.033        0.047      138.970       10.771        0.006      336.988        8.658      863.454
03/22/2014  21:55:00     -104.939      -53.006      -10.270       17.000       31.462       15.046      289.011      989.887      226.371        0.772        0.075      117.566       11.117        0.009      336.957        8.605      863.462
03/22/2014  21:56:00      -95.517      -51.216       -2.069       20.414       21.536       11.921      416.735      463.814      142.106        0.639        0.051      108.382        8.350        0.006      337.058        8.776      863.482
03/22/2014  21:57:00      -93.869      -38.639       -3.416       25.892       26.559       13.970      670.393      705.391      195.168        0.594        0.079      101.510        9.733        0.009      337.088        8.825      863.504
03/22/2014  21:58:00      -86.733      -42.565       -1.456       25.264       14.616       15.490      638.253      213.622      239.950        0.521        0.055       96.615       14.451        0.022      337.010        8.693      863.514
03/22/2014  21:59:00      -98.336      -23.235       -2.484       15.955       15.710       15.930      254.568      246.793      253.761        0.549        0.038      101.043       10.594        0.011      337.022        8.714      863.515
03/22/2014  22:00:00     -110.336      -25.508      -18.800       10.266       11.965       11.651      105.392      143.173      135.755        0.678        0.019      113.246        5.240        0.002      336.980        8.644      863.526
03/22/2014  22:01:00     -108.566      -41.631      -13.159       10.916       11.036        9.521      119.163      121.791       90.644        0.701        0.017      116.275        3.422        0.001      336.997        8.674      863.527
03/22/2014  22:02:00     -119.714      -34.298      -13.261       15.939       10.906        7.902      254.061      118.938       62.445        0.806        0.022      124.530        3.157        0.001      336.906        8.522      863.525
03/22/2014  22:03:00     -105.397      -43.587       -7.254       22.571       14.065       10.585      509.428      197.838      112.032        0.694        0.041      114.054       10.302        0.008      336.740        8.245      863.524
03/22/2014  22:04:00      -26.665      -33.801        5.450       35.608       24.772       21.583     1267.902      613.650      465.839        0.211        0.117       43.053       14.805        0.118      336.832        8.399      863.540
03/22/2014  22:05:00      -53.942      -43.499       -0.961       43.956       27.197       18.831     1932.167      739.668      354.596        0.391        0.151       69.295       20.720        0.089      336.836        8.406      863.552
03/22/2014  22:06:00     -108.569      -65.413       -3.504       33.647       26.864       19.952     1132.097      721.700      398.088        0.916        0.113      126.752       16.143        0.016      336.780        8.311      863.556
03/22/2014  22:07:00     -126.560      -46.519      -20.732       18.854       34.290       15.805      355.459     1175.771      249.808        1.020        0.089      134.839       12.537        0.009      336.690        8.162      863.555
03/22/2014  22:08:00     -152.162      -50.095      -11.200       25.891       26.615       15.240      670.324      708.381      232.253        1.370        0.081      160.196        9.545        0.004      336.659        8.111      863.559
03/22/2014  22:09:00     -130.330      -61.278      -23.042       15.720       21.912       18.756      247.118      480.151      351.782        1.118        0.054      144.017       11.271        0.006      336.525        7.888      863.574
03/22/2014  22:10:00     -104.404      -55.720      -14.853       28.558       21.955       16.137      815.548      482.043      260.416        0.789        0.078      118.342        9.658        0.007      336.558        7.939      863.592
03/22/2014  22:11:00      -64.135      -51.933       -4.249       30.632       25.845       21.990      938.320      667.942      483.555        0.446        0.104       82.524       15.683        0.036      336.620        8.046      863.598
03/22/2014  22:12:00      -88.574      -61.234      -10.379       30.368       17.960       19.404      922.214      322.551      376.510        0.666        0.081      107.680       15.975        0.022      336.561        7.947      863.610
03/22/2014  22:13:00      -51.997      -21.898       -2.465       49.546       29.323       26.203     2454.837      859.866      686.613        0.359        0.200       56.420       23.359        0.171      336.522        7.880      863.620
03/22/2014  22:14:00     -148.865      -31.912      -18.290       29.297       26.936       18.732      858.343      725.538      350.886        1.272        0.097      152.247       15.061        0.010      336.476        7.804      863.621
03/22/2014  22:15:00      -94.426      -68.217       -5.508       35.753       35.324       16.943     1278.279     1247.787      287.072        0.821        0.141      116.490       11.671        0.010      336.523        7.882      863.625
03/22/2014  22:16:00     -105.449      -20.212       -4.157       25.306       22.067       13.354      640.388      486.955      178.338        0.643        0.065      107.369        9.061        0.007      336.620        8.046      863.625
03/22/2014  22:17:00     -118.159      -31.809      -11.171       24.841       21.196       15.047      617.054      449.272      226.415        0.820        0.065      122.366        7.502        0.004      336.489        7.825      863.629
03/22/2014  22:18:00      -99.334      -47.961       -5.827       29.875       28.019       21.225      892.545      785.056      450.480        0.716        0.106      110.306       20.187        0.033      336.482        7.812      863.626
03/22/2014  22:19:00     -104.294      -26.708       -7.425       45.118       37.993       24.416     2035.628     1443.474      596.143        0.786        0.204      107.659       19.706        0.034      336.370        7.626      863.622
03/22/2014  22:20:00      -17.145       -8.854        9.691       24.831       28.681       18.658      616.566      822.582      348.139        0.113        0.089       19.296       15.077        0.611      336.419        7.708      863.621
03/22/2014  22:21:00      -33.097      -11.187        4.741       27.585       19.550       16.218      760.912      382.197      263.029        0.132        0.070       34.936       17.161        0.241      336.448        7.757      863.624
03/22/2014  22:22:00      -70.733      -28.804       -8.984       27.818       19.319       14.886      773.816      373.224      221.603        0.364        0.068       76.373        7.047        0.009      336.491        7.828      863.613
03/22/2014  22:23:00      -75.361      -15.102       -9.221       19.670       13.365       11.364      386.890      178.617      129.143        0.334        0.035       76.859        5.531        0.005      336.341        7.578      863.606
03/22/2014  22:24:00      -29.477        3.897       -4.659       18.117       18.991       11.201      328.209      360.662      125.453        0.086        0.041       29.734        7.745        0.068      336.771        8.296      863.618
03/22/2014  22:25:00      -15.667       13.156       -0.810       21.661       15.745       11.151      469.198      247.916      124.339        0.063        0.042       20.459        8.156        0.159      337.006        8.690      863.620
03/22/2014  22:26:00      -33.326      -18.510        0.483       25.017       17.884       15.097      625.837      319.830      227.922        0.131        0.059       38.122        7.899        0.043      336.736        8.238      863.616
03/22/2014  22:27:00        7.265       25.165       -8.982       19.003       27.474       15.444      361.127      754.823      238.522        0.106        0.068       26.193        9.068        0.120      337.005        8.687      863.631
03/22/2014  22:28:00      -12.992       67.058       -8.159       25.705       22.523       13.319      660.763      507.270      177.393        0.304        0.067       68.305       14.558        0.045      337.128        8.895      863.650
03/22/2014  22:29:00      -16.949       37.039        5.197       28.101       54.658       23.834      789.676     2987.529      568.062        0.301        0.217       40.732       20.225        0.247      337.053        8.768      863.652
03/22/2014  22:30:00      -88.960      -44.242      -14.710       18.134       17.388       11.696      328.835      302.336      136.806        0.543        0.038       99.354        6.753        0.005      336.333        7.564      863.652
03/22/2014  22:31:00     -119.230      -32.115      -18.732       12.208       16.183       12.074      149.028      261.884      145.776        0.808        0.028      123.479        7.896        0.004      336.252        7.429      863.666
03/22/2014  22:32:00     -114.618      -46.075      -17.294       28.931       20.310       16.647      836.981      412.506      277.134        0.854        0.076      123.532       10.256        0.007      336.375        7.637      863.679
03/22/2014  22:33:00     -119.323      -76.804       -2.436       34.435       26.962       21.770     1185.772      726.967      473.924        1.126        0.119      141.904       17.740        0.016      336.382        7.647      863.682
03/22/2014  22:34:00     -132.708      -61.363       -7.547       34.054       28.594       18.140     1159.696      817.606      329.066        1.187        0.115      146.209       16.981        0.013      336.421        7.709      863.681
03/22/2014  22:35:00      -94.678      -67.318       -5.292       38.224       28.530       22.824     1461.086      813.946      520.921        0.816        0.140      116.171       14.307        0.015      336.424        7.716      863.690
03/22/2014  22:36:00     -105.651      -31.543       -5.314       24.882       29.739       16.810      619.137      884.401      282.589        0.699        0.089      110.259       10.133        0.008      336.433        7.732      863.704
03/22/2014  22:37:00      -96.080      -45.160      -14.444       22.027       17.675       13.649      485.185      312.395      186.298        0.623        0.049      106.164       11.949        0.013      336.406        7.687      863.715
03/22/2014  22:38:00     -101.044      -45.546       -6.543       15.485       16.565       16.301      239.776      274.387      265.710        0.655        0.039      110.835       11.976        0.012      336.460        7.777      863.717
03/22/2014  22:39:00     -127.903      -42.681      -18.848       26.217       18.222       15.804      687.314      332.029      249.764        0.990        0.063      134.837        9.428        0.005      336.480        7.810      863.730
03/22/2014  22:40:00     -140.066      -45.723      -13.234       15.482       18.679       12.604      239.695      348.891      158.864        1.132        0.037      147.340        4.960        0.001      336.398        7.672      863.740
03/22/2014  22:41:00     -129.688      -50.587       -3.130       36.072       29.555       22.331     1301.169      873.512      498.679        1.103        0.134      139.205       19.015        0.019      336.240        7.409      863.742
03/22/2014  22:42:00     -142.072      -29.233       -3.834       37.374       30.407       19.417     1396.828      924.573      377.027        1.188        0.135      145.049       16.657        0.013      336.228        7.389      863.749
03/22/2014  22:43:00      -95.646      -13.743       -4.858       34.851       35.649       18.828     1214.622     1270.826      354.475        0.610        0.142       96.629       13.693        0.020      336.167        7.286      863.767
03/22/2014  22:44:00     -108.172      -17.240      -12.122       25.561       29.652       18.236      653.368      879.220      332.545        0.700        0.093      109.537       11.457        0.011      336.091        7.159      863.779
03/22/2014  22:45:00     -118.509      -53.861      -12.859       28.766       22.934       19.626      827.505      525.953      385.164        0.942        0.087      130.175       11.863        0.008      336.107        7.185      863.769
03/22/2014  22:46:00     -141.589      -45.940       -9.509       17.388       24.340       13.010      302.340      592.418      169.270        1.166        0.053      148.856       10.681        0.005      336.130        7.225      863.766
03/22/2014  22:47:00     -149.187      -58.611      -10.813       15.641       15.645       11.690      244.642      244.771      136.663        1.322        0.031      160.287        6.983        0.002      336.059        7.106      863.775
03/22/2014  22:48:00     -124.773      -43.562      -14.903        8.121       12.612        9.921       65.956      159.070       98.432        0.901        0.016      132.159        8.253        0.004      336.007        7.017      863.790
03/22/2014  22:49:00     -110.090      -53.147      -15.169       11.859       13.741       10.765      140.632      188.822      115.881        0.781        0.022      122.248        7.553        0.004      336.009        7.024      863.793
03/22/2014  22:50:00      -76.712      -53.598       -9.456       33.166       20.915       20.295     1100.006      437.448      411.891        0.540        0.097       93.582       18.923        0.041      336.074        7.131      863.794
03/22/2014  22:51:00     -118.602      -54.877      -11.960       15.388       14.336       11.320      236.778      205.513      128.153        0.890        0.029      130.682        5.685        0.002      335.952        6.927      863.802
03/22/2014  22:52:00     -111.197      -49.967      -15.504       22.436       15.954       16.754      503.385      254.532      280.704        0.807        0.052      121.908       10.809        0.008      335.936        6.901      863.823
03/22/2014  22:53:00     -117.375      -51.978      -16.839       15.273       16.766       11.282      233.276      281.104      127.280        0.870        0.032      128.369        7.979        0.004      335.934        6.898      863.834
03/22/2014  22:54:00      -98.210      -53.001      -11.143       12.765       14.316       12.306      162.936      204.958      151.443        0.655        0.026      111.599        3.703        0.001      335.962        6.946      863.838
03/22/2014  22:55:00      -86.633      -49.862      -18.695       23.475       21.128       16.643      551.085      446.391      276.979        0.581        0.064       99.958        3.866        0.001      335.965        6.949      863.843
03/22/2014  22:56:00      -51.084      -50.801       -3.925       34.091       16.789       24.902     1162.229      281.856      620.134        0.363        0.103       72.044       25.427        0.125      335.967        6.952      863.853
03/22/2014  22:57:00      -55.483      -38.536       -3.302       36.514       21.234       16.789     1333.264      450.870      281.876        0.332        0.103       67.553       20.363        0.091      335.993        6.997      863.871
03/22/2014  22:58:00      -61.096      -46.058       -8.337       23.367       16.439       15.075      545.998      270.240      227.253        0.348        0.052       76.512       12.552        0.027      336.060        7.108      863.879
03/22/2014  22:59:00      -54.074      -40.744       -0.245       33.110       22.664       20.285     1096.293      513.655      411.465        0.330        0.101       67.705       17.693        0.068      335.995        7.000      863.891
03/22/2014  23:00:00     -101.483      -62.896      -10.046       13.836       15.865       12.161      191.423      251.703      147.886        0.747        0.030      119.393        4.125        0.001      336.097        7.171      863.910
03/22/2014  23:01:00     -113.529      -48.266      -17.319       11.007       11.211        7.870      121.154      125.688       61.937        0.791        0.015      123.363        5.276        0.002      336.006        7.019      863.932
03/22/2014  23:02:00     -113.905      -38.359      -15.621       17.516       11.887       12.323      306.820      141.307      151.869        0.764        0.030      120.190        9.626        0.006      335.959        6.940      863.942
03/22/2014  23:03:00     -134.060      -39.217      -19.872        9.601       14.237        7.923       92.180      202.690       62.770        1.013        0.018      139.679        5.879        0.002      335.942        6.911      863.950
03/22/2014  23:04:00     -127.674      -38.512      -21.254        9.268       12.188        6.527       85.899      148.540       42.604        0.926        0.014      133.356        2.855        0.000      335.971        6.960      863.975
03/22/2014  23:05:00     -113.121      -31.778      -15.172       12.147       12.399       10.592      147.558      153.740      112.180        0.722        0.021      117.500        4.684        0.002      335.998        7.003      863.976
03/22/2014  23:06:00     -112.363      -32.042      -18.545        8.553        9.346        7.407       73.160       87.348       54.861        0.711        0.011      116.842        4.278        0.001      335.978        6.971      863.982
03/22/2014  23:07:00     -119.625      -23.285      -22.029       10.173       11.461       10.338      103.486      131.352      106.884        0.784        0.017      121.870        3.809        0.001      335.954        6.931      863.983
03/22/2014  23:08:00     -106.240      -17.723      -14.996       19.961       20.563       16.838      398.423      422.824      283.506        0.647        0.055      107.708       13.141        0.015      335.949        6.924      863.990
03/22/2014  23:09:00     -107.032      -28.932      -15.584       13.991       10.750       11.521      195.755      115.560      132.741        0.649        0.022      110.873        5.698        0.003      335.922        6.879      863.989
03/22/2014  23:10:00      -91.438      -56.368      -15.018       27.621       17.228       15.977      762.919      296.817      255.256        0.654        0.066      107.416       17.241        0.026      335.935        6.898      863.983
03/22/2014  23:11:00      -85.260      -34.797       -3.424       43.570       22.910       16.568     1898.307      524.852      274.497        0.559        0.135       92.088       17.720        0.037      335.979        6.974      863.987
03/22/2014  23:12:00      -98.727      -20.077       -8.749       26.317       22.686       17.157      692.578      514.676      294.368        0.586        0.075      100.748       13.567        0.018      335.972        6.962      863.991
03/22/2014  23:13:00      -88.341      -26.199       -7.833       18.332       24.791       16.936      336.075      614.570      286.829        0.489        0.062       92.144        8.216        0.008      335.933        6.897      863.984
03/22/2014  23:14:00      -90.070      -17.410       -9.747       24.059       27.032       13.922      578.826      730.738      193.816        0.501        0.075       91.737       11.019        0.014      335.885        6.816      863.984
03/22/2014  23:15:00      -95.885      -17.226      -15.163       25.495       23.941       15.108      649.984      573.176      228.255        0.559        0.073       97.420       10.103        0.011      335.857        6.770      863.984
03/22/2014  23:16:00      -81.374      -28.646      -10.259       21.742       23.874       16.705      472.722      569.967      279.057        0.443        0.066       86.269        7.080        0.007      335.907        6.855      863.993
03/22/2014  23:17:00     -105.077       -7.381      -23.772       20.049       15.721       13.972      401.946      247.158      195.224        0.625        0.042      105.336        7.281        0.005      335.895        6.832      863.993
03/22/2014  23:18:00     -105.681      -17.251      -17.136       28.381       22.028       14.648      805.479      485.253      214.549        0.663        0.075      107.080       12.177        0.013      335.831        6.726      863.990
03/22/2014  23:19:00     -118.619      -24.120      -17.753       28.043       26.370       14.457      786.398      695.381      209.008        0.833        0.085      121.046        8.342        0.005      335.770        6.626      863.984
03/22/2014  23:20:00     -114.697      -25.143      -18.738       24.291       27.041       15.206      590.057      731.240      231.219        0.785        0.078      117.421        9.387        0.006      335.790        6.659      863.982
03/22/2014  23:21:00     -100.313      -46.475      -13.703       26.639       29.557       19.428      709.622      873.622      377.460        0.719        0.098      110.556        9.698        0.008      335.808        6.687      863.969
03/22/2014  23:22:00     -104.164      -17.160      -14.646       27.419       21.678       16.260      751.790      469.949      264.373        0.642        0.074      105.568       11.727        0.012      335.819        6.706      863.963
03/22/2014  23:23:00      -92.124      -29.765      -18.701       24.328       18.993       19.457      591.848      360.730      378.572        0.553        0.067       96.813       11.927        0.015      335.814        6.699      863.969
03/22/2014  23:24:00      -87.113      -35.815      -18.153       30.476       29.975       20.244      928.760      898.514      409.809        0.572        0.112       94.188       15.074        0.026      335.790        6.658      863.976
03/22/2014  23:25:00      -79.726      -47.972      -24.612       33.320       24.253       16.766     1110.222      588.221      281.108        0.562        0.099       93.046        9.099        0.010      335.806        6.685      863.974
03/22/2014  23:26:00      -56.116      -27.439       -8.170       41.318       26.213       17.641     1707.211      687.132      311.207        0.334        0.135       62.466       15.986        0.065      335.842        6.746      863.979
03/22/2014  23:27:00      -60.984      -58.974      -16.098       22.526       33.635       21.543      507.417     1131.282      464.088        0.478        0.105       84.835       13.475        0.025      335.769        6.623      863.974
03/22/2014  23:28:00      -73.391      -79.950      -10.820       22.741       14.967       21.261      517.161      224.005      452.013        0.654        0.060      108.528       14.081        0.017      335.786        6.651      863.974
03/22/2014  23:29:00      -31.450      -49.677       -4.438       36.438       26.152       25.376     1327.711      683.901      643.927        0.307        0.133       58.796       23.387        0.158      335.843        6.745      863.970
03/22/2014  23:30:00      -56.742      -20.554        3.170       52.391       20.404       20.737     2744.836      416.314      430.011        0.362        0.180       60.350       27.425        0.207      335.768        6.623      863.965
03/22/2014  23:31:00      -94.083      -19.817       -7.752       23.946       26.473       20.740      573.390      700.839      430.144        0.550        0.085       96.148       14.940        0.024      335.710        6.523      863.970
03/22/2014  23:32:00      -83.841      -22.532       -5.291       23.606       21.563       16.743      557.229      464.945      280.334        0.443        0.065       86.816       13.011        0.022      335.834        6.731      863.968
03/22/2014  23:33:00      -92.555      -33.252      -22.904       19.686       17.059       15.256      387.536      291.014      232.755        0.555        0.046       98.347        4.343        0.002      335.829        6.724      863.957
03/22/2014  23:34:00       -9.136      -23.589       14.531       33.081       27.013       21.491     1094.344      729.685      461.873        0.157        0.114       25.296       21.051        0.693      335.811        6.695      863.956
03/22/2014  23:35:00      -49.882      -21.935       -3.942       28.782       25.800       17.677      828.420      665.664      312.459        0.240        0.090       54.492       14.612        0.072      335.843        6.746      863.957
03/22/2014  23:36:00      -34.011      -27.183        2.976       44.275       29.407       22.038     1960.300      864.750      485.688        0.261        0.166       43.539       23.604        0.294      335.719        6.540      863.951
03/22/2014  23:37:00      -82.691      -26.993       -4.561       26.904       26.557       17.404      723.836      705.297      302.905        0.466        0.087       86.985       10.663        0.015      335.785        6.650      863.941
03/22/2014  23:38:00      -99.550      -18.905      -11.417       20.139       20.259       13.095      405.564      410.428      171.472        0.569        0.049      101.329        7.536        0.006      335.829        6.724      863.945
03/22/2014  23:39:00     -100.330      -11.686      -19.406       20.497       28.902       16.954      420.119      835.305      287.424        0.606        0.077      101.008        6.554        0.004      335.715        6.534      863.939
03/22/2014  23:40:00     -103.565       -9.473      -17.896       18.815       27.450       16.821      353.996      753.493      282.947        0.626        0.070      103.997       11.604        0.012      335.616        6.369      863.930
03/22/2014  23:41:00     -120.006       -1.387      -23.722       21.119       17.596       17.867      446.019      309.616      319.244        0.802        0.054      120.014        8.811        0.005      335.496        6.167      863.926
03/22/2014  23:42:00     -115.147      -28.892      -12.384       27.502       23.203       17.454      756.369      538.373      304.650        0.792        0.080      118.716        7.610        0.004      335.492        6.163      863.919
03/22/2014  23:43:00     -106.844      -28.709      -16.113       27.741       19.090       17.969      769.572      364.445      322.871        0.698        0.073      110.634       14.228        0.017      335.499        6.175      863.910
03/22/2014  23:44:00      -95.474      -31.441       -8.174       20.209       25.736       16.793      408.398      662.324      282.007        0.576        0.068      100.517       10.764        0.011      335.637        6.405      863.905
03/22/2014  23:45:00      -87.713      -24.127      -13.038       25.147       26.195       17.068      632.361      686.184      291.320        0.503        0.080       90.971       14.146        0.024      335.706        6.520      863.911
03/22/2014  23:46:00      -61.762      -41.571       -9.726       40.782       28.955       28.314     1663.162      838.400      801.705        0.447        0.165       74.450       29.753        0.160      335.665        6.451      863.910
03/22/2014  23:47:00      -62.935      -48.273      -15.429       42.091       31.060       29.582     1771.671      964.728      875.117        0.507        0.181       79.316       27.331        0.119      335.643        6.414      863.904
03/22/2014  23:48:00      -81.241      -52.842      -28.904       29.504       22.069       21.493      870.457      487.059      461.961        0.602        0.091       96.914       16.600        0.029      335.604        6.349      863.898
03/22/2014  23:49:00      -88.891      -51.856      -21.583       22.192       22.234       15.936      492.499      494.337      253.964        0.615        0.062      102.911       11.216        0.012      335.592        6.328      863.892
03/22/2014  23:50:00     -118.343      -21.552      -20.279       11.523       11.120        9.865      132.784      123.648       97.327        0.762        0.018      120.289        5.028        0.002      335.503        6.181      863.900
03/22/2014  23:51:00     -116.436      -29.467      -17.085       19.678       17.076       13.531      387.221      291.605      183.083        0.779        0.043      120.107       10.654        0.008      335.499        6.172      863.896
03/22/2014  23:52:00     -132.032      -30.046      -19.081       14.544       14.821       12.408      211.516      219.660      153.962        0.964        0.029      135.407        9.103        0.005      335.554        6.265      863.908
03/22/2014  23:53:00     -109.006      -31.823      -10.423       26.170       23.787       16.769      684.847      565.822      281.200        0.727        0.077      113.556       12.380        0.012      335.598        6.339      863.901
03/22/2014  23:54:00     -120.584      -51.415       -7.336       20.160       16.509       10.641      406.417      272.543      113.233        0.901        0.040      131.088        8.544        0.004      335.608        6.356      863.908
03/22/2014  23:55:00     -102.503      -25.263       -8.469       20.937       17.862       10.115      438.354      319.050      102.317        0.604        0.043      105.570        8.261        0.006      335.649        6.425      863.914
03/22/2014  23:56:00      -90.028      -42.235      -19.616       11.501       12.810        9.716      132.262      164.088       94.408        0.533        0.020       99.443        5.401        0.003      335.569        6.291      863.912
03/22/2014  23:57:00      -96.047      -29.232      -12.525       13.802       16.870       11.683      190.502      284.610      136.485        0.542        0.031      100.397        6.164        0.004      335.609        6.358      863.918
03/22/2014  23:58:00     -115.206      -33.243      -11.224       16.912       12.588       11.165      286.000      158.458      124.655        0.754        0.028      119.907        7.880        0.004      335.586        6.320      863.913
03/22/2014  23:59:00     -111.166      -40.243       -8.061       15.320       19.197       12.348      234.697      368.521      152.485        0.740        0.038      118.226        8.860        0.006      335.552        6.264      863.914
